[[{"header":{"parameterUnit":"m.s-1","parameterCategory":1,"la1":30.6,"la2":28.766,"lo1":-90.7593,"lo2":-88.6598,"dy":0.0162,"dx":0.0183,"nx":116,"ny":114,"refTime":"2023-05-31T06:00:00:Z","depth":0,"parameterNumber":2,"parameterNumberName":"U-component_of_WINDS"},"data":[0.0,0.0,0.0,0.0,0.0,0.0,0.0,0.0,0.0,0.0,0.0,0.0,0.0,0.0,0.0,0.0,0.0,0.0,0.0,0.0,0.0,0.0,0.0,0.0,0.0,0.0,0.0,0.0,0.0,0.0,0.0,0.0,0.0,0.0,0.0,0.0,0.0,0.0,0.0,0.0,0.0,0.0,0.0,0.0,0.0,0.0,0.0,0.0,0.0,0.0,0.0,0.0,0.0,0.0,0.0,0.0,0.0,0.0,0.0,0.0,0.0,0.0,0.0,0.0,0.0,0.0,0.0,0.0,0.0,0.0,0.0,0.0,0.0,0.0,0.0,0.0,0.0,0.0,0.0,0.0,0.0,0.0,0.0,0.0,0.0,0.0,0.0,0.0,0.0,0.0,0.0,0.0,0.0,0.0,0.0,0.0,0.0,0.0,0.0,0.0,0.0,0.0,0.0,0.0,0.0,0.0,0.0,0.0,0.0,0.0,0.0,0.0,0.0,0.0,0.0,0.0,0.0,0.0,0.0,0.0,0.0,0.0,0.0,0.0,0.0,0.0,0.0,0.0,0.0,0.0,0.0,0.0,0.0,0.0,0.0,0.0,0.0,0.0,0.0,0.0,0.0,0.0,0.0,0.0,0.0,0.0,0.0,0.0,0.0,0.0,0.0,0.0,0.0,0.0,0.0,0.0,0.0,0.0,0.0,0.0,0.0,0.0,0.0,0.0,0.0,0.0,0.0,0.0,0.0,0.0,0.0,0.0,0.0,0.0,0.0,0.0,0.0,0.0,0.0,0.0,0.0,0.0,0.0,0.0,0.0,0.0,0.0,0.0,0.0,0.0,0.0,0.0,0.0,0.0,0.0,0.0,0.0,0.0,0.0,0.0,0.0,0.0,0.0,0.0,0.0,0.0,0.0,0.0,0.0,0.0,0.0,0.0,0.0,0.0,0.0,0.0,0.0,0.0,0.0,0.0,0.0,0.0,0.0,0.0,0.0,0.0,0.0,0.0,0.0,0.0,0.0,0.0,0.0,0.0,0.0,0.0,0.0,0.0,0.0,0.0,0.0,0.0,0.0,0.0,0.0,0.0,0.0,0.0,0.0,0.0,0.0,0.0,0.0,0.0,0.0,0.0,0.0,0.0,0.0,0.0,0.0,0.0,0.0,0.0,0.0,0.0,0.0,0.0,0.0,0.0,0.0,0.0,0.0,0.0,0.0,0.0,0.0,0.0,0.0,0.0,0.0,0.0,0.0,0.0,0.0,0.0,0.0,0.0,0.0,0.0,0.0,0.0,0.0,0.0,0.0,0.0,0.0,0.0,0.0,0.0,0.0,0.0,0.0,0.0,0.0,0.0,0.0,0.0,0.0,0.0,0.0,0.0,0.0,0.0,0.0,0.0,0.0,0.0,0.0,0.0,0.0,0.0,0.0,0.0,0.0,0.0,0.0,0.0,0.0,0.0,0.0,0.0,0.0,0.0,0.0,0.0,0.0,0.0,0.0,0.0,0.0,0.0,0.0,0.0,0.0,0.0,0.0,0.0,0.0,0.0,0.0,0.0,0.0,0.0,0.0,0.0,0.0,0.0,0.0,0.0,0.0,0.0,0.0,0.0,0.0,0.0,0.0,0.0,0.0,0.0,0.0,0.0,0.0,0.0,0.0,0.0,0.0,0.0,0.0,0.0,0.0,0.0,0.0,0.0,0.0,0.0,0.0,0.0,0.0,0.0,0.0,0.0,0.0,0.0,0.0,0.0,0.0,0.0,0.0,0.0,0.0,0.0,0.0,0.0,0.0,0.0,0.0,0.0,0.0,0.0,0.0,0.0,0.0,0.0,0.0,0.0,0.0,0.0,0.0,0.0,0.0,0.0,0.0,0.0,0.0,0.0,0.0,0.0,0.0,0.0,0.0,0.0,0.0,0.0,0.0,0.0,0.0,0.0,0.0,0.0,0.0,0.0,0.0,0.0,0.0,0.0,0.0,0.0,0.0,0.0,0.0,0.0,0.0,0.0,0.0,0.0,0.0,0.0,0.0,0.0,0.0,0.0,0.0,0.0,0.0,0.0,0.0,0.0,0.0,0.0,0.0,0.0,0.0,0.0,0.0,0.0,0.0,0.0,0.0,0.0,0.0,0.0,0.0,0.0,0.0,0.0,0.0,0.0,0.0,0.0,0.0,0.0,0.0,0.0,0.0,0.0,0.0,0.0,0.0,0.0,0.0,0.0,0.0,0.0,0.0,0.0,0.0,0.0,0.0,0.0,0.0,0.0,0.0,0.0,0.0,0.0,0.0,0.0,0.0,0.0,0.0,0.0,0.0,0.0,0.0,0.0,0.0,0.0,0.0,0.0,0.0,0.0,0.0,0.0,0.0,0.0,0.0,0.0,0.0,0.0,0.0,0.0,0.0,0.0,0.0,0.0,0.0,0.0,0.0,0.0,0.0,0.0,0.0,0.0,0.0,0.0,0.0,0.0,0.0,0.0,0.0,0.0,0.0,0.0,0.0,0.0,0.0,0.0,0.0,0.0,0.0,0.0,0.0,0.0,0.0,0.0,0.0,0.0,0.0,0.0,0.0,0.0,0.0,0.0,0.0,0.0,0.0,0.0,0.0,0.0,0.0,0.0,0.0,0.0,0.0,0.0,0.0,0.0,0.0,0.0,0.0,0.0,0.0,0.0,0.0,0.0,0.0,0.0,0.0,0.0,0.0,0.0,0.0,0.0,0.0,0.0,0.0,0.0,0.0,0.0,0.0,0.0,0.0,0.0,0.0,0.0,0.0,0.0,0.0,0.0,0.0,0.0,0.0,0.0,0.0,0.0,0.0,0.0,0.0,0.0,0.0,0.0,0.0,0.0,0.0,0.0,0.0,0.0,0.0,0.0,0.0,0.0,0.0,0.0,0.0,0.0,0.0,0.0,0.0,0.0,0.0,0.0,0.0,0.0,0.0,0.0,0.0,0.0,0.0,0.0,0.0,0.0,0.0,0.0,0.0,0.0,0.0,0.0,0.0,0.0,0.0,0.0,0.0,0.0,0.0,0.0,0.0,0.0,0.0,0.0,0.0,0.0,0.0,0.0,0.0,0.0,0.0,0.0,0.0,0.0,0.0,0.0,0.0,0.0,0.0,0.0,0.0,0.0,0.0,0.0,0.0,0.0,0.0,0.0,0.0,0.0,0.0,0.0,0.0,0.0,0.0,0.0,0.0,0.0,0.0,0.0,0.0,0.0,0.0,0.0,0.0,0.0,0.0,0.0,0.0,0.0,0.0,0.0,0.0,0.0,0.0,0.0,0.0,0.0,0.0,0.0,0.0,0.0,0.0,0.0,0.0,0.0,0.0,0.0,0.0,0.0,0.0,0.0,0.0,0.0,0.0,0.0,0.0,0.0,0.0,0.0,0.0,0.0,0.0,0.0,0.0,0.0,0.0,0.0,0.0,0.0,0.0,0.0,0.0,0.0,0.0,0.0,0.0,0.0,0.0,0.0,0.0,0.0,0.0,0.0,0.0,0.0,0.0,0.0,0.0,0.0,0.0,0.0,0.0,0.0,0.0,0.0,0.0,0.0,0.0,0.0,0.0,0.0,0.0,0.0,0.0,0.0,0.0,0.0,0.0,0.0,0.0,0.0,0.0,0.0,0.0,0.0,0.0,0.0,0.0,0.0,0.0,0.0,0.0,0.0,0.0,0.0,0.0,0.0,0.0,0.0,0.0,0.0,0.0,0.0,0.0,0.0,0.0,0.0,0.0,0.0,0.0,0.0,0.0,0.0,0.0,0.0,0.0,0.0,0.0,0.0,0.0,0.0,0.0,0.0,0.0,0.0,0.0,0.0,0.0,0.0,0.0,0.0,0.0,0.0,0.0,0.0,0.0,0.0,0.0,0.0,0.0,0.0,0.0,0.0,0.0,0.0,0.0,0.0,0.0,0.0,0.0,0.0,0.0,0.0,0.0,0.0,0.0,0.0,0.0,0.0,0.0,0.0,0.0,0.0,0.0,0.0,0.0,0.0,0.0,0.0,0.0,0.0,0.0,0.0,0.0,0.0,0.0,0.0,0.0,0.0,0.0,0.0,0.0,0.0,0.0,0.0,0.0,0.0,0.0,0.0,0.0,0.0,0.0,0.0,0.0,0.0,0.0,0.0,0.0,0.0,0.0,0.0,0.0,0.0,0.0,0.0,0.0,0.0,0.0,0.0,0.0,0.0,0.0,0.0,0.0,0.0,0.0,0.0,0.0,0.0,0.0,0.0,0.0,0.0,0.0,0.0,0.0,0.0,0.0,0.0,0.0,0.0,0.0,0.0,0.0,0.0,0.0,0.0,0.0,0.0,0.0,0.0,0.0,0.0,0.0,0.0,0.0,0.0,0.0,0.0,0.0,0.0,0.0,0.0,0.0,0.0,0.0,0.0,0.0,0.0,0.0,0.0,0.0,0.0,0.0,0.0,0.0,0.0,0.0,0.0,0.0,0.0,0.0,0.0,0.0,0.0,0.0,0.0,0.0,0.0,0.0,0.0,0.0,0.0,0.0,0.0,0.0,0.0,0.0,0.0,0.0,0.0,0.0,0.0,0.0,0.0,0.0,0.0,0.0,0.0,0.0,0.0,0.0,0.0,0.0,0.0,0.0,0.0,0.0,0.0,0.0,0.0,0.0,0.0,0.0,0.0,0.0,0.0,0.0,0.0,0.0,0.0,0.0,0.0,0.0,0.0,0.0,0.0,0.0,0.0,0.0,0.0,0.0,0.0,0.0,0.0,0.0,0.0,0.0,0.0,0.0,0.0,0.0,0.0,0.0,0.0,0.0,0.0,0.0,0.0,0.0,0.0,0.0,0.0,0.0,0.0,0.0,0.0,0.0,0.0,0.0,0.0,0.0,0.0,0.0,0.0,0.0,0.0,0.0,0.0,0.0,0.0,0.0,0.0,0.0,0.0,0.0,0.0,0.0,0.0,0.0,0.0,0.0,0.0,0.0,0.0,0.0,0.0,0.0,0.0,0.0,0.0,0.0,0.0,0.0,0.0,0.0,0.0,0.0,0.0,0.0,0.0,0.0,0.0,0.0,0.0,0.0,0.0,0.0,0.0,0.0,0.0,0.0,0.0,0.0,0.0,0.0,0.0,0.0,0.0,0.0,0.0,0.0,0.0,0.0,0.0,0.0,0.0,0.0,0.0,0.0,0.0,0.0,0.0,0.0,0.0,0.0,0.0,0.0,0.0,0.0,0.0,0.0,0.0,0.0,0.0,0.0,0.0,0.0,0.0,0.0,0.0,0.0,0.0,0.0,0.0,0.0,0.0,0.0,0.0,0.0,0.0,0.0,0.0,0.0,0.0,0.0,0.0,0.0,0.0,0.0,0.0,0.0,0.0,0.0,0.0,0.0,0.0,0.0,0.0,0.0,0.0,0.0,0.0,0.0,0.0,0.0,0.0,0.0,0.0,0.0,0.0,0.0,0.0,0.0,0.0,0.0,0.0,0.0,0.0,0.0,0.0,0.0,0.0,0.0,0.0,0.0,0.0,0.0,0.0,0.0,0.0,0.0,0.0,0.0,0.0,0.0,0.0,0.0,0.0,0.0,0.0,0.0,0.0,0.0,0.0,0.0,0.0,0.0,0.0,0.0,0.0,0.0,0.0,0.0,0.0,0.0,0.0,0.0,0.0,0.0,0.0,0.0,0.0,0.0,0.0,0.0,0.0,0.0,0.0,0.0,0.0,0.0,0.0,0.0,0.0,0.0,0.0,0.0,0.0,0.0,0.0,0.0,0.0,0.0,0.0,0.0,0.0,0.0,0.0,0.0,0.0,0.0,0.0,0.0,0.0,0.0,0.0,0.0,0.0,0.0,0.0,0.0,0.0,0.0,0.0,0.0,0.0,0.0,0.0,0.0,0.0,0.0,0.0,0.0,0.0,0.0,0.0,0.0,0.0,0.0,0.0,0.0,0.0,0.0,0.0,0.0,0.0,0.0,0.0,0.0,0.0,0.0,0.0,0.0,0.0,0.0,0.0,0.0,0.0,0.0,0.0,0.0,0.0,0.0,0.0,0.0,0.0,0.0,0.0,0.0,0.0,0.0,0.0,0.0,0.0,0.0,0.0,0.0,0.0,0.0,0.0,0.0,0.0,2.9137,2.9027,0.0,0.0,0.0,0.0,0.0,0.0,0.0,0.0,0.0,0.0,0.0,0.0,0.0,0.0,0.0,0.0,0.0,0.0,0.0,0.0,0.0,0.0,0.0,0.0,0.0,0.0,0.0,0.0,0.0,0.0,0.0,0.0,0.0,0.0,0.0,0.0,0.0,3.0765,3.0451,3.0155,2.9865,2.9865,2.9529,2.8948,0.0,0.0,0.0,0.0,0.0,0.0,0.0,0.0,0.0,0.0,0.0,0.0,0.0,0.0,0.0,0.0,0.0,0.0,0.0,0.0,0.0,0.0,0.0,0.0,0.0,0.0,0.0,0.0,0.0,0.0,0.0,0.0,0.0,0.0,0.0,0.0,0.0,0.0,0.0,0.0,0.0,0.0,0.0,0.0,0.0,0.0,0.0,0.0,0.0,0.0,0.0,0.0,0.0,0.0,0.0,0.0,0.0,0.0,0.0,0.0,0.0,0.0,0.0,0.0,0.0,0.0,0.0,0.0,0.0,0.0,2.8476,2.8298,0.0,0.0,0.0,0.0,0.0,0.0,0.0,0.0,0.0,0.0,0.0,0.0,0.0,0.0,0.0,0.0,0.0,0.0,0.0,0.0,0.0,0.0,0.0,2.6898,2.7194,2.7946,2.8128,2.8737,0.0,0.0,0.0,0.0,0.0,0.0,3.1195,3.1195,3.0965,3.0461,3.0357,3.0,2.9401,2.9513,2.9501,2.9429,3.0038,0.0,0.0,0.0,0.0,0.0,0.0,0.0,0.0,0.0,0.0,0.0,0.0,0.0,0.0,0.0,0.0,0.0,0.0,0.0,0.0,0.0,0.0,0.0,0.0,0.0,0.0,0.0,0.0,0.0,0.0,0.0,0.0,0.0,0.0,0.0,0.0,0.0,0.0,0.0,0.0,0.0,0.0,0.0,0.0,0.0,0.0,0.0,0.0,0.0,0.0,0.0,0.0,0.0,0.0,0.0,0.0,0.0,0.0,0.0,0.0,0.0,0.0,0.0,2.7293,2.7492,2.7526,2.8247,2.8174,2.7492,2.7492,2.7492,2.7546,2.8266,0.0,0.0,0.0,0.0,0.0,0.0,0.0,0.0,0.0,0.0,0.0,0.0,0.0,0.0,0.0,0.0,0.0,0.0,0.0,2.6941,2.7591,2.765,2.7985,2.8764,2.9431,2.9874,3.0081,0.0,0.0,0.0,0.0,0.0,3.1195,3.1195,3.1161,3.1075,3.0566,3.0,2.9412,2.9946,2.9892,2.9429,3.0038,3.0256,3.015,0.0,0.0,0.0,0.0,0.0,0.0,0.0,0.0,0.0,0.0,0.0,0.0,0.0,0.0,0.0,0.0,0.0,0.0,0.0,0.0,0.0,0.0,0.0,0.0,0.0,0.0,0.0,0.0,0.0,0.0,0.0,0.0,0.0,0.0,0.0,0.0,0.0,0.0,0.0,0.0,0.0,2.5694,2.5694,0.0,0.0,0.0,0.0,0.0,0.0,0.0,0.0,0.0,0.0,0.0,0.0,0.0,2.7218,2.786,2.7088,2.6985,2.756,2.6951,2.6666,2.6666,2.6782,2.6773,2.6666,2.6666,0.0,2.6675,2.6782,0.0,0.0,0.0,0.0,0.0,0.0,0.0,0.0,0.0,0.0,0.0,0.0,0.0,0.0,0.0,0.0,0.0,0.0,0.0,0.0,0.0,2.8467,2.8776,2.955,2.9917,3.0284,3.0683,3.1026,0.0,0.0,0.0,3.1195,3.1195,3.1195,3.103,3.0694,3.0097,2.9827,2.9908,3.0177,3.0335,3.0425,3.0689,3.0622,3.0298,3.0388,0.0,0.0,0.0,0.0,0.0,0.0,0.0,0.0,0.0,0.0,0.0,0.0,0.0,0.0,0.0,0.0,0.0,0.0,0.0,0.0,0.0,0.0,0.0,0.0,0.0,0.0,0.0,0.0,0.0,0.0,0.0,0.0,0.0,0.0,0.0,0.0,0.0,0.0,0.0,2.5519,2.5266,2.5391,2.5674,2.5728,0.0,0.0,0.0,0.0,0.0,0.0,0.0,0.0,0.0,2.6799,2.6427,2.6528,2.7154,2.6775,2.6733,2.7023,2.6675,2.6508,2.6508,2.6508,2.6508,2.6508,2.6508,2.6508,2.6508,2.6508,2.6508,2.6508,0.0,0.0,0.0,0.0,2.6508,2.6508,0.0,0.0,0.0,0.0,0.0,0.0,0.0,0.0,0.0,0.0,0.0,0.0,2.9208,2.9271,2.9576,3.0328,3.0374,3.061,3.1161,3.1195,3.1195,3.1195,3.1195,3.1195,3.1195,3.1195,3.0985,3.0523,3.0086,3.0097,3.0523,3.0523,3.0765,3.1195,3.1195,3.0943,3.0554,3.101,3.1195,3.1195,0.0,0.0,0.0,0.0,0.0,0.0,0.0,0.0,0.0,0.0,0.0,0.0,0.0,0.0,0.0,0.0,0.0,0.0,0.0,0.0,0.0,0.0,0.0,0.0,0.0,0.0,0.0,0.0,0.0,0.0,0.0,0.0,0.0,0.0,0.0,0.0,0.0,2.5027,2.5073,2.5228,2.5601,2.5687,0.0,0.0,0.0,0.0,0.0,0.0,2.6093,2.5419,2.5517,2.6609,2.6125,2.6051,2.6508,2.6508,2.6508,2.6508,2.6508,2.6508,2.6508,2.6508,2.6508,2.6508,2.6508,2.6508,2.6508,2.6508,2.6508,2.6508,2.6508,2.6508,2.6508,2.6508,2.6508,2.6508,0.0,0.0,0.0,0.0,0.0,0.0,0.0,0.0,0.0,0.0,0.0,2.9221,2.9968,3.0031,3.034,3.1077,3.1145,3.1161,3.1195,3.1195,3.1195,3.1195,3.1195,3.1195,3.1195,3.1195,3.1185,3.1151,3.1126,3.1131,3.1151,3.1151,3.1171,3.1195,3.1195,3.1181,3.1161,3.1185,3.1195,3.1195,3.1195,0.0,0.0,0.0,0.0,0.0,0.0,0.0,0.0,0.0,0.0,0.0,0.0,0.0,0.0,0.0,0.0,0.0,0.0,0.0,0.0,0.0,0.0,0.0,0.0,0.0,0.0,0.0,0.0,0.0,0.0,0.0,0.0,0.0,0.0,0.0,0.0,0.0,0.0,2.4829,2.4854,0.0,0.0,0.0,0.0,2.5867,2.5885,2.612,2.6632,2.596,2.5845,2.6484,2.6475,2.6461,2.6508,2.6508,2.6508,2.6508,2.6508,2.6508,2.6508,2.6508,2.6508,2.6508,2.6508,2.6508,2.6508,2.6508,2.6508,2.6508,2.6508,2.6508,2.6508,2.6508,2.6508,2.6508,0.0,0.0,0.0,0.0,0.0,0.0,0.0,0.0,2.9025,2.9119,2.947,2.9989,3.0734,3.0818,3.0908,3.1178,3.1195,3.1195,3.1195,3.1195,3.1195,3.1195,3.1195,3.1195,3.1195,3.0823,3.0818,3.1195,3.1195,3.1195,3.1195,3.1195,3.1195,3.1195,3.1195,3.1195,3.1195,3.1195,3.1195,3.1195,3.1195,3.1195,0.0,0.0,0.0,0.0,0.0,0.0,0.0,0.0,0.0,0.0,0.0,0.0,0.0,0.0,0.0,0.0,0.0,0.0,0.0,0.0,0.0,0.0,0.0,0.0,0.0,0.0,0.0,0.0,0.0,0.0,0.0,0.0,0.0,0.0,0.0,0.0,0.0,2.4833,2.5093,0.0,2.4833,2.5348,2.5705,2.5705,2.607,2.6364,2.656,2.6316,2.6285,2.6495,2.6508,2.6508,2.6508,2.6508,2.6508,2.6508,2.6508,2.6508,2.6508,2.6508,2.6508,2.6508,2.6508,2.6508,2.6508,2.6508,2.6508,2.6508,2.6508,2.6508,2.6508,2.6508,2.6508,2.6508,0.0,0.0,0.0,0.0,0.0,0.0,0.0,2.9338,2.9779,2.9864,3.0216,3.0666,3.1145,3.1195,3.1195,3.1195,3.1195,3.1195,3.1195,3.1195,3.1195,3.1195,3.1005,3.0808,3.0607,3.0203,3.0288,3.0893,3.0893,3.1,3.1195,3.1195,3.1195,3.1195,3.1195,3.1195,3.1195,3.1195,3.1195,3.1195,3.1195,3.1195,3.1195,0.0,0.0,0.0,0.0,0.0,0.0,0.0,0.0,0.0,0.0,0.0,0.0,0.0,0.0,0.0,0.0,0.0,0.0,0.0,0.0,0.0,0.0,0.0,0.0,0.0,0.0,0.0,0.0,0.0,0.0,0.0,0.0,0.0,0.0,2.5557,2.577,2.5423,2.569,2.5757,2.541,2.5703,2.5904,2.5904,2.6264,2.6508,2.6508,2.6508,2.6508,2.6508,2.6508,2.6508,2.6508,2.6508,2.6508,2.6508,2.6508,2.6508,2.6508,2.6508,2.6508,2.6508,2.6508,2.6508,2.6508,2.6508,2.6508,2.6508,2.6508,2.6508,2.6508,2.6508,2.6508,2.6508,0.0,0.0,0.0,0.0,0.0,0.0,3.0108,3.0719,3.119,3.1171,3.1185,3.1195,3.1195,3.1195,3.1195,3.1195,3.1181,3.1181,3.1195,3.1181,3.1181,3.1195,3.0611,3.0043,2.9468,2.9434,2.9723,3.0336,3.0336,3.0633,3.1195,3.1195,3.1195,3.1195,3.1195,3.1195,3.1195,3.1195,3.1195,3.1195,3.1195,3.1195,3.1195,0.0,0.0,0.0,0.0,0.0,0.0,0.0,0.0,0.0,0.0,0.0,0.0,0.0,0.0,0.0,0.0,0.0,0.0,0.0,0.0,0.0,0.0,0.0,0.0,0.0,0.0,0.0,0.0,0.0,0.0,0.0,0.0,0.0,2.5811,2.6126,2.6508,2.6508,2.6512,2.6521,2.6508,2.6512,2.6521,2.6508,2.6508,2.6516,2.6538,2.6538,2.6538,2.6538,2.6538,2.6538,2.6538,2.6516,2.6516,2.6538,2.6516,2.6508,2.6508,2.6508,2.6508,2.6508,2.6508,2.6508,2.6508,2.6508,2.6508,2.6508,2.6508,2.6508,2.6508,2.6508,2.6508,2.6508,0.0,0.0,0.0,0.0,0.0,0.0,3.0313,3.0791,3.104,3.0596,3.0923,3.1195,3.1195,3.1195,3.1195,3.1195,3.0808,3.073,3.1171,3.0797,3.0735,3.1181,3.0611,3.043,3.0699,3.0277,3.0357,3.0943,3.0943,3.104,3.1195,3.1195,3.1195,3.1195,3.1195,3.1195,3.1195,3.1195,3.1195,3.1195,3.1195,3.1195,3.1195,0.0,0.0,0.0,0.0,0.0,0.0,0.0,0.0,0.0,0.0,0.0,0.0,0.0,0.0,0.0,0.0,0.0,0.0,0.0,0.0,0.0,0.0,0.0,0.0,0.0,0.0,0.0,0.0,0.0,0.0,0.0,2.7213,2.6684,2.6307,2.6407,2.6508,2.6508,2.7015,2.7137,2.6555,2.7032,2.7129,2.6538,2.6508,2.6748,2.7334,2.7367,2.7367,2.7367,2.7367,2.7367,2.7367,2.679,2.679,2.7359,2.6782,2.6508,2.6508,2.6508,2.6508,2.6508,2.6508,2.6508,2.6508,2.6508,2.6508,2.6508,2.6508,2.6508,2.6508,2.6508,2.6508,2.6508,0.0,0.0,0.0,0.0,0.0,0.0,3.0725,3.0975,3.107,3.072,3.099,3.1095,3.0853,3.0811,3.072,3.0466,3.0362,3.0335,3.044,3.0345,3.0461,3.0813,3.0487,3.0357,3.0445,3.0102,3.0219,3.0811,3.0811,3.0943,3.1195,3.1195,3.1195,3.1195,3.1195,3.1195,3.1195,3.1195,3.1195,3.1195,3.1195,3.1195,3.1195,3.1195,3.099,3.0679,3.0679,3.0053,2.931,2.9657,0.0,0.0,0.0,0.0,0.0,0.0,0.0,0.0,0.0,0.0,0.0,0.0,0.0,0.0,0.0,0.0,0.0,0.0,0.0,0.0,0.0,0.0,0.0,0.0,2.7023,2.6508,2.6508,2.679,2.7007,2.7007,2.7417,2.7526,2.7057,2.7434,2.7662,2.7546,2.7546,2.7753,2.8222,2.8247,2.8247,2.8247,2.7887,2.7871,2.8247,2.7417,2.7246,2.7687,2.7229,2.6833,2.6508,2.6508,2.6508,2.6508,2.6508,2.6508,2.6508,2.6508,2.6508,2.6508,0.0,0.0,0.0,0.0,2.6637,2.6839,0.0,0.0,0.0,0.0,0.0,0.0,3.1195,3.1195,3.1195,3.1195,3.1141,3.0893,3.0362,3.0293,3.0075,2.9546,3.0,3.0075,2.954,3.007,3.0409,3.0409,3.0409,3.015,2.9612,2.9601,2.9876,3.0409,3.0409,3.0679,3.1195,3.1195,3.1195,3.1195,3.1195,3.1195,3.1195,3.1195,3.1195,3.1195,3.1195,3.1195,3.1195,3.1195,3.1161,3.108,3.102,3.0617,3.0091,3.0011,0.0,0.0,0.0,0.0,0.0,0.0,0.0,0.0,0.0,0.0,0.0,0.0,0.0,0.0,0.0,0.0,0.0,0.0,0.0,0.0,0.0,0.0,0.0,0.0,2.7095,2.6675,2.6773,2.7484,2.792,2.772,2.7863,2.7945,2.7855,2.7937,2.8266,2.8955,2.9002,2.9042,2.9144,2.9152,0.0,0.0,0.0,2.8355,2.9144,2.8274,2.7896,2.7986,2.7887,2.7476,2.6782,2.6782,2.6731,2.6641,2.6641,2.6581,2.6508,2.6508,2.6533,2.6587,2.6512,2.6545,2.6587,2.6587,2.693,2.7386,0.0,0.0,0.0,0.0,0.0,0.0,3.1195,3.1195,3.1195,3.1195,3.0787,3.0435,3.0309,3.0293,3.0251,3.0139,3.023,3.0251,3.0134,3.0689,3.1025,3.1025,3.1025,3.0975,3.0853,3.0853,3.0903,3.1025,3.1025,3.1097,3.1195,3.1195,3.1195,3.1195,3.1195,3.1195,3.1195,3.1195,3.1195,3.1195,3.1195,3.1195,3.1195,3.1195,3.0893,3.0414,2.9919,2.9356,2.8773,2.8295,2.7975,2.7773,2.7773,2.807,0.0,0.0,0.0,0.0,0.0,0.0,0.0,0.0,0.0,0.0,0.0,0.0,0.0,0.0,0.0,0.0,0.0,0.0,0.0,2.7736,2.7562,2.7711,2.8419,2.9262,2.9278,2.7863,2.8939,2.952,2.882,2.938,2.9574,2.9042,2.9002,2.9309,3.0011,3.0049,3.0049,3.0049,2.9896,2.9881,3.0049,2.9184,2.9105,2.9797,2.9081,0.0,2.8516,2.8516,2.8133,2.7476,2.7476,2.7095,2.6508,2.6508,2.6742,2.7106,2.6663,2.6754,2.7157,2.7157,2.7478,2.7946,0.0,0.0,0.0,0.0,0.0,0.0,3.1195,3.1195,3.1195,3.1195,3.0674,3.0187,2.9881,2.9848,2.9723,2.9429,2.9679,3.0113,3.0704,3.0745,3.0878,3.1185,3.1195,3.1195,3.1195,3.1195,3.1195,3.1195,3.1195,3.1195,3.1195,3.1195,3.1195,3.1195,3.1195,3.1195,3.1195,3.1195,3.1195,3.1195,3.1195,3.1195,3.1195,3.1195,3.1015,3.0704,3.0414,2.9908,2.9356,2.905,2.8766,2.8551,2.8551,2.8796,2.9032,0.0,0.0,0.0,0.0,0.0,0.0,0.0,0.0,0.0,0.0,0.0,0.0,0.0,0.0,3.0896,3.0896,0.0,2.9002,2.9002,2.8266,2.8002,2.8883,2.9372,2.9489,2.905,2.9773,3.0125,2.9682,3.0034,3.0291,3.0253,3.0253,3.0434,3.0874,3.0896,3.0896,3.0896,3.0517,3.0494,3.0896,3.0065,2.9873,3.0291,2.9866,2.9419,2.9002,2.9002,2.8764,2.8347,2.8347,2.831,2.8235,2.8062,2.7875,2.767,2.7412,2.7465,2.7704,2.7704,2.8047,2.8493,0.0,0.0,0.0,0.0,0.0,0.0,0.0,3.1195,3.1195,3.1195,3.0674,3.0118,2.9629,2.9574,2.9429,2.9064,2.9468,3.0161,3.1141,3.0735,3.0694,3.1181,3.1195,3.1195,3.1195,3.1195,3.1195,3.1195,3.1195,3.1195,3.1195,3.1195,3.1195,3.1195,3.1195,3.1195,3.1195,3.1195,3.1195,3.1212,3.1364,3.1415,3.1432,3.1567,3.1449,3.1202,3.1233,3.0838,3.0326,3.0353,2.9981,2.9541,2.9664,2.9735,2.977,2.979,2.979,0.0,0.0,0.0,0.0,0.0,0.0,0.0,0.0,3.1503,3.1503,3.1503,3.138,3.1299,3.1467,3.0696,3.0095,3.0269,2.9121,2.8443,2.9152,2.9387,2.9758,3.0442,3.0532,3.0532,3.0532,3.0532,3.08,3.1445,3.1503,3.1563,3.169,3.1683,3.1683,3.1683,3.1072,3.0983,3.1496,3.0859,3.0532,3.0532,3.0532,3.0235,2.9679,2.9679,2.9657,2.9603,2.9459,2.9696,3.0165,2.9895,2.9416,2.8814,2.8814,2.8773,2.8674,2.8362,2.8593,2.907,0.0,0.0,0.0,0.0,0.0,0.0,0.0,0.0,3.1195,3.1195,3.0674,3.0266,3.0208,3.0198,3.0393,3.0858,3.0965,3.1055,3.119,3.1141,3.1136,3.1195,3.1195,3.1195,3.1195,3.1195,3.1195,3.1195,3.1195,3.1195,3.1195,3.1195,3.1195,3.1195,3.1195,3.1195,3.1195,3.1195,3.1195,3.1268,3.1916,3.2175,3.2254,3.2899,3.2341,3.1221,3.1321,3.0958,3.0407,3.053,3.0127,2.9693,3.0289,3.0446,3.0406,3.0472,3.0449,3.0402,3.0402,3.0837,3.1301,3.1376,3.1444,3.1503,0.0,3.1503,3.1503,3.1503,3.0925,3.0644,3.1372,3.0216,2.9403,3.0178,3.0133,3.0034,3.0133,3.0777,3.1256,3.1351,3.1372,3.1372,3.1372,3.1372,3.1401,3.1496,3.1503,3.1765,3.2362,3.2392,3.2392,3.2392,3.2296,3.2005,3.1503,3.1409,3.1372,3.1372,3.1372,3.1634,3.2109,3.2109,3.201,3.1797,3.1093,3.0829,3.0885,3.0846,3.1047,3.1391,3.1391,3.1177,3.0689,2.9329,2.9192,2.9691,0.0,0.0,0.0,0.0,0.0,0.0,0.0,0.0,3.1195,3.1195,3.0674,3.0293,3.0293,3.0293,3.0539,3.1151,3.1195,3.1195,3.1195,3.1195,3.1195,3.1195,3.1195,3.1195,3.1195,3.1195,3.1195,3.1195,3.1195,3.1195,3.1195,3.1195,3.1195,3.1212,3.1645,3.1848,3.1865,3.2295,3.2471,3.251,3.2819,3.2938,3.2966,3.3283,3.3017,3.2496,3.2547,3.2384,0.0,3.2211,3.2064,3.185,3.1747,3.1704,3.1637,3.1232,3.1098,3.1084,3.1084,3.1286,3.1503,3.1503,3.1503,3.1503,3.1503,3.1503,3.1503,3.1503,3.1227,3.1095,3.1438,3.0925,3.0569,3.0947,3.0606,3.045,3.0925,3.1189,3.1507,3.2019,3.2422,3.2512,3.2116,3.2086,3.2235,3.2632,3.2662,3.2789,3.3066,3.3073,3.3073,3.3073,3.3073,3.2953,3.2669,3.2662,3.2662,3.2662,3.2662,3.2819,3.3073,3.3073,3.3032,3.2959,3.301,3.2727,3.2253,3.2601,3.2553,3.2264,3.2264,3.216,3.187,3.0676,3.0056,2.9801,0.0,0.0,0.0,0.0,0.0,0.0,0.0,0.0,0.0,0.0,3.0823,3.0544,3.0544,3.0544,3.0808,3.1453,3.15,3.15,3.15,3.15,3.1415,3.1217,3.1195,3.1302,3.1505,3.15,3.1601,3.1799,3.1799,3.1799,3.1799,3.1799,3.1799,3.1838,3.2368,3.261,3.2638,3.3164,3.3401,3.3418,3.3621,3.3705,3.3728,3.392,3.4004,3.3971,3.3773,3.3582,3.3458,3.366,3.3642,3.3449,3.2959,3.2712,3.2506,3.1958,3.1668,3.1503,3.1503,3.1503,3.1503,3.1503,3.1503,3.1503,3.1503,3.1503,3.1503,3.1503,3.1503,3.1503,3.1503,3.1503,3.1503,3.1503,3.1014,3.0895,3.1677,3.1655,3.1856,3.2676,3.32,3.338,3.308,3.2878,3.2976,3.3455,3.3507,3.3582,3.3769,3.3784,3.3784,3.3784,3.3784,3.3687,3.3507,3.3507,3.3507,3.3507,3.3507,3.3597,3.3776,3.3971,3.4053,3.4083,3.4555,3.4389,3.38,3.4222,3.4001,3.3394,3.3394,3.3237,3.2908,3.2222,3.1374,3.0533,0.0,0.0,0.0,0.0,0.0,0.0,0.0,0.0,0.0,0.0,0.0,0.0,3.1171,3.1171,3.1468,3.2204,3.2276,3.2276,3.2276,3.2276,3.195,3.1229,3.1195,3.1522,3.2242,3.2276,3.2627,3.3333,3.3333,3.3333,3.3333,3.3333,3.3333,3.3333,3.3367,3.3367,3.3367,3.3384,3.3401,3.3452,3.4173,3.4466,3.4545,3.525,3.5532,3.5436,3.4726,3.4047,3.361,3.4315,3.4137,3.3588,3.3569,3.313,3.2602,3.2566,3.2057,3.1503,3.1503,3.1503,3.1503,3.1503,3.1503,3.1503,3.1503,3.1503,3.1503,3.1503,3.1503,3.1503,3.1503,3.1503,3.1503,3.1503,3.1474,3.1698,3.237,3.246,3.2714,3.3395,3.3492,3.3747,3.4376,3.3851,3.3477,3.3507,3.3507,3.3776,3.4436,3.4466,3.4466,3.4466,3.4466,3.4158,3.3507,3.3507,3.3507,3.3507,3.3507,3.3844,3.4496,3.513,3.5436,3.5436,3.5466,3.545,3.5426,3.5441,3.5447,3.5408,3.5408,3.4822,3.3959,3.3927,3.3319,3.2384,0.0,0.0,0.0,0.0,0.0,0.0,0.0,0.0,0.0,0.0,0.0,0.0,0.0,0.0,0.0,0.0,3.3039,3.3039,3.3039,3.3039,3.2921,3.2674,3.2662,3.278,3.3017,3.3039,3.3152,3.3401,3.3401,3.3401,3.3401,3.3401,3.3401,3.3418,3.3914,3.4134,3.4167,3.4647,3.4861,3.4878,3.5137,3.5222,3.5256,3.5504,3.56,3.5571,0.0,3.5077,3.4935,3.5186,3.5115,3.4764,3.3874,3.345,3.3086,3.2146,3.1689,3.1503,3.1503,3.1503,3.1503,3.1503,3.1503,3.1503,3.1503,3.1503,3.1503,3.1503,3.1503,3.1503,3.1503,3.1503,3.1503,3.1503,3.1869,3.2243,3.2467,3.326,3.3919,3.4143,3.4555,3.4921,3.513,3.4563,3.4345,3.4801,3.4831,3.4936,3.5145,3.516,3.516,3.516,3.516,3.5063,3.4831,3.4831,3.4831,3.4831,3.4831,3.4951,3.5168,3.54,3.5496,3.5496,3.5496,3.5496,3.5496,3.5496,3.5496,3.5496,3.5496,3.5287,3.4994,3.4994,3.4797,3.4291,0.0,0.0,0.0,0.0,0.0,0.0,0.0,0.0,0.0,0.0,0.0,0.0,0.0,0.0,0.0,0.0,0.0,3.3795,3.3795,3.3795,3.3677,3.3413,3.3401,3.3519,3.3795,3.3795,3.3925,3.419,3.419,3.419,3.419,3.419,3.419,3.4207,3.4669,3.4895,3.4923,3.5408,3.56,3.56,3.56,3.56,3.56,3.56,3.56,0.0,3.56,3.56,3.56,3.56,3.543,3.5052,3.3943,3.3245,3.2671,3.1775,3.1503,3.1503,3.1503,3.1503,3.1503,3.1503,3.1503,3.1503,3.1503,3.1503,3.1503,3.1503,3.1503,3.1503,3.1503,3.1503,3.1503,3.1503,3.2056,3.2587,3.2819,3.3814,3.4585,3.4832,3.5243,3.5496,3.5496,3.5108,3.5034,3.5474,3.5496,3.5496,3.5496,3.5496,3.5496,3.5496,3.5496,3.5496,3.5496,3.5496,3.5496,3.5496,3.5496,3.5496,3.5496,3.5496,3.5496,3.5496,3.5496,3.5496,3.5496,3.5496,3.5496,3.5496,3.5496,3.5496,3.5496,3.5496,3.5496,3.5221,0.0,0.0,0.0,0.0,0.0,0.0,0.0,0.0,0.0,0.0,0.0,0.0,0.0,0.0,0.0,0.0,0.0,0.0,3.4562,3.4562,3.4235,3.3536,3.3514,3.3841,3.4545,3.4562,3.4895,3.56,3.56,3.56,3.56,3.56,3.56,3.56,3.56,3.56,3.56,3.56,3.56,3.56,3.56,3.56,3.56,3.56,3.56,3.56,3.56,3.56,3.56,3.56,3.5121,3.4431,3.3761,3.2603,3.1503,3.1503,3.1503,3.1503,3.1503,3.1503,3.1503,3.1503,3.1503,3.1503,3.1503,3.1503,3.1503,3.1503,3.1503,3.1503,3.1503,3.1503,3.1503,3.1503,3.2086,3.2774,3.341,3.4113,3.4787,3.5421,3.5496,3.5496,3.5496,3.5496,3.5496,3.5496,3.5496,3.5496,3.5496,3.5496,3.5496,3.5496,3.5496,3.5496,3.5496,3.5496,3.5496,3.5496,3.5496,3.5496,3.5496,3.5496,3.5496,3.5496,3.5496,3.5496,3.5496,3.5496,3.5496,3.5496,3.5496,3.5496,3.5496,3.5496,3.5496,3.523,0.0,0.0,0.0,0.0,0.0,0.0,0.0,0.0,0.0,0.0,0.0,0.0,0.0,0.0,0.0,0.0,0.0,0.0,3.5323,3.5323,3.5233,3.5047,3.5047,3.5132,3.5323,3.5323,3.5402,3.56,3.56,3.56,3.56,3.56,3.56,3.56,3.56,3.56,3.56,3.56,3.56,3.56,3.56,3.56,3.56,3.56,3.56,3.56,3.56,3.56,3.56,3.56,3.4817,3.3741,3.3066,3.2237,3.1503,3.1503,3.1503,3.1503,3.1503,3.1503,3.1503,3.1503,3.1503,3.1503,3.1503,3.1503,3.1503,3.1503,3.1503,3.1503,3.1503,3.1503,3.1503,3.1503,3.2482,3.3305,3.3477,3.4502,3.531,3.5481,3.5496,3.5496,3.5496,3.5496,3.5496,3.5496,3.5496,3.5496,3.5496,3.5496,3.5496,3.5496,3.5496,3.5496,3.5496,3.5496,3.5496,3.5496,3.5496,3.5496,3.5496,3.5496,3.5496,3.5496,3.5496,3.5496,3.5496,3.5496,3.5496,3.5496,3.5496,3.5496,3.5496,3.5496,3.5496,3.5326,0.0,0.0,0.0,0.0,0.0,0.0,0.0,0.0,0.0,0.0,0.0,0.0,0.0,0.0,0.0,0.0,0.0,0.0,0.0,3.56,3.56,3.56,3.56,3.56,3.56,3.56,3.56,3.56,3.56,3.56,3.56,3.56,3.56,3.56,3.56,3.56,3.56,3.56,3.56,0.0,0.0,3.56,3.56,3.56,3.56,3.56,3.56,3.5407,3.511,3.4817,3.4227,3.3437,3.2436,3.1832,3.1503,3.1503,3.1503,3.1503,3.1503,3.1503,3.1503,3.1503,3.1503,3.1503,3.1503,3.1503,3.1503,3.1503,3.1503,3.1503,3.1503,3.1503,3.1503,3.1503,3.2639,3.3507,3.3507,3.4651,3.5496,3.5496,3.5496,3.5496,3.5496,3.5496,3.5496,3.5496,3.5496,3.5496,3.5496,3.5496,3.5496,3.5496,3.5496,3.5496,3.5496,3.5496,3.5496,3.5496,3.5496,3.5496,3.5496,3.5496,3.5496,3.5496,3.5496,3.5496,3.5496,3.5496,3.5496,3.5496,3.5496,3.5496,3.5496,3.5496,3.5684,3.5857,0.0,0.0,0.0,0.0,0.0,0.0,0.0,0.0,0.0,0.0,0.0,0.0,0.0,0.0,0.0,0.0,0.0,0.0,0.0,0.0,3.56,3.56,3.56,3.56,3.56,3.56,3.56,3.56,3.56,3.56,3.56,3.56,3.56,3.56,3.56,3.56,3.56,3.56,3.56,3.56,3.56,3.56,3.56,0.0,3.56,3.56,3.56,3.523,3.4622,3.3855,3.3531,3.3241,3.1923,3.1503,3.1503,3.1503,3.1503,3.1503,3.1503,3.1503,3.1503,3.1503,3.1503,3.1503,3.1503,3.1503,3.1503,3.1503,3.1503,3.1503,3.1503,3.1503,3.1503,3.1503,3.2542,3.3395,3.3492,3.4577,3.54,3.5481,3.5496,3.5496,3.5496,3.5496,3.5496,3.5496,3.5496,3.5496,3.5496,3.5496,3.5496,3.5496,3.5496,3.5496,3.5496,3.5496,3.5496,3.5496,3.5496,3.5496,3.5496,3.5496,3.5496,3.5496,3.5496,3.5496,3.5496,3.5496,3.5496,3.5511,3.5609,3.5631,3.5639,3.5721,3.6118,3.662,0.0,0.0,0.0,0.0,0.0,0.0,0.0,0.0,0.0,0.0,3.5402,3.5453,0.0,0.0,0.0,0.0,0.0,0.0,0.0,0.0,0.0,3.56,3.56,3.56,3.56,3.56,3.56,3.56,3.56,3.56,3.56,3.56,3.56,3.56,3.56,3.56,3.56,3.56,3.56,3.56,3.56,3.56,3.56,3.56,0.0,0.0,3.56,3.5526,3.5247,3.4006,3.3228,3.2627,3.1768,3.1503,3.1503,3.1503,3.1503,3.1503,3.1503,3.1503,3.1503,3.1503,3.1503,3.1503,3.1503,3.1503,3.1503,3.1503,3.1503,3.1503,3.1503,3.1503,3.1503,3.1503,3.2161,3.2863,3.3425,3.4173,3.4877,3.5421,3.5496,3.5496,3.5496,3.5496,3.5496,3.5496,3.5496,3.5496,3.5496,3.5496,3.5496,3.5496,3.5496,3.5496,3.5496,3.5496,3.5496,3.5496,3.5496,3.5496,3.5496,3.5496,3.5496,3.5496,3.5496,3.5496,3.5496,3.5496,3.5496,3.5564,3.6111,3.6321,3.638,3.6896,3.7142,3.7231,0.0,0.0,0.0,0.0,0.0,0.0,0.0,0.0,3.56,3.56,3.56,3.56,3.56,3.56,0.0,0.0,0.0,0.0,0.0,0.0,0.0,3.56,3.56,3.56,3.56,3.56,3.56,3.56,0.0,3.56,3.56,3.56,3.56,3.56,3.56,3.56,3.56,3.56,3.56,3.56,3.56,3.56,3.56,3.56,0.0,0.0,3.56,3.5379,3.4924,3.3931,3.3159,3.2472,3.1725,3.1503,3.1503,3.1503,3.1503,3.1503,3.1503,3.1503,3.1503,3.1503,3.1503,3.1503,3.1503,3.1503,3.1503,3.1503,3.1503,3.1503,3.1503,3.1503,3.1503,3.1503,3.2056,3.2721,3.3417,3.4084,3.4742,3.5421,3.5496,3.5496,3.5496,3.5496,3.5496,3.5496,3.5496,3.5496,3.5496,3.5496,3.5496,3.5496,3.5496,3.5496,3.5496,3.5496,3.5496,3.5496,3.5496,3.5676,3.6013,3.6013,3.6193,3.6483,3.6483,3.6483,3.6483,3.6483,3.6483,3.6513,3.6851,3.6971,3.7,3.7291,3.762,3.7913,0.0,0.0,0.0,0.0,0.0,0.0,0.0,3.56,3.56,3.56,3.56,3.56,3.56,3.56,3.56,0.0,0.0,0.0,0.0,0.0,0.0,0.0,0.0,0.0,3.56,0.0,0.0,3.56,3.56,0.0,0.0,0.0,0.0,0.0,3.56,3.56,3.56,3.56,3.56,0.0,0.0,3.56,3.56,0.0,0.0,0.0,0.0,3.5259,3.4712,3.4043,3.3372,3.2686,3.1958,3.1625,3.1503,3.1503,3.1503,3.1503,3.1503,3.1503,3.1503,3.1503,3.1503,3.1503,3.1503,3.1503,3.1503,3.1503,3.1503,3.1503,3.1503,3.1503,3.1503,3.1503,3.2056,3.2721,3.3417,3.4084,3.4742,3.5421,3.5496,3.5496,3.5496,3.5496,3.5496,3.5496,3.5496,3.5496,3.5496,3.5496,3.5496,3.5496,3.5496,3.5496,3.5496,3.5496,3.5571,3.5714,3.5714,3.6058,3.6695,3.6695,3.6941,3.7396,3.7396,3.7396,3.7396,3.7396,3.7396,3.7411,3.756,3.7605,3.7635,3.7785,3.8159,3.8601,0.0,0.0,0.0,0.0,0.0,0.0,0.0,3.56,3.56,3.56,3.56,3.56,3.56,3.56,3.56,0.0,0.0,0.0,0.0,0.0,0.0,0.0,0.0,0.0,0.0,0.0,0.0,3.56,3.56,0.0,0.0,0.0,0.0,0.0,0.0,3.56,3.56,3.56,0.0,0.0,0.0,0.0,0.0,0.0,0.0,0.0,0.0,3.5566,3.5402,3.473,3.4062,3.3391,3.2707,3.2042,3.1503,3.1503,3.1503,3.1503,3.1503,3.1503,3.1503,3.1503,3.1503,3.1503,3.1503,3.1503,3.1503,3.1503,3.1503,3.1503,3.1503,3.1503,3.1503,3.1503,3.2056,3.2721,3.3417,3.4084,3.4742,3.5421,3.5496,3.5496,3.5496,3.5496,3.5496,3.5496,3.5496,3.5496,3.5496,3.5496,3.5496,3.5496,3.5496,3.5496,3.5496,3.5496,3.5804,3.641,3.641,3.674,3.7321,3.7321,3.7351,3.7396,3.7396,3.7396,3.7396,3.7396,3.7396,3.7456,3.8063,3.8311,3.8386,3.8996,3.9266,3.9316,0.0,0.0,0.0,0.0,0.0,0.0,3.56,3.56,3.56,3.56,3.56,3.56,3.56,3.56,3.56,0.0,0.0,0.0,0.0,0.0,0.0,0.0,0.0,0.0,0.0,0.0,3.56,3.56,3.56,0.0,0.0,0.0,0.0,0.0,0.0,3.56,3.56,3.56,0.0,0.0,0.0,0.0,0.0,0.0,0.0,0.0,0.0,0.0,3.5498,3.4835,3.4155,3.3489,3.2808,3.2403,3.2071,3.1632,3.1503,3.1503,3.1503,3.1503,3.1503,3.1503,3.1503,3.1503,3.1503,3.1503,3.1503,3.1503,3.1503,3.1503,3.1503,3.1503,3.1623,3.2041,3.2333,3.2878,3.3949,3.4323,3.4742,3.5421,3.5496,3.5496,3.5496,3.5496,3.5496,3.5496,3.5496,3.5496,3.5496,3.5496,3.5496,3.5496,3.5496,3.5496,3.5496,3.5893,3.6246,3.6508,3.6866,3.7375,3.8003,3.8003,3.8219,3.8599,3.8599,3.8599,3.8599,3.8599,3.8599,3.8637,3.8907,3.8996,3.9026,3.9302,3.9406,3.9406,0.0,0.0,0.0,0.0,0.0,3.56,3.56,3.56,3.56,3.56,3.56,3.56,3.56,3.56,3.56,3.56,0.0,0.0,0.0,0.0,0.0,0.0,0.0,0.0,0.0,0.0,3.56,3.56,3.56,3.56,0.0,0.0,3.56,3.56,0.0,0.0,0.0,0.0,0.0,0.0,0.0,0.0,0.0,0.0,0.0,0.0,0.0,0.0,0.0,0.0,0.0,3.3527,3.3039,3.2614,3.2167,3.1654,3.1654,3.1775,3.1553,3.1503,3.1503,3.1503,3.1503,3.1503,3.1503,3.1503,3.1503,3.1503,3.1503,3.1503,3.1503,3.166,3.1951,3.2422,3.2834,3.3425,3.4376,3.4675,3.4974,3.5436,3.5496,3.5496,3.5496,3.5496,3.5496,3.5496,3.5496,3.5496,3.5496,3.5496,3.5496,3.5496,3.5496,3.5609,3.578,3.6261,3.6688,3.7069,3.7494,3.8048,3.8691,3.8691,3.8952,3.9406,3.9406,3.9406,3.9406,3.9406,3.9406,3.9406,3.9406,3.9406,3.9406,3.9406,3.9406,3.9406,0.0,0.0,0.0,0.0,0.0,0.0,0.0,3.56,3.56,3.56,3.56,3.56,3.56,3.56,3.56,3.56,0.0,0.0,0.0,0.0,0.0,0.0,0.0,0.0,0.0,0.0,3.56,3.56,3.56,3.56,3.56,3.56,3.56,3.56,0.0,0.0,0.0,0.0,0.0,0.0,0.0,0.0,0.0,0.0,0.0,0.0,0.0,0.0,0.0,0.0,0.0,0.0,0.0,3.263,3.1518,3.1503,3.2014,3.2437,3.1704,3.1503,3.1503,3.1503,3.1503,3.1503,3.1503,3.1503,3.1503,3.1503,3.1503,3.1503,3.1503,3.2041,3.2482,3.2497,3.3612,3.4481,3.4496,3.5063,3.5481,3.5496,3.5496,3.5496,3.5496,3.5496,3.5496,3.5496,3.5496,3.5496,3.5496,3.5496,3.5496,3.5496,3.5496,3.5818,3.6485,3.6508,3.7129,3.8371,3.8386,3.8736,3.9391,3.9391,3.9391,3.9406,3.9406,3.9406,3.9406,3.9406,3.9406,3.9406,3.9406,3.9406,3.9406,3.9406,3.9406,3.9406,0.0,0.0,0.0,0.0,0.0,0.0,0.0,3.56,3.56,3.56,3.56,3.56,3.56,3.56,3.56,3.56,0.0,0.0,0.0,0.0,0.0,0.0,0.0,0.0,0.0,0.0,3.56,3.56,3.56,3.56,3.56,3.56,3.56,3.56,3.56,3.56,0.0,0.0,0.0,0.0,0.0,0.0,3.56,0.0,0.0,0.0,0.0,0.0,0.0,0.0,0.0,0.0,0.0,0.0,0.0,3.1654,3.2021,3.2444,3.1704,3.1874,3.2134,3.1625,3.1503,3.1503,3.1503,3.1503,3.1503,3.1503,3.1503,3.1645,3.2101,3.2362,3.2804,3.3724,3.4218,3.466,3.5123,3.537,3.5496,3.5496,3.5496,3.5496,3.5496,3.5496,3.5496,3.5496,3.5496,3.5496,3.5496,3.5923,3.5968,3.5511,3.5938,3.6291,3.6508,3.7353,3.7997,3.8409,3.8862,3.9197,3.9406,3.9406,3.9406,3.9406,3.9406,3.9406,3.9406,3.9406,3.9406,3.9406,3.9406,3.9406,3.9406,3.9406,3.9406,3.9406,0.0,0.0,0.0,0.0,0.0,0.0,0.0,3.56,3.56,3.56,3.56,3.56,3.56,3.56,3.56,3.56,0.0,0.0,0.0,0.0,0.0,0.0,0.0,0.0,0.0,3.56,3.56,3.56,3.56,3.56,3.56,3.56,3.56,3.56,3.56,3.56,0.0,0.0,0.0,0.0,0.0,0.0,3.5577,0.0,0.0,0.0,0.0,0.0,0.0,0.0,0.0,0.0,0.0,0.0,0.0,0.0,3.2237,3.2444,3.1704,3.1839,3.2071,3.1618,3.1503,3.1503,3.1503,3.1503,3.1503,3.1503,3.1705,3.1996,3.2422,3.2908,3.3537,3.4361,3.4712,3.5019,3.5436,3.5496,3.5496,3.5496,3.5496,3.5496,3.5496,3.5496,3.5496,3.5496,3.5496,3.5601,3.5863,3.6276,3.641,3.6214,3.6626,3.6964,3.7203,3.7997,3.8535,3.8781,3.9206,3.9406,3.9406,3.9406,3.9406,3.9406,3.9406,3.9406,0.0,3.9406,3.9406,3.9406,3.9406,3.9406,3.9406,3.9406,3.9406,3.9406,0.0,0.0,0.0,0.0,0.0,0.0,0.0,0.0,3.56,3.56,3.56,3.56,3.56,3.56,3.56,3.56,0.0,0.0,0.0,0.0,0.0,0.0,0.0,0.0,0.0,3.56,3.56,3.56,3.56,3.56,3.56,3.56,3.56,3.56,3.56,3.56,0.0,0.0,0.0,0.0,0.0,0.0,0.0,0.0,0.0,0.0,0.0,0.0,0.0,0.0,0.0,0.0,0.0,0.0,0.0,0.0,0.0,0.0,0.0,3.1547,3.156,3.1503,3.1503,3.1503,3.1503,3.1503,0.0,3.1563,3.2071,3.2527,3.2617,3.3657,3.4511,3.4563,3.5093,3.5496,3.5496,3.5496,3.5496,3.5496,3.5496,3.5496,3.5496,3.5496,3.5496,3.5496,3.5541,3.5833,3.6464,3.6583,3.6889,3.7456,3.7516,3.7823,3.8386,3.8446,3.8772,3.9406,3.9406,3.9406,3.9406,3.9406,3.9406,3.9406,3.9406,3.9406,3.9406,3.9406,3.9406,3.9406,3.9406,3.9406,3.9406,3.9406,3.9406,3.9406,0.0,0.0,0.0,0.0,0.0,0.0,0.0,0.0,0.0,0.0,3.56,3.56,3.56,3.56,3.56,0.0,0.0,0.0,0.0,0.0,0.0,0.0,0.0,0.0,0.0,3.56,3.56,3.56,3.56,3.56,3.56,3.56,3.56,3.56,3.56,3.56,0.0,0.0,0.0,0.0,0.0,0.0,0.0,0.0,0.0,0.0,3.4081,3.3836,0.0,0.0,0.0,0.0,0.0,0.0,0.0,0.0,3.1753,3.171,3.1554,0.0,3.2217,3.164,3.1503,3.1503,0.0,3.1503,3.1645,3.2161,3.2392,3.2819,3.3844,3.4286,3.4675,3.5183,3.54,3.5496,3.5496,3.5496,3.5496,3.5496,3.5496,3.5496,3.5496,3.5496,3.5496,3.5496,3.5976,3.6335,3.6493,3.7413,3.8012,3.8161,3.8667,3.8757,3.8401,3.8907,3.9242,3.9406,3.9406,3.9406,3.9406,3.9406,3.9406,3.9406,3.9406,3.9406,3.9406,3.9406,3.9406,3.9406,3.9406,3.9406,3.9406,3.9406,3.9406,3.9406,0.0,0.0,0.0,0.0,0.0,0.0,0.0,0.0,0.0,0.0,0.0,0.0,0.0,0.0,0.0,0.0,0.0,0.0,0.0,0.0,0.0,0.0,0.0,3.56,3.56,3.56,3.56,3.56,3.56,3.56,3.56,3.56,3.56,3.56,3.56,3.5436,0.0,0.0,0.0,0.0,3.5133,0.0,0.0,0.0,0.0,0.0,3.3385,3.3145,0.0,3.2722,3.2113,3.1503,0.0,0.0,0.0,0.0,3.1503,3.1503,3.1503,3.1789,3.1993,3.1604,3.1503,3.1503,3.1503,3.1735,3.2056,3.2422,3.2983,3.3642,3.4376,3.4757,3.5078,3.5436,3.5496,3.5496,3.5496,3.5496,3.5496,3.5496,3.5496,3.5496,3.5496,3.5496,3.5496,3.5496,3.6118,3.662,3.6904,3.7862,3.8542,3.8856,3.9212,3.9236,3.8862,3.9212,3.9406,3.9406,3.9406,3.9406,3.9406,3.9406,3.9406,3.9406,3.9406,3.9406,3.9406,3.9406,3.9406,3.9406,3.9406,3.9406,3.9406,3.9406,3.9406,3.9406,0.0,0.0,0.0,0.0,0.0,0.0,0.0,0.0,0.0,0.0,0.0,0.0,0.0,0.0,0.0,0.0,0.0,0.0,0.0,0.0,0.0,0.0,0.0,3.56,3.56,3.56,3.56,3.56,3.56,3.56,3.56,3.56,3.56,3.56,3.56,3.5276,0.0,0.0,0.0,0.0,3.4485,0.0,0.0,0.0,0.0,0.0,0.0,0.0,0.0,3.2472,3.2014,3.1503,3.1503,0.0,0.0,0.0,0.0,0.0,3.1503,3.1503,3.1503,3.1503,3.1503,3.1525,3.163,3.2086,3.2557,3.2759,3.3717,3.4526,3.4622,3.5123,3.5496,3.5496,3.5496,3.5496,3.5496,3.5496,3.5496,3.5496,3.5496,3.5496,3.5496,3.5496,3.5541,3.5646,3.6252,3.6919,3.7524,3.8182,3.8811,3.9376,3.9406,3.9406,3.9406,3.9406,3.9406,3.9406,3.9406,3.9406,3.9406,3.9406,3.9406,3.9406,3.9406,3.9406,3.9406,3.9406,3.9406,3.9406,3.9406,3.9406,3.9406,3.9406,3.9406,3.9406,0.0,0.0,0.0,0.0,0.0,0.0,0.0,0.0,0.0,0.0,0.0,0.0,0.0,0.0,0.0,0.0,0.0,0.0,0.0,0.0,0.0,0.0,3.56,3.56,3.56,3.56,3.56,3.56,3.56,3.56,3.56,3.56,3.56,3.56,3.56,3.5538,3.5424,0.0,0.0,0.0,3.3981,0.0,0.0,0.0,0.0,0.0,0.0,0.0,0.0,3.1888,3.1589,3.1503,3.1503,0.0,0.0,0.0,0.0,0.0,3.1503,3.1503,3.1503,3.1503,3.1503,3.1645,3.2228,3.2422,3.2819,3.3964,3.4361,3.4667,3.5235,3.5421,3.5496,3.5496,3.5496,3.5496,3.5496,3.5496,3.5496,3.5496,3.5496,3.5496,3.5496,3.5496,3.5744,3.6306,3.6919,3.7554,3.8206,3.8877,3.9287,3.9406,3.9406,3.9406,3.9406,3.9406,3.9406,3.9406,3.9406,3.9406,3.9406,3.9406,3.9406,3.9406,3.9406,3.9406,3.9406,3.9406,3.9406,3.9406,3.9406,3.9406,3.9406,3.9406,3.9406,3.9406,0.0,0.0,0.0,0.0,0.0,0.0,0.0,0.0,0.0,0.0,0.0,0.0,0.0,0.0,0.0,0.0,0.0,0.0,0.0,0.0,0.0,3.56,3.56,3.56,3.56,3.56,3.56,3.56,3.56,3.56,3.56,3.56,3.56,3.56,3.56,3.5396,3.5046,3.473,0.0,0.0,0.0,0.0,0.0,0.0,0.0,0.0,0.0,0.0,0.0,0.0,3.1503,3.1503,3.1503,0.0,0.0,0.0,0.0,0.0,3.1503,3.1503,3.1585,3.1951,3.2041,3.2116,3.2422,3.3058,3.3754,3.4368,3.4787,3.513,3.5436,3.5496,3.5496,3.5496,3.5496,3.5496,3.5496,3.5496,3.5496,3.5496,3.5496,3.5496,3.5496,3.5833,3.6171,3.6479,3.7389,3.8063,3.8386,3.9041,3.9406,3.9406,3.9406,3.9406,3.9406,3.9406,3.9406,3.9406,3.9406,3.9406,3.9406,3.9406,3.9406,3.9406,3.9406,3.9406,3.9406,3.9406,3.9406,3.9406,3.9406,3.9406,3.9406,3.9406,3.9406,3.9406,0.0,0.0,0.0,0.0,0.0,0.0,0.0,0.0,0.0,0.0,0.0,0.0,0.0,0.0,0.0,0.0,0.0,0.0,0.0,0.0,3.56,3.56,3.56,3.56,3.56,3.56,3.56,3.56,3.56,3.56,3.56,3.56,3.56,3.56,3.56,3.523,3.4582,3.4431,3.4068,0.0,0.0,0.0,0.0,0.0,0.0,0.0,0.0,0.0,0.0,0.0,0.0,0.0,0.0,0.0,0.0,3.1503,3.1503,3.1503,3.1503,3.1615,3.1854,3.237,3.2497,3.2587,3.2893,3.3761,3.454,3.4697,3.513,3.5496,3.5496,3.5496,3.5496,3.5496,3.5496,3.5496,3.5496,3.5496,3.5496,3.5496,3.5496,3.5496,3.5496,3.6111,3.6568,3.6695,3.7757,3.8476,3.8625,3.9116,3.9406,3.9406,3.9406,3.9406,3.9406,3.9406,3.9406,3.9406,3.9406,3.9406,3.9406,3.9406,3.9406,3.9406,3.9406,3.9406,3.9406,3.9406,3.9406,3.9406,3.9406,3.9406,3.9406,3.9406,3.9406,3.9406,0.0,0.0,0.0,0.0,0.0,0.0,0.0,0.0,0.0,0.0,0.0,0.0,0.0,0.0,0.0,0.0,0.0,0.0,0.0,0.0,3.56,3.56,3.56,3.56,3.56,3.56,3.56,3.56,3.56,3.56,3.56,3.56,3.56,3.56,3.56,3.523,3.4558,3.3937,3.364,3.3531,3.2868,0.0,0.0,0.0,0.0,0.0,0.0,0.0,0.0,0.0,0.0,0.0,0.0,0.0,3.1503,3.1503,3.1503,3.1503,3.1503,3.1951,3.2437,3.2482,3.2497,3.2834,3.4069,3.4436,3.4682,3.5295,3.5474,3.5496,3.5496,3.5496,3.5496,3.5496,3.5496,3.5496,3.5496,3.5496,3.5496,3.5496,3.5496,3.5496,3.5496,3.6111,3.674,3.7291,3.8003,3.8661,3.9287,3.9376,3.9406,3.9406,3.9406,3.9406,3.9406,3.9406,3.9406,3.9406,3.9406,3.9406,3.9406,3.9406,3.9406,3.9406,3.9406,3.9406,3.9406,3.9406,3.9406,3.9406,3.9406,3.9406,3.9406,3.9406,3.9406,3.9406,0.0,0.0,0.0,0.0,0.0,0.0,0.0,0.0,0.0,0.0,0.0,0.0,0.0,0.0,0.0,0.0,0.0,0.0,0.0,0.0,3.56,3.56,3.56,3.56,3.56,3.56,3.56,3.56,3.56,3.56,3.56,3.56,3.56,3.56,3.56,3.5464,3.5184,3.4514,3.4223,3.413,3.3039,0.0,0.0,0.0,0.0,0.0,0.0,0.0,0.0,0.0,3.1503,3.1503,3.1503,3.1503,3.1503,3.1503,3.1503,3.1585,3.2011,3.231,3.2699,3.3537,3.3732,3.3874,3.4383,3.4817,3.519,3.5444,3.5496,3.5496,3.5496,3.5496,3.5496,3.5496,3.5496,3.5496,3.5496,3.5496,3.5496,3.5496,3.5496,3.5669,3.6073,3.6686,3.733,3.7973,3.8646,3.9131,3.9391,3.9406,3.9406,3.9406,3.9406,3.9406,3.9406,3.9406,3.9406,3.9406,3.9406,3.9406,3.9406,3.9406,3.9406,3.9406,3.9406,3.9406,3.9406,3.9406,3.9406,3.9406,3.9406,3.9406,3.9406,3.9406,3.9406,3.9406,0.0,0.0,0.0,0.0,0.0,0.0,0.0,0.0,0.0,0.0,0.0,0.0,0.0,0.0,0.0,0.0,0.0,0.0,3.56,3.56,3.56,3.56,3.56,3.56,3.56,3.56,3.56,3.56,3.56,3.56,3.56,3.56,3.56,3.56,3.56,3.5487,3.5253,3.4789,3.4479,3.4204,3.3287,3.2781,0.0,0.0,0.0,0.0,0.0,0.0,0.0,0.0,3.1503,3.1503,3.1503,3.1503,3.1503,3.1503,3.1503,3.1645,3.2318,3.2647,3.3095,3.4226,3.466,3.4817,3.4817,3.5168,3.5496,3.5496,3.5496,3.5496,3.5496,3.5496,3.5496,3.5496,3.5496,3.5496,3.5496,3.5496,3.5496,3.5496,3.5496,3.5759,3.6425,3.7045,3.7689,3.8356,3.9026,3.9406,3.9406,3.9406,3.9406,3.9406,3.9406,3.9406,3.9406,3.9406,3.9406,3.9406,3.9406,3.9406,3.9406,3.9406,3.9406,3.9406,3.9406,3.9406,3.9406,3.9406,3.9406,3.9406,3.9406,3.9406,3.9406,3.9406,3.9406,3.9406,0.0,0.0,0.0,0.0,0.0,0.0,0.0,0.0,0.0,0.0,0.0,0.0,0.0,0.0,0.0,0.0,0.0,0.0,3.56,3.56,3.56,3.56,3.56,3.56,3.56,3.56,3.56,3.56,3.56,3.56,3.56,3.56,3.56,3.56,3.56,3.523,3.46,3.46,3.4223,3.3601,3.3595,3.3195,3.2593,0.0,0.0,0.0,0.0,0.0,0.0,0.0,3.1503,3.1503,3.1503,3.1503,3.1503,3.1503,3.1503,3.166,3.2333,3.2998,3.3672,3.4346,3.5004,3.5496,3.5496,3.5496,3.5496,3.5496,3.5496,3.5496,3.5496,3.5496,3.5496,3.5496,3.5496,3.5496,3.5496,3.5496,3.5496,3.5496,3.5504,3.5774,3.644,3.706,3.7689,3.8356,3.9026,3.9406,3.9406,3.9406,3.9406,3.9406,3.9406,3.9406,3.9406,3.9406,3.9406,3.9406,3.9406,3.9406,3.9406,3.9406,3.9406,3.9406,3.9406,3.9406,3.9406,3.9406,3.9406,3.9406,3.9406,3.9406,3.9406,3.9406,3.9406,3.9406,0.0,0.0,0.0,0.0,0.0,0.0,0.0,0.0,0.0,0.0,0.0,0.0,0.0,0.0,0.0,0.0,0.0,0.0,3.56,3.56,3.56,3.56,3.56,3.56,3.56,3.56,3.56,3.56,3.56,3.56,3.56,3.56,3.56,3.56,3.56,3.5492,3.531,3.531,3.4912,3.426,3.3786,3.3195,3.2532,0.0,0.0,0.0,0.0,0.0,0.0,0.0,0.0,0.0,3.1503,3.1503,3.1503,3.1503,3.1824,3.2347,3.3013,3.3687,3.4353,3.5048,3.5355,3.5496,3.5496,3.5496,3.5496,3.5496,3.5496,3.5496,3.5496,3.5496,3.5496,3.5496,3.5496,3.5496,3.5496,3.5496,3.5496,3.5496,3.5916,3.6455,3.7075,3.7719,3.8377,3.9056,3.9287,3.9406,3.9406,3.9406,3.9406,3.9406,3.9406,3.9406,3.9406,3.9406,3.9406,3.9406,3.9406,3.9406,3.9406,3.9406,3.9406,3.9406,3.9406,3.9406,3.9406,3.9406,3.9406,3.9406,3.9406,3.9406,3.9406,3.9406,3.9406,3.9406,0.0,0.0,0.0,0.0,0.0,0.0,0.0,0.0,0.0,0.0,3.56,0.0,0.0,0.0,0.0,0.0,0.0,0.0,0.0,3.56,3.56,3.56,3.56,3.56,3.56,3.56,3.56,3.56,3.56,3.56,3.56,3.56,3.56,3.56,3.56,3.5458,3.5202,3.5202,3.4658,3.3773,3.3372,3.2794,3.2104,0.0,0.0,0.0,0.0,0.0,0.0,0.0,0.0,0.0,3.1503,3.1503,3.1548,3.1824,3.2176,3.2699,3.3642,3.4188,3.466,3.5325,3.5496,3.5496,3.5496,3.5496,3.5496,3.5496,3.5496,3.5496,3.5496,3.5496,3.5496,3.5496,3.5496,3.5496,3.5496,3.5496,3.5609,3.5872,3.6246,3.6844,3.7719,3.8161,3.8676,3.9346,3.9406,3.9406,3.9406,3.9406,3.9406,3.9406,3.9406,3.9406,3.9406,3.9406,3.9406,3.9406,3.9406,3.9406,3.9406,3.9406,3.9406,3.9406,3.9406,3.9406,3.9406,3.9406,3.9406,3.9406,3.9406,3.9406,3.9406,3.9406,3.9406,3.9406,0.0,0.0,0.0,0.0,0.0,0.0,0.0,0.0,0.0,0.0,3.56,3.56,0.0,0.0,0.0,0.0,0.0,0.0,0.0,0.0,3.56,3.56,3.5538,3.5504,3.5504,3.5504,3.5504,3.5504,3.5577,3.56,3.56,3.56,3.56,3.56,3.56,3.523,3.4594,3.4594,3.383,3.2593,3.2593,3.2169,3.1503,3.1503,0.0,0.0,0.0,0.0,0.0,0.0,0.0,0.0,3.1503,3.1503,3.1623,3.2303,3.2542,3.2878,3.4143,3.454,3.4742,3.5355,3.5496,3.5496,3.5496,3.5496,3.5496,3.5496,3.5496,3.5496,3.5496,3.5496,3.5496,3.5496,3.5496,3.5496,3.5496,3.5496,3.5744,3.6425,3.6553,3.7054,3.8281,3.8461,3.8736,3.9346,3.9406,3.9406,3.9406,3.9406,3.9406,3.9406,3.9406,3.9406,3.9406,3.9406,3.9406,3.9406,3.9406,3.9406,3.9406,3.9406,3.9406,3.9406,3.9406,3.9406,3.9406,3.9406,3.9406,3.9406,3.9406,3.9406,3.9406,3.9406,3.9406,3.9406,0.0,0.0,0.0,0.0,0.0,0.0,0.0,0.0,0.0,0.0,0.0,0.0,0.0,0.0,0.0,0.0,0.0,0.0,0.0,0.0,3.56,3.56,3.5092,3.4823,3.4823,3.4823,3.4823,3.4823,3.5345,3.56,3.56,3.56,3.56,3.56,3.56,3.523,3.4594,3.4594,3.383,3.2593,3.2593,3.2169,3.1503,3.1503,3.1503,0.0,0.0,0.0,0.0,0.0,0.0,0.0,3.1503,3.1503,3.1623,3.2303,3.2878,3.3455,3.4286,3.4884,3.5325,3.5466,3.5496,3.5496,3.5496,3.5496,3.5496,3.5496,3.5496,3.5496,3.5496,3.5496,3.5496,3.5496,3.5496,3.5496,3.5496,3.5496,3.5744,3.6425,3.6919,3.7524,3.8326,3.8886,3.9242,3.9391,3.9406,3.9406,3.9406,3.9406,3.9406,3.9406,3.9406,3.9406,3.9406,3.9406,3.9406,3.9406,3.9406,3.9406,3.9406,3.9406,3.9406,3.9406,3.9406,3.9406,3.9406,3.9406,3.9406,3.9406,3.9406,3.9406,3.9406,3.9406,3.9406,3.9406,0.0,0.0,0.0,0.0,0.0,0.0,0.0,0.0,0.0,0.0,0.0,0.0,0.0,0.0,0.0,0.0,0.0,0.0,0.0,0.0,3.5464,3.515,3.4783,3.4594,3.4594,3.4594,3.4753,3.5081,3.5436,3.56,3.56,3.56,3.56,3.56,3.56,3.5046,3.4143,3.4461,3.3611,3.2106,3.2465,3.2169,3.1503,3.1503,3.1503,3.1503,3.1503,0.0,0.0,0.0,0.0,0.0,0.0,0.0,3.2116,3.2781,3.3447,3.4128,3.4794,3.5235,3.5496,3.5496,3.5496,3.5496,3.5496,3.5496,3.5496,3.5496,3.5496,3.5496,3.5496,3.5496,3.5496,3.5496,3.5496,3.5496,3.5496,3.5774,3.6216,3.6859,3.7494,3.8138,3.8802,3.9197,3.9406,3.9406,3.9406,3.9406,3.9406,3.9406,3.9406,3.9406,3.9406,3.9406,3.9406,3.9406,3.9406,3.9406,3.9406,3.9406,3.9406,3.9406,3.9406,3.9406,3.9406,3.9406,3.9406,3.9406,3.9406,3.9406,3.9406,3.9406,3.9406,3.9406,3.9406,3.9406,0.0,0.0,0.0,0.0,0.0,0.0,0.0,0.0,0.0,0.0,0.0,0.0,0.0,0.0,0.0,0.0,0.0,0.0,0.0,0.0,0.0,3.4612,3.4382,3.4309,3.4425,3.4425,3.4694,3.5242,3.5487,3.5538,3.5436,3.5554,3.56,3.5594,3.5481,3.4746,3.3649,3.4192,3.3288,3.1568,3.2422,3.2265,3.1503,3.164,3.1611,3.1503,3.1503,3.1503,3.1503,3.1503,0.0,0.0,0.0,0.0,3.2632,3.3305,3.3979,3.4645,3.5325,3.5496,3.5496,3.5496,3.5496,3.5496,3.5496,3.5496,3.5496,3.5496,3.5496,3.5496,3.5496,3.5496,3.5496,3.5496,3.5496,3.5541,3.5669,3.6156,3.6769,3.7494,3.8063,3.8661,3.9331,3.9406,3.9406,3.9406,3.9406,3.9406,3.9406,3.9406,3.9406,3.9406,3.9406,3.9406,3.9406,3.9406,3.9406,3.9406,3.9406,3.9406,3.9406,3.9406,3.9406,3.9406,3.9406,3.9406,3.9406,3.9406,3.9406,3.9406,3.9406,3.9406,3.9406,3.9406,3.9406,3.9406,0.0,0.0,0.0,0.0,0.0,0.0,0.0,0.0,0.0,0.0,3.56,3.56,0.0,0.0,0.0,0.0,0.0,0.0,3.56,0.0,0.0,3.46,3.3495,3.3145,3.3716,3.3729,3.3773,3.3862,3.5039,3.531,3.4742,3.5333,3.56,3.5577,3.4982,3.4309,3.3601,3.3691,3.2864,3.1618,3.2946,3.2678,3.1568,3.2202,3.2057,3.1503,3.1503,3.1503,3.1503,3.1503,3.1503,0.0,0.0,0.0,3.2632,3.3305,3.3979,3.4645,3.5325,3.5496,3.5496,3.5496,3.5496,3.5496,3.5496,3.5496,3.5496,3.5496,3.5496,3.5496,3.5496,3.5496,3.5496,3.5496,3.5496,3.5699,3.6276,3.6449,3.6943,3.8131,3.8356,3.8661,3.9331,3.9406,3.9406,3.9406,3.9406,3.9406,3.9406,3.9406,3.9406,3.9406,3.9406,3.9406,3.9406,3.9406,3.9406,3.9406,3.9406,3.9406,3.9406,3.9406,3.9406,3.9406,3.9406,3.9406,3.9406,3.9406,3.9406,3.9406,3.9406,3.9406,3.9406,3.9406,3.9406,3.9406,0.0,0.0,0.0,0.0,0.0,0.0,0.0,0.0,0.0,0.0,0.0,3.56,0.0,0.0,0.0,3.56,3.56,3.543,3.5063,3.4759,3.4266,3.3505,3.3268,3.33,3.3588,3.3595,3.3978,3.4716,3.4924,3.5081,3.5167,3.5081,3.5046,3.5034,3.473,3.4229,3.3595,3.3595,3.3033,3.2167,3.2794,3.2422,3.1547,3.186,3.1782,3.1503,3.1503,3.1503,3.1503,3.1503,3.175,3.2056,3.2056,0.0,0.0,0.0,3.4533,3.5123,3.5421,3.5496,3.5496,3.5496,3.5496,3.5496,3.5496,3.5496,3.5496,3.5496,3.5496,3.5496,3.5496,3.5496,3.5496,3.5496,3.5496,3.5721,3.6404,3.6799,3.7353,3.8296,3.8736,3.9086,3.9376,3.9406,3.9406,3.9406,3.9406,3.9406,3.9406,3.9406,3.9406,3.9406,3.9406,3.9406,3.9406,3.9406,3.9406,3.9406,3.9406,3.9406,3.9406,3.9406,3.9406,3.9406,3.9406,3.9406,3.9406,3.9406,3.9406,3.9406,3.9406,3.9406,3.9406,3.9406,3.9406,3.9451,0.0,0.0,0.0,0.0,0.0,0.0,0.0,0.0,0.0,0.0,0.0,0.0,0.0,0.0,0.0,0.0,3.56,3.5322,3.4636,3.4284,3.3646,3.2641,3.3079,3.3346,3.3346,3.3505,3.4097,3.5091,3.4753,3.4865,3.5339,3.4825,3.4503,3.4339,3.4174,3.3912,3.3595,3.3595,3.3209,3.2627,3.2966,3.2455,3.1517,3.1711,3.1668,3.1503,3.1503,3.1503,3.1525,3.1705,3.2086,3.2527,3.2699,3.3567,0.0,0.0,0.0,3.5496,3.5496,3.5496,3.5496,3.5496,3.5496,3.5496,3.5496,3.5496,3.5496,3.5496,3.5496,3.5496,3.5496,3.5496,3.5496,3.5496,3.5639,3.5983,3.6635,3.727,3.7898,3.8571,3.9101,3.9406,3.9406,3.9406,3.9406,3.9406,3.9406,3.9406,3.9406,3.9406,3.9406,3.9406,3.9406,3.9406,3.9406,3.9406,3.9406,3.9406,3.9406,3.9406,3.9406,3.9406,3.9406,3.9406,3.9406,3.9406,3.9406,3.9406,3.9406,3.9406,3.9406,3.9406,3.9406,3.9406,3.9406,3.9496,0.0,0.0,0.0,0.0,0.0,0.0,0.0,0.0,0.0,0.0,0.0,0.0,3.56,3.56,3.56,3.56,3.56,3.5322,3.4636,3.3411,3.2675,3.2593,3.2627,0.0,3.2648,3.3268,3.3627,3.3697,3.4309,3.4628,3.4658,3.4628,3.426,3.362,3.298,3.3039,3.3595,3.3595,3.3209,3.2715,3.3987,3.3288,3.1575,3.2278,3.2113,3.1503,3.1503,3.1503,3.16,3.2235,3.2467,3.2602,3.3245,3.3926,3.4496,0.0,0.0,0.0,3.5496,3.5496,3.5496,3.5496,3.5496,3.5496,3.5496,3.5496,3.5496,3.5496,3.5496,3.5496,3.5496,3.5496,3.5496,3.5496,3.6028,3.6665,3.727,3.7928,3.861,3.9272,3.9376,3.9406,3.9406,3.9406,3.9406,3.9406,3.9406,3.9406,3.9406,3.9406,3.9406,3.9406,3.9406,3.9406,3.9406,3.9406,3.9406,3.9406,3.9406,3.9406,3.9406,3.9406,3.9406,3.9406,3.9406,3.9406,3.9406,3.9406,3.9406,3.9406,3.9406,3.9406,3.9406,3.9406,3.9406,3.9496,0.0,0.0,0.0,0.0,0.0,0.0,0.0,0.0,0.0,0.0,0.0,0.0,0.0,3.56,3.56,3.56,3.5207,3.4496,3.3391,3.2868,3.2389,3.1909,3.2348,3.2593,3.2593,3.3254,3.3811,3.4241,3.4479,3.4594,3.4588,3.4161,3.383,3.3582,3.3346,3.3139,3.298,3.3424,3.3209,3.2634,3.3126,3.2591,3.1524,3.1789,3.1725,3.1563,3.1996,3.2131,3.2235,3.2916,3.3432,3.3829,3.4069,3.46,3.513,3.513,3.531,3.5496,3.5496,3.5496,3.5496,3.5496,3.5496,3.5496,3.5496,3.5496,3.5496,3.5496,3.5496,3.5496,3.5496,3.5496,3.5496,3.5496,3.6058,3.671,3.733,3.7982,3.8655,3.9316,3.9406,3.9406,3.9406,3.9406,3.9406,3.9406,3.9406,3.9406,3.9406,3.9406,3.9406,3.9406,3.9406,3.9406,3.9406,3.9406,3.9406,3.9406,3.9406,3.9406,3.9406,3.9406,3.9406,3.9406,3.9406,3.9406,3.9406,3.9406,3.9406,3.9406,3.9406,3.9406,3.9406,3.9406,3.9406,3.9556,0.0,0.0,0.0,0.0,0.0,0.0,0.0,0.0,0.0,0.0,0.0,0.0,0.0,0.0,3.5504,3.5276,3.4646,3.3792,3.2675,3.2368,3.2127,3.1888,3.2334,3.2709,3.292,3.3372,3.3818,3.4266,3.4266,3.4266,3.4248,3.3576,3.3385,3.3595,3.3595,3.3489,3.33,3.3748,3.3559,3.2942,3.2942,3.236,3.1518,3.175,3.1839,3.1914,3.2602,3.2834,3.2938,3.3612,3.4128,3.454,3.4757,3.513,3.5496,3.5496,3.5496,3.5496,3.5496,3.5496,3.5496,3.5496,3.5496,3.5496,3.5496,3.5496,3.5496,3.5496,3.5496,3.5496,3.5496,3.5496,3.5496,3.5496,3.6222,3.6941,3.7336,3.8174,3.8901,3.9346,3.9406,3.9406,3.9406,3.9406,3.9406,3.9406,3.9406,3.9406,3.9406,3.9406,3.9406,3.9406,3.9406,3.9406,3.9406,3.9406,3.9406,3.9406,3.9406,3.9406,3.9406,3.9406,3.9406,3.9406,3.9406,3.9406,3.9406,3.9406,3.9406,3.9406,3.9406,3.9406,3.9406,3.9406,3.9541,3.9894,0.0,0.0,0.0,0.0,0.0,0.0,0.0,0.0,0.0,3.56,0.0,0.0,0.0,0.0,0.0,3.4624,3.3981,3.3307,3.2607,3.1924,3.1846,3.254,3.2615,3.2913,3.3556,3.3601,3.362,3.362,3.362,3.362,3.3608,3.2949,3.298,3.362,3.362,3.4,3.4624,3.4624,3.4223,3.3569,3.3588,3.2765,3.16,3.225,3.2512,3.2624,3.329,3.3537,3.3627,3.4293,3.4526,3.4637,3.5295,3.5496,3.5496,3.5496,3.5496,3.5496,0.0,0.0,0.0,3.5496,3.5496,3.5496,3.5496,3.5496,3.5496,3.5496,3.5496,3.5496,3.5496,3.5496,3.5496,3.5496,3.6573,3.7396,3.7396,3.8554,3.9406,3.9406,3.9406,3.9406,3.9406,3.9406,3.9406,3.9406,3.9406,3.9406,3.9406,3.9406,3.9406,3.9406,3.9406,3.9406,3.9406,3.9406,3.9406,3.9406,3.9406,3.9406,3.9406,3.9406,3.9406,3.9406,3.9406,3.9406,3.9406,3.9406,3.9406,3.9406,3.9406,3.9406,3.9406,3.9406,3.9819,4.0502,0.0,0.0,0.0,0.0,0.0,0.0,3.56,3.56,3.56,0.0,0.0,0.0,3.56,3.56,3.5138,3.3981,3.3703,3.309,3.1873,3.2104,3.2155,3.1817,3.2779,3.3185,3.2882,3.383,3.4327,3.4327,3.4327,3.4327,3.4309,3.3633,3.3678,3.4327,3.4327,3.4694,3.5328,3.5328,3.4374,3.2922,3.3404,3.3055,3.2243,3.2422,3.2804,3.3305,3.3971,3.4218,3.4323,3.5004,3.522,3.525,3.5436,3.5496,3.5496,3.5496,3.5496,3.5496,3.5496,0.0,0.0,0.0,0.0,0.0,3.5496,3.5496,3.5496,3.5496,3.5496,3.5496,3.5496,3.5496,3.5496,3.5496,3.6573,3.7396,3.7396,3.8554,3.9406,3.9406,3.9406,3.9406,3.9406,3.9406,3.9406,3.9406,3.9406,3.9406,3.9406,3.9406,3.9406,3.9406,3.9406,3.9406,3.9406,3.9406,3.9406,3.9406,3.9406,3.9406,3.9406,3.9406,3.9406,3.9406,3.9406,3.9406,3.9406,3.9406,3.9406,3.9406,3.9406,3.9406,3.9406,3.9406,3.9819,4.0502,0.0,0.0,0.0,0.0,0.0,0.0,3.56,3.56,3.56,0.0,0.0,0.0,3.56,3.56,3.5068,3.3716,3.3595,3.3004,3.1589,3.2196,3.241,3.1972,3.3004,3.3559,3.3443,3.4204,3.4594,3.4594,3.4321,3.418,3.4174,3.3501,3.3531,3.4198,3.4473,3.4823,3.5173,3.5173,3.4344,3.3084,3.3755,3.3415,3.2557,3.3118,3.3582,3.4009,3.4682,3.4914,3.4974,3.537,3.5496,3.5496,3.5496,3.5496,3.5496,3.5496,3.5496,3.5496,3.5496,3.5496,3.5496,3.5496,0.0,0.0,3.5496,3.5496,3.5496,3.5496,3.5496,3.5496,3.5496,3.5496,3.5496,3.5496,3.6357,3.7105,3.7366,3.8308,3.9086,3.9376,3.9406,3.9406,3.9406,3.9406,3.9406,3.9406,3.9406,3.9406,3.9406,3.9406,3.9406,3.9406,3.9406,3.9406,3.9406,3.9406,3.9406,3.9406,3.9406,3.9406,3.9406,3.9406,3.9406,3.9406,3.9406,3.9406,3.9406,3.9406,3.9406,3.9406,3.9406,3.9406,3.9436,3.9705,4.0247,4.0915,0.0,0.0,0.0,3.56,3.56,3.56,3.56,3.56,3.56,0.0,3.56,3.56,3.56,3.5526,3.4976,3.3703,3.3524,3.2966,3.1696,3.2313,3.2715,3.2715,3.3424,3.4068,3.4582,3.4676,3.4676,3.4594,3.4,3.371,3.3697,3.3099,3.3185,3.3843,3.4443,3.4718,3.4706,3.4711,3.4319,3.3758,3.427,3.3768,3.2849,3.4054,3.4555,3.4682,3.5295,3.5496,3.5496,3.5496,3.5496,3.5496,3.5496,3.5496,3.5496,3.5496,3.5496,3.5496,3.5496,3.5496,3.5496,3.5496,3.5496,0.0,3.5496,3.5496,3.5496,3.5496,3.5496,3.5496,3.5496,3.5496,3.5496,3.5496,3.5998,3.6605,3.7216,3.7928,3.8616,3.9212,3.9346,3.9406,3.9406,3.9406,3.9406,3.9406,3.9406,3.9406,3.9406,3.9406,3.9406,3.9406,3.9406,3.9406,3.9406,3.9406,3.9406,3.9406,3.9406,3.9406,3.9406,3.9406,3.9406,3.9406,3.9406,3.9406,3.9406,3.9406,3.9406,3.9406,3.9406,3.9406,3.9481,4.0148,4.0825,4.1493,0.0,3.56,3.56,3.56,3.56,3.56,3.56,3.56,3.56,3.56,3.56,3.56,3.56,3.5115,3.4461,3.3665,3.3112,3.2688,3.2403,3.3033,3.3404,3.3404,3.4566,3.5016,3.46,3.5121,3.5133,3.4594,3.4467,3.4406,3.44,3.4272,3.4568,3.5224,3.5345,3.5402,3.5396,3.5393,3.5021,3.4357,3.3901,3.386,3.4143,3.4406,3.4832,3.5325,3.5451,3.5496,3.5496,3.5496,3.5496,3.5496,3.5496,3.5496,3.5496,3.5496,3.5496,3.5496,3.5496,3.5496,3.5496,3.5496,3.5496,0.0,3.5496,3.5496,3.5496,3.5496,3.5496,3.5496,3.5496,3.5496,3.5496,3.5496,3.5601,3.5923,3.6575,3.7667,3.8446,3.858,3.9071,3.9406,3.9406,3.9406,3.9406,3.9406,3.9406,3.9406,3.9406,3.9406,3.9406,3.9406,3.9406,3.9406,3.9406,3.9406,3.9406,3.9406,3.9406,3.9406,3.9406,3.9406,3.9406,3.9406,3.9406,3.9406,3.9406,3.9406,3.9406,3.9406,3.9406,3.9406,3.9481,4.0148,4.0825,4.1493,3.56,3.56,3.56,3.56,3.56,3.56,3.56,3.56,3.56,3.56,3.56,3.5475,3.515,3.4795,3.4198,3.3198,3.3099,3.2953,3.2614,3.3237,3.3595,3.3595,3.4562,3.4941,3.46,3.5253,3.5265,3.4594,3.4272,3.4272,3.4588,3.426,3.4272,3.4627,3.4941,3.4923,3.4593,3.4575,3.4757,3.5065,3.4668,3.4492,3.454,3.4877,3.5205,3.5496,3.5496,3.5496,3.5496,3.5496,3.5496,3.5496,3.5496,3.5496,3.5496,3.5496,3.5496,3.5496,3.5496,3.5496,3.5496,3.5496,3.5496,0.0,0.0,3.5496,3.5496,3.5496,3.5496,3.5496,3.5496,3.5798,3.5934,3.5554,3.5814,3.604,3.6004,3.6844,3.7682,3.8326,3.8691,3.9026,3.9376,3.9406,3.9406,3.9406,3.9406,3.9406,3.9406,3.9406,3.9406,3.9406,3.9406,3.9406,3.9406,3.9406,3.9406,3.9406,3.9406,3.9406,3.9406,3.9406,3.9406,3.9406,3.9406,3.9406,3.9406,3.9406,3.9406,3.9406,3.9406,3.9601,3.9984,4.0651,4.1328,4.1997,3.56,3.56,3.56,3.56,3.56,3.56,3.56,3.56,3.56,3.56,3.5487,3.5202,3.4664,3.437,3.378,3.2695,3.2973,3.3077,3.2808,3.3185,3.3585,3.3978,3.4376,3.4664,3.4789,3.5202,3.5075,3.4406,3.3993,3.4006,3.44,3.4112,3.3997,3.4,3.4413,3.4372,3.3973,3.3772,3.4412,3.5588,3.5516,3.5185,3.4757,3.5295,3.5496,3.5496,3.5496,3.5496,3.5496,3.5496,3.5496,3.5496,3.5496,3.5496,3.5496,3.5496,3.5496,3.5496,3.5496,3.5496,3.5496,3.5496,3.5496,3.5496,0.0,0.0,0.0,3.5496,3.5496,3.5496,3.5496,3.599,3.6243,3.579,3.6094,3.6275,3.5982,3.6151,3.674,3.7892,3.8251,3.8601,3.9152,3.9316,3.9406,3.9406,3.9406,3.9406,3.9406,3.9406,3.9406,3.9406,3.9406,3.9406,3.9406,3.9406,3.9406,3.9406,3.9406,3.9406,3.9406,3.9406,3.9406,3.9406,3.9406,3.9406,3.9406,3.9406,3.9406,3.9406,3.9406,3.9819,4.0472,4.1149,4.1817,4.2491,3.56,3.56,3.56,3.56,3.56,3.56,3.56,3.56,3.56,3.56,3.5081,3.4671,3.46,3.3531,3.2776,3.2607,3.2062,3.2242,3.3417,3.2993,3.3508,3.5299,3.4877,3.4882,3.5475,3.4971,3.4382,3.371,3.4235,3.4223,3.3741,3.4841,3.5368,3.5345,3.4835,3.4894,3.5332,3.468,3.4812,3.5502,3.5492,3.5457,3.5391,3.5474,3.5496,3.5496,3.5496,3.5496,3.5496,3.5496,3.5496,3.5496,3.5496,3.5496,3.5496,3.5496,3.5496,3.5496,3.5496,3.5496,3.5496,3.5496,3.5496,3.5496,3.5496,0.0,3.5496,3.5496,0.0,3.5496,3.5496,0.0,0.0,3.6376,3.6006,3.6077,3.7361,3.6429,3.5893,3.6628,3.7712,3.8431,3.8505,3.9056,3.9406,3.9406,3.9406,3.9406,3.9406,3.9406,3.9406,3.9406,3.9406,3.9406,3.9406,3.9406,3.9406,3.9406,3.9406,3.9406,3.9406,3.9406,3.9406,3.9406,3.9406,3.9406,3.9406,3.9406,3.9406,3.9406,3.9406,3.9819,4.0472,4.1149,4.1817,4.2491,3.56,3.56,3.56,3.56,3.56,3.56,3.56,3.56,3.56,3.56,3.5022,3.4449,3.4062,3.3163,3.2437,3.1993,3.2071,3.2388,3.2973,3.3126,3.3738,3.4976,3.4748,3.4912,3.5588,3.5328,3.4853,3.418,3.4461,3.4455,3.4192,3.4753,3.5028,3.5016,3.4732,3.4768,3.5001,3.4659,3.4889,3.5498,3.5501,3.5496,3.5496,3.5496,3.5496,3.5496,3.5496,3.5496,3.5496,3.5496,3.5496,3.5496,3.5496,3.5496,3.5496,3.5496,3.5496,3.5496,3.5496,3.5496,3.5496,3.5496,3.5815,3.603,3.5595,3.5823,3.6022,3.5587,0.0,0.0,0.0,0.0,0.0,0.0,3.6446,3.6905,3.7085,3.6554,3.6393,3.7065,3.723,3.7593,3.8326,3.9011,3.9406,3.9406,3.9406,3.9406,3.9406,3.9406,3.9406,3.9406,3.9406,3.9406,3.9406,3.9406,3.9406,3.9406,3.9406,3.9406,3.9406,3.9406,3.9406,3.9406,3.9406,3.9406,3.9406,3.9406,3.9406,3.9436,3.9834,4.0382,4.1064,4.1733,4.2391,4.296,3.56,3.56,3.56,3.56,3.56,3.56,3.56,3.56,3.56,3.56,3.4853,3.4143,3.3646,3.2819,3.2085,3.1554,3.1986,3.2389,3.2595,3.3053,3.362,3.4297,3.4497,3.4835,3.5322,3.515,3.49,3.4594,3.4413,3.4419,3.46,3.4783,3.4877,3.488,3.4681,3.4703,3.4867,3.4607,3.4892,3.55,3.5497,3.5496,3.5496,3.5496,3.5496,3.5496,3.5496,3.5496,3.5496,3.5496,3.5496,3.5496,3.5496,3.5496,3.5496,3.5496,3.5496,3.5496,3.5496,3.5496,3.5496,3.5496,3.5902,3.6212,3.5879,3.622,3.6454,3.5903,3.5806,0.0,0.0,0.0,3.6196,3.5855,0.0,3.7175,3.7225,3.6692,3.6553,3.7234,3.6975,3.7174,3.8296,3.9011,3.9406,3.9406,3.9406,3.9406,3.9406,3.9406,3.9406,3.9406,3.9406,3.9406,3.9406,3.9406,3.9406,3.9406,3.9406,3.9406,3.9406,3.9406,3.9406,3.9406,3.9406,3.9406,3.9406,3.9406,3.9511,3.9744,4.0412,4.1079,4.1733,4.2221,4.2785,4.33,3.56,3.56,3.56,3.56,3.56,3.56,3.56,3.56,3.56,3.56,3.4447,3.362,3.3595,3.2358,3.1524,3.1503,3.1517,3.1839,3.2545,3.2614,3.292,3.3595,3.4254,3.46,3.4624,3.4,3.3975,3.4594,3.395,3.3968,3.4606,3.5259,3.5577,3.5537,3.4895,3.4955,3.5522,3.4805,3.4885,3.5507,3.5489,3.5496,3.5496,3.5496,3.5496,3.5496,3.5496,3.5496,3.5496,3.5496,3.5496,3.5496,3.5496,3.5496,3.5496,3.5496,3.5496,3.5496,3.5496,3.5496,3.5496,3.5496,3.5521,3.5717,3.6407,3.6584,3.6584,3.6569,3.6554,3.6353,3.5635,3.5521,3.5758,3.6454,3.6014,0.0,0.0,3.6935,3.5806,3.6546,3.7065,3.7644,3.8326,3.9011,3.9406,3.9406,3.9406,3.9406,3.9406,3.9406,3.9406,3.9406,3.9406,3.9406,3.9406,3.9406,3.9406,3.9406,3.9406,3.9406,3.9406,3.9406,3.9406,3.9406,3.9406,3.9406,3.9406,3.9406,3.978,4.0427,4.1104,4.1787,4.2366,4.2396,4.2785,4.33,3.56,3.56,3.56,3.56,3.56,3.56,3.56,3.56,3.543,3.5005,3.4155,3.3437,3.298,3.2076,3.1503,3.1503,3.1503,3.1604,3.186,3.2732,3.3156,3.2955,3.4423,3.5057,3.46,3.4382,3.4592,3.5259,3.4159,3.4178,3.5253,3.5046,3.5458,3.6365,3.5607,3.5653,3.6271,3.5492,3.5295,3.5496,3.5496,3.5496,3.5496,3.5496,3.5496,3.5496,3.5496,3.5496,3.5496,3.5496,3.5496,3.5496,3.5496,3.5496,3.5496,3.5496,3.5496,3.5496,3.5496,3.5496,3.5496,3.5496,3.5871,3.629,3.6538,3.7009,3.7233,3.6706,3.6607,3.6368,3.5643,3.5496,3.5578,3.5823,3.607,3.6684,0.0,3.7507,3.6893,3.6566,3.7057,3.7486,3.7719,3.8757,3.9406,3.9406,3.9406,3.9406,3.9406,3.9406,3.9406,3.9406,3.9406,3.9406,3.9406,3.9406,3.9406,3.9406,3.9406,3.9406,3.9406,3.9406,3.9406,3.9406,3.9406,3.9406,3.9406,3.9406,3.9804,4.0472,4.1149,4.1817,4.2455,4.2851,4.3115,4.33,3.56,3.56,3.56,3.56,3.56,3.56,3.56,3.5396,3.5092,3.4664,3.3805,3.3079,3.2648,3.1937,3.1604,3.1874,3.1895,3.2,3.2228,3.3103,3.33,3.2627,3.4066,3.4568,3.3899,3.4124,3.4574,3.5242,3.4386,3.452,3.5594,3.5446,3.5736,3.6349,3.6105,3.6096,3.6234,3.5717,3.5496,3.5496,3.5496,3.5496,3.5496,3.5496,3.5496,3.5496,3.5496,3.5496,3.5496,3.5496,3.5496,3.5496,3.5496,3.5496,3.5496,3.5496,3.5496,3.5496,3.5496,3.5496,3.5496,3.5496,3.5855,3.6336,3.6848,3.7362,3.7644,3.7375,3.7119,3.6799,3.6274,3.581,3.5579,3.5818,3.6054,3.6384,0.0,3.722,3.7162,3.657,3.703,3.7486,3.7725,3.8757,3.9406,3.9406,3.9406,3.9406,3.9406,3.9406,3.9406,3.9406,3.9406,3.9406,3.9406,3.9406,3.9406,3.9406,3.9406,3.9406,3.9406,3.9406,3.9406,3.9406,3.9406,3.9406,3.9421,3.966,4.0148,4.0825,4.1493,4.2152,4.2771,4.316,4.33,4.33,3.56,3.56,3.56,3.56,3.56,3.56,3.56,3.5034,3.4582,3.4552,3.3417,3.2595,3.2554,3.1944,3.1839,3.2532,3.2627,3.2915,3.3505,3.3576,3.3281,3.2588,3.3215,3.3287,3.2607,3.3254,3.3931,3.4594,3.4564,3.4929,3.5673,3.6394,3.6367,3.5735,3.6395,3.6268,3.5544,3.5525,3.5496,3.5496,3.5496,3.5496,3.5496,3.5496,3.5496,3.5496,3.5496,3.5496,3.5496,3.5496,3.5496,3.5496,3.5496,3.5496,3.5496,3.5496,3.5496,3.5511,3.5541,3.5541,3.5556,3.5594,3.5586,3.5948,3.7332,3.7645,3.783,3.8471,3.8093,3.7598,3.7438,3.6409,3.578,3.6395,3.5964,3.5545,3.5549,3.6187,3.6637,3.6608,3.7105,3.7704,3.8341,3.9011,3.9406,3.9406,3.9406,3.9406,3.9406,3.9406,3.9406,3.9406,3.9406,3.9406,3.9406,3.9406,3.9406,3.9406,3.9406,3.9406,3.9406,3.9406,3.9406,3.9406,3.9406,3.9421,3.9496,4.0142,4.081,4.1508,4.2146,4.2771,4.33,4.33,4.33,4.33,3.56,3.56,3.56,3.56,3.56,3.56,3.56,3.5034,3.4419,3.3925,3.3126,3.2396,3.1846,3.2106,3.2396,3.2579,3.3053,3.3195,3.2882,3.332,3.3057,3.1839,3.2944,3.3287,3.2607,3.3254,3.3931,3.4594,3.4106,3.4767,3.6485,3.6139,3.6423,3.7213,3.6867,3.6565,3.6276,3.573,3.5496,3.5496,3.5496,3.5496,3.5496,3.5496,3.5496,3.5496,3.5496,3.5496,3.5496,3.5496,3.5496,3.5496,3.5496,3.5496,3.5496,3.5496,3.5496,3.5601,3.6111,3.6246,3.635,3.6798,3.6917,3.7159,3.8123,3.834,3.8386,3.8556,3.8456,3.815,3.7513,3.7127,3.6821,3.6545,3.6399,3.6301,3.6247,3.6874,3.7481,3.7861,3.8056,3.8206,3.8386,3.9011,3.9406,3.9406,3.9406,3.9406,3.9406,3.9406,3.9406,3.9406,3.9406,3.9406,3.9406,3.9406,3.9406,3.9406,3.9406,3.9406,3.9406,3.9406,3.9406,3.9406,3.9406,3.9675,4.0163,4.0337,4.1079,4.2161,4.2336,4.2771,4.33,4.33,4.33,4.33,3.56,3.56,3.56,3.56,3.56,3.5498,3.5207,3.483,3.4364,3.3684,3.3268,3.2873,3.2461,3.2786,3.3159,3.345,3.3818,3.4,3.3916,3.3726,3.3254,3.2455,3.2583,3.2503,3.2134,3.306,3.3906,3.4646,3.4854,3.576,3.728,3.7186,3.7383,3.7784,3.7381,3.7171,3.7062,3.6306,3.5783,3.5496,3.5496,3.5496,0.0,3.5496,3.5496,3.5496,3.5496,3.5496,3.5496,3.5496,3.5496,3.5496,3.5496,3.5496,3.5556,3.5848,3.5938,3.6073,3.6725,3.6881,3.6971,3.733,3.7396,3.7599,3.834,3.8501,3.8593,3.8881,3.873,3.8464,3.8306,3.78,3.7291,3.6941,3.6928,3.6939,3.6903,3.7254,3.7727,3.8327,3.8401,3.852,3.8811,3.9176,3.9406,3.9406,3.9406,3.9406,3.9406,3.9406,3.9406,3.9406,3.9406,3.9406,3.9406,3.9406,3.9406,3.9406,3.9406,3.9406,3.9406,3.9406,3.9406,3.9406,3.9406,3.9774,4.0427,4.072,4.1448,4.2425,4.269,4.3005,4.33,4.33,4.33,4.33,3.56,3.56,3.56,3.56,3.56,3.5368,3.4706,3.4594,3.4394,3.3805,3.3646,3.3649,3.3729,3.3742,3.4001,3.4677,3.4738,3.49,3.531,3.4252,3.3527,3.3323,3.2333,3.1788,3.1788,3.3101,3.4172,3.4973,3.613,3.7159,3.8069,3.87,3.857,3.7806,3.7903,3.7827,3.7588,3.6791,3.6094,3.5496,3.5496,3.5496,3.5496,3.5496,3.5496,3.5496,3.5496,3.5496,3.5496,3.5496,3.5496,3.5519,3.5609,3.5624,3.5759,3.6425,3.6628,3.6755,3.7351,3.7539,3.7545,3.7635,3.7665,3.7815,3.8401,3.8535,3.8691,3.9272,3.8945,3.8706,3.9287,3.8383,3.7539,3.7539,3.7456,3.7426,3.7524,3.7539,3.777,3.8446,3.8535,0.0,3.9346,3.9406,3.9406,3.9406,3.9406,3.9406,3.9406,3.9406,3.9406,3.9406,3.9406,3.9406,3.9406,3.9406,3.9406,3.9406,3.9406,3.9406,3.9406,3.9406,3.9406,3.9406,3.9496,3.9909,4.0576,4.1254,4.1912,4.258,4.31,4.33,4.33,4.33,4.33,4.33,3.56,3.56,3.56,3.56,3.56,3.5368,3.4706,3.4594,3.4558,3.4437,3.395,3.3825,3.4431,3.4463,3.472,3.5438,3.5465,3.5005,3.4022,3.3729,3.3083,3.1923,3.28,3.3309,3.3309,3.4625,3.5684,3.6438,3.6607,3.7421,3.8802,3.8943,3.8564,3.7823,3.8441,3.8003,3.6768,3.6014,3.5619,3.5496,3.5496,3.5496,3.5496,3.5496,3.5496,3.5496,3.5496,3.5496,3.5496,3.5496,3.5496,3.5609,3.6156,3.6321,3.6455,3.706,3.7231,3.7389,3.8056,3.8221,3.8362,3.8913,3.9047,3.9077,3.9206,3.9212,3.9266,3.9376,3.9316,3.9266,3.9376,3.8766,3.8221,3.8221,3.7764,3.7599,3.8146,3.8221,3.8467,3.9146,3.9212,3.9272,3.9391,3.9406,3.9406,3.9406,3.9406,3.9406,3.9406,3.9406,3.9406,3.9406,3.9406,3.9406,3.9406,3.9406,3.9406,3.9406,3.9406,3.9406,3.9406,3.9406,3.9406,3.9436,3.9984,4.0616,4.1283,4.1952,4.2591,4.3145,4.3255,4.33,4.33,4.33,4.33,4.33,3.56,3.56,3.56,3.56,3.5955,3.6106,3.5787,3.6075,3.6039,3.5263,3.5564,3.5962,3.6325,3.6322,3.6453,3.6815,3.681,3.6343,3.5284,3.5242,3.4795,3.3714,3.4387,3.461,3.4227,3.5568,3.6442,3.6797,3.7495,3.8431,3.9559,3.9559,3.914,3.8365,3.8337,3.7687,3.6584,3.622,3.5847,3.5496,3.5496,3.5496,3.5496,3.5496,3.5496,3.5496,3.5496,3.5496,3.5496,3.5496,3.5729,3.6081,3.6395,3.671,3.709,3.7734,3.7913,3.8063,3.8736,3.8922,3.8996,3.9316,3.9406,3.9406,3.9406,3.9406,3.9406,3.9406,3.9406,3.9406,3.9406,3.9146,3.8922,3.8922,3.8652,3.8548,3.8862,3.8922,3.9041,3.9361,3.9406,3.9406,3.9406,3.9406,3.9406,3.9406,3.9406,3.9406,3.9406,3.9406,3.9406,3.9406,3.9406,3.9406,3.9406,3.9406,3.9406,3.9406,3.9406,3.9406,3.9406,3.9406,3.9586,3.9939,4.0262,4.0975,4.1967,4.2606,4.3035,4.33,4.33,4.33,4.33,4.33,4.33,4.33,3.56,3.574,3.5864,3.5864,3.6507,3.7021,3.7021,3.7652,3.7658,3.6339,3.7178,3.7967,3.8119,3.7984,3.7967,3.8119,3.7984,3.7565,3.6763,3.6765,3.6476,3.5748,3.6076,3.5911,3.515,3.6536,3.7243,3.7243,3.8364,3.9225,3.9869,4.0028,3.9669,3.8861,3.7948,3.7181,3.6592,3.643,3.6023,3.5496,3.5496,3.5496,3.5496,3.5496,3.5496,3.5496,3.5496,3.5594,3.5714,3.5714,3.6058,3.6553,3.6814,3.7233,3.774,3.8422,3.8601,3.8721,3.9266,3.9406,3.9406,3.9406,3.9406,3.9406,3.9406,3.9406,3.9406,3.9406,3.9406,3.9406,3.9406,3.9406,3.9406,3.9406,3.9406,3.9406,3.9406,3.9406,3.9406,3.9406,3.9406,3.9406,3.9406,3.9406,3.9406,3.9406,3.9406,3.9406,3.9406,3.9406,3.9406,3.9406,3.9406,3.9406,3.9406,3.9406,3.9406,3.9406,3.9406,3.9406,3.9406,3.9406,3.9774,4.0412,4.0546,4.1364,4.2631,4.31,4.33,4.33,4.33,4.33,4.33,4.33,4.33,4.33,3.56,3.618,3.6688,3.6688,3.7297,3.7804,3.7804,3.8413,3.8614,3.7805,3.7813,3.8153,3.8825,3.8305,3.817,3.8842,3.8294,3.7573,3.6846,3.6797,3.6509,3.582,3.7081,3.7417,3.6615,3.7974,3.8698,3.8698,3.8841,3.8969,3.9119,3.9785,3.9669,3.884,3.7373,3.6676,3.6561,3.5894,3.5554,3.5496,3.5496,3.5496,3.5496,3.5496,3.5496,3.5496,3.5496,3.5893,3.641,3.641,3.644,3.6695,3.7871,3.8251,3.8446,3.9116,3.9316,3.9316,3.9376,3.9406,3.9406,3.9406,3.9406,3.9406,3.9406,3.9406,3.9406,3.9406,3.9406,3.9406,3.9406,3.9406,3.9406,3.9406,3.9406,3.9406,3.9406,3.9406,3.9406,3.9406,3.9406,3.9406,3.9406,3.9406,3.9406,3.9406,3.9406,3.9406,3.9406,3.9406,3.9406,3.9406,3.9406,3.9406,3.9406,3.9406,3.9406,3.9406,3.9406,3.9406,3.9406,3.9406,3.9774,4.0427,4.1035,4.2028,4.321,4.3285,4.33,4.33,4.33,4.33,4.33,4.33,4.33,4.33,3.698,3.724,3.7455,3.7455,3.8075,3.8565,3.8565,3.9186,3.9542,3.9254,3.922,3.9339,3.9633,3.9406,3.9339,3.9626,3.9389,3.8889,3.8101,3.8505,3.844,3.7694,3.8681,3.888,3.8078,3.9093,3.9374,3.8901,3.9374,3.9395,3.8945,3.9235,3.8965,3.8168,3.6638,3.6188,3.6554,3.5814,3.5496,3.5496,3.5496,3.5496,3.5496,3.5496,3.5496,3.5541,3.5961,3.6276,3.6628,3.7383,3.7637,3.7727,3.8245,3.8676,3.9056,3.9316,3.9406,3.9406,3.9406,3.9406,3.9406,3.9406,3.9406,3.9406,3.9406,3.9406,3.9406,3.9406,3.9406,3.9406,3.9406,3.9406,3.9406,3.9406,3.9406,3.9406,3.9406,3.9406,3.9406,3.9406,3.9406,3.9406,3.9406,3.9406,3.9406,3.9406,3.9406,3.9406,3.9406,3.9406,3.9406,3.9406,3.9406,3.9406,3.9406,3.9406,3.9406,3.9406,3.9406,3.9406,3.9406,3.9819,4.0591,4.1637,4.2267,4.2831,4.33,4.33,4.33,4.33,4.33,4.33,4.33,4.33,4.33,4.33,3.7899,3.8069,3.8221,3.8221,3.8825,3.9316,3.9316,3.9768,4.0096,4.0096,4.0096,4.0096,4.0096,4.0096,4.0096,4.0096,4.0096,3.9869,3.9289,3.9782,3.9857,3.9282,3.9795,3.9714,3.8915,3.9682,3.9597,3.858,3.9365,3.9235,3.8247,3.8247,3.7958,3.7404,3.6321,3.599,3.6236,3.5725,3.5496,3.5496,3.5496,3.5496,3.5496,3.5496,3.5616,3.5857,3.6321,3.6748,3.7203,3.811,3.8535,3.8691,3.8691,3.9026,3.9406,3.9406,3.9406,3.9406,3.9406,3.9406,3.9406,3.9406,3.9406,3.9406,3.9406,3.9406,3.9406,3.9406,3.9406,3.9406,3.9406,3.9406,3.9406,3.9406,3.9406,3.9406,3.9406,3.9406,3.9406,3.9406,3.9406,3.9406,3.9406,3.9406,3.9406,3.9406,3.9406,3.9406,3.9406,3.9406,3.9406,3.9406,3.9406,3.9406,3.9406,3.9406,3.9406,3.9406,3.9406,3.9496,3.972,4.0591,4.1493,4.2425,4.3035,4.33,4.33,4.33,4.33,4.33,4.33,4.33,4.33,4.33,4.33,4.33,3.7899,3.8481,3.8994,3.8994,3.9592,4.0096,4.0096,4.0089,4.0096,4.0096,4.0096,4.0096,4.0096,4.0096,4.0096,4.0096,4.0096,4.0106,4.0083,4.0083,4.0106,4.0083,4.0083,3.9714,3.8915,3.9682,3.9338,3.7806,3.8553,3.8157,3.6731,3.6731,3.6696,3.6607,3.66,3.6188,3.5512,3.5504,3.5496,3.5496,3.5496,3.5496,3.5496,3.5496,3.5908,3.6493,3.6508,3.7317,3.8371,3.8386,3.8832,3.9391,3.9391,3.9391,3.9406,3.9406,3.9406,3.9406,3.9406,3.9406,3.9406,3.9406,3.9406,3.9406,3.9406,3.9406,3.9406,3.9406,3.9406,3.9406,3.9406,3.9406,3.9406,3.9406,3.9406,3.9406,3.9406,3.9406,3.9406,3.9406,3.9406,3.9406,3.9406,3.9406,3.9406,3.9406,3.9406,3.9406,3.9406,3.9406,3.9406,3.9406,3.9406,3.9406,3.9406,3.9406,3.9406,3.9406,3.9406,3.9759,4.0427,4.1772,4.2381,4.2425,4.3035,4.33,4.33,4.33,4.33,4.33,4.33,4.33,4.33,4.33,4.33,4.33,3.9406,3.9599,3.9751,3.9751,3.9937,4.0096,4.0096,4.0096,4.0096,4.0096,4.0096,4.0096,4.0096,4.0096,4.0096,4.0096,4.0096,4.0096,4.0096,4.0096,4.0096,4.0096,4.0096,3.9971,3.9714,3.9976,3.9857,3.9375,3.9052,3.8114,3.662,3.6122,3.5872,3.5847,3.5847,3.5725,3.5496,3.5496,3.5496,3.5496,3.5496,3.5496,3.5541,3.6013,3.6306,3.6605,3.7473,3.8056,3.8476,3.8931,3.9212,3.9406,3.9406,3.9406,3.9406,3.9406,3.9406,3.9406,3.9406,3.9406,3.9406,3.9406,3.9406,3.9406,3.9406,3.9406,3.9406,3.9406,3.9406,3.9406,3.9406,3.9406,3.9406,3.9406,3.9406,3.9406,3.9406,3.9406,3.9406,3.9406,3.9406,3.9406,3.9406,3.9406,3.9406,3.9406,3.9406,3.9406,3.9406,3.9406,3.9406,3.9406,3.9406,3.9406,3.9406,3.9406,3.9406,3.9406,3.9864,4.0666,4.1787,4.2216,4.2616,4.302,4.321,4.33,4.33,4.33,4.33,4.33,4.33,4.33,4.33,4.33,4.33,4.33,4.0096,4.0096,4.0096,4.0096,4.0096,4.0096,4.0096,4.0096,4.0096,4.0096,4.0096,4.0096,4.0096,4.0096,4.0096,4.0096,4.0096,4.0096,4.0096,4.0096,4.0096,4.0096,4.0096,4.0096,4.0096,4.0096,3.9825,3.9232,3.8145,3.7129,3.6181,3.5717,3.5496,3.5496,3.5496,3.5496,3.5496,3.5496,3.5496,3.5496,3.5496,3.5654,3.5923,3.6335,3.6808,3.7323,3.8116,3.8556,3.8832,3.9266,3.9406,3.9406,3.9406,3.9406,3.9406,3.9406,3.9406,3.9406,3.9406,3.9406,3.9406,3.9406,3.9406,3.9406,3.9406,3.9406,3.9406,3.9406,3.9406,3.9406,3.9406,3.9406,3.9406,3.9406,3.9406,3.9406,3.9406,3.9406,3.9406,3.9406,3.9406,3.9406,3.9406,3.9406,3.9406,3.9406,3.9406,3.9406,3.9406,3.9406,3.9406,3.9406,3.9406,3.9406,3.9406,3.9406,3.9526,3.9789,4.072,4.1583,4.241,4.2631,4.294,4.33,4.33,4.33,4.33,4.33,4.33,4.33,4.33,4.33,4.33,4.33,4.33,4.33,4.0096,4.0096,4.0096,4.0096,4.0096,4.0096,4.0096,4.0096,4.0096,4.0096,4.0096,4.0096,4.0096,4.0096,4.0096,4.0096,4.0096,4.0096,4.0096,4.0096,4.0096,4.0096,4.0096,4.0096,4.0096,4.0096,3.9332,3.7807,3.6313,3.5578,3.5578,3.5529,3.5529,3.557,3.5529,3.5496,3.5496,3.5496,3.5496,3.5496,3.5541,3.5979,3.66,3.6623,3.7411,3.8497,3.8463,3.8871,3.9406,3.9406,3.9406,3.9406,3.9406,3.9406,3.9406,3.9406,3.9406,3.9406,3.9406,3.9406,3.9406,3.9406,3.9406,3.9406,3.9406,3.9406,3.9406,3.9406,3.9406,3.9406,3.9406,3.9406,3.9406,3.9406,3.9406,3.9406,3.9406,3.9406,3.9406,3.9406,3.9406,3.9406,3.9406,3.9406,3.9406,3.9406,3.9406,3.9406,3.9406,3.9406,3.9406,3.9406,3.9406,3.9406,3.9406,3.9451,3.9834,4.0546,4.1802,4.2425,4.2476,4.3035,4.33,4.33,4.33,4.33,4.33,4.33,4.33,4.33,4.33,4.33,4.33,4.33,4.33,4.33,4.0096,4.0096,4.0096,4.0096,4.0096,4.0096,4.0096,4.0096,4.0096,4.0096,4.0096,4.0096,4.0096,4.0096,4.0096,4.0096,4.0096,4.0096,4.0096,4.0096,4.0096,4.0096,4.0096,4.0096,4.0096,4.0096,3.9332,3.7807,3.6813,3.6345,3.6329,3.5758,3.5798,3.6322,3.575,3.5496,3.5496,3.5496,3.5496,3.5541,3.6058,3.6734,3.7466,3.7813,3.8551,3.9375,3.9218,3.9272,3.9406,3.9406,3.9406,3.9406,3.9406,3.9406,3.9406,3.9406,3.9406,3.9406,3.9406,3.9406,3.9406,3.9406,3.9406,3.9406,3.9406,3.9406,3.9406,3.9406,3.9406,3.9406,3.9406,3.9406,3.9406,3.9406,3.9406,3.9406,3.9406,3.9406,3.9406,3.9406,3.9406,3.9406,3.9406,3.9406,3.9406,3.9406,3.9406,3.9406,3.9406,3.9406,3.9406,3.9406,3.9406,3.9406,3.9406,3.9909,4.0765,4.1922,4.2246,4.2646,4.3085,4.3225,4.33,4.33,4.33,4.33,4.33,4.33,4.33,4.33,4.33,4.33,4.33,4.33,4.33,4.33,4.0096,4.0096,4.0096,4.0096,4.0096,4.0096,4.0096,4.0096,4.0096,4.0096,4.0096,4.0096,4.0096,4.0096,4.0096,4.0096,4.0096,4.0096,4.0096,4.0096,4.0096,4.0096,4.0096,4.0096,4.0096,4.0096,3.9332,3.7807,3.6987,3.6607,3.6584,3.6196,3.622,3.6584,3.6181,3.5822,3.5521,3.5863,3.5814,3.5597,3.663,3.7479,3.8227,3.878,3.948,4.0093,3.9575,3.9406,3.9406,3.9406,3.9406,3.9406,3.9406,3.9406,3.9406,3.9406,3.9406,3.9406,3.9406,3.9406,3.9406,3.9406,3.9406,3.9406,3.9406,3.9406,3.9406,3.9406,3.9406,3.9406,3.9406,3.9406,3.9406,3.9406,3.9406,3.9406,3.9406,3.9406,3.9406,3.9406,3.9406,3.9406,3.9406,3.9406,3.9406,3.9406,3.9406,3.9406,3.9406,3.9406,3.9406,3.9406,3.9406,3.9556,3.9849,4.0825,4.1682,4.2396,4.269,4.2975,4.33,4.33,4.33,4.33,4.33,4.33,4.33,4.33,4.33,4.33,4.33,4.33,4.33,4.33,4.33,4.33,4.0096,4.0096,4.0096,4.0096,4.0096,4.0096,4.0096,4.0096,4.0096,4.0096,4.0096,4.0096,4.0096,4.0096,4.0096,4.0096,4.0096,4.0096,4.0096,4.0096,4.0096,4.0096,4.0096,4.0096,4.0096,3.9971,3.9226,3.7807,3.713,3.6775,3.6775,3.6653,3.6607,3.6607,3.6607,3.6196,3.5553,3.629,3.6297,3.596,3.7308,3.841,3.9289,3.9699,4.0288,4.0767,3.9764,3.9406,3.9406,3.9406,3.9406,3.9406,3.9406,3.9406,3.9406,3.9406,3.9406,3.9406,3.9406,3.9406,3.9406,3.9406,3.9406,3.9406,3.9406,3.9406,3.9406,3.9406,3.9406,3.9406,3.9406,3.9406,3.9406,3.9406,3.9406,3.9406,3.9406,3.9406,3.9406,3.9406,3.9406,3.9406,3.9406,3.9406,3.9406,3.9406,3.9406,3.9406,3.9406,3.9406,3.9451,3.9556,3.9556,3.9924,4.0681,4.1832,4.2455,4.2536,4.3065,4.33,4.33,4.33,4.33,4.33,4.33,4.33,4.33,4.33,4.33,4.33,4.33,4.33,4.33,4.33,4.33,4.33,4.0096,4.0096,4.0096,4.0096,4.0096,4.0096,4.0096,4.0096,4.0096,4.0096,4.0096,4.0096,4.0096,4.0096,4.0096,4.0096,4.0096,4.0096,4.0096,4.0096,4.0096,4.0096,4.0096,4.0096,4.0096,3.942,3.8656,3.7807,3.7668,3.761,3.7595,3.6927,3.6607,3.6607,3.6607,3.6196,3.5553,3.629,3.6894,3.7426,3.8219,3.9833,4.1656,4.0848,4.1069,4.1593,3.9979,3.9406,3.9406,3.9406,3.9406,3.9406,3.9406,3.9406,3.9406,3.9406,3.9406,3.9406,3.9406,3.9406,3.9406,3.9406,3.9406,3.9406,3.9406,3.9406,3.9406,3.9406,3.9406,3.9406,3.9406,3.9406,3.9406,3.9406,3.9406,3.9406,3.9406,3.9406,3.9406,3.9406,3.9406,3.9406,3.9406,3.9406,3.9406,3.9406,3.9406,3.9406,3.9406,3.9406,3.966,4.0232,4.0238,4.084,4.2081,4.2306,4.2661,4.316,4.3255,4.33,4.33,4.33,4.33,4.33,4.33,4.33,4.33,4.33,4.33,4.33,4.33,4.33,4.33,4.33,4.33,4.33,4.0096,4.0096,4.0096,4.0096,4.0096,4.0096,4.0096,4.0096,4.0096,4.0096,4.0096,4.0096,4.0096,4.0096,4.0096,4.0096,4.0096,4.0096,4.0096,4.0096,4.0096,4.0096,4.0096,3.9901,3.9463,3.9093,3.8539,3.7807,3.8206,3.8198,3.7784,3.7419,3.7256,3.7256,3.7256,3.6821,3.6196,3.7807,3.8185,3.7872,3.9852,4.131,4.223,4.1622,4.1642,4.1772,4.0032,3.9406,3.9406,3.9406,3.9406,3.9406,3.9406,3.9406,3.9406,3.9406,3.9406,3.9406,3.9406,3.9406,3.9406,3.9406,3.9406,3.9406,3.9406,3.9406,3.9406,3.9406,3.9406,3.9406,3.9406,3.9406,3.9406,3.9406,3.9406,3.9406,3.9406,3.9406,3.9406,3.9406,3.9406,3.9406,3.9406,3.9406,3.9406,3.9406,3.9406,3.9406,3.9406,3.9744,4.0083,4.0382,4.1094,4.1772,4.2396,4.2711,4.302,4.33,4.33,4.33,4.33,4.33,4.33,4.33,4.33,4.33,4.33,4.33,4.33,4.33,4.33,4.33,4.33,4.33,4.33,4.33,4.036,4.0496,4.0614,4.0614,4.0462,4.036,4.036,4.0208,4.0096,4.0096,4.0096,4.0096,4.0096,4.0096,4.0096,4.0096,4.0096,4.0096,4.0096,4.0096,4.0096,4.0096,3.992,3.9529,3.8915,3.8901,3.8621,3.8064,3.8621,3.8525,3.7807,3.7807,3.7697,3.7537,3.7906,3.7703,3.726,3.9267,3.9588,3.898,4.1342,4.2387,4.2492,4.2138,4.1861,4.1494,3.9953,3.9406,3.9406,3.9406,3.9406,3.9406,3.9406,3.9406,3.9406,3.9406,3.9406,3.9406,3.9406,3.9406,3.9406,3.9406,3.9406,3.9406,3.9406,3.9406,3.9406,3.9406,3.9406,3.9406,3.9406,3.9406,3.9406,3.9406,3.9406,3.9406,3.9406,3.9406,3.9406,3.9406,3.9406,3.9406,3.9406,3.9406,3.9406,3.9406,3.9406,3.9466,3.9616,4.0118,4.0531,4.0855,4.1862,4.2461,4.2601,4.3311,4.3532,4.33,4.3541,4.3522,4.33,4.33,4.33,4.33,4.33,4.33,4.33,4.33,4.33,4.33,4.33,4.33,4.33,4.33,4.33,4.33,4.1113,4.1667,4.2147,4.2147,4.1576,4.1113,4.1113,4.054,4.0096,4.0096,4.0096,4.0096,4.0096,4.0096,4.0096,4.0096,4.0096,4.0096,4.0096,4.0096,4.0096,4.0096,3.9398,3.8955,3.8901,3.8901,3.8874,3.882,3.8874,3.8525,3.7807,3.7807,3.7404,3.6752,3.8171,3.8786,3.8795,3.9706,4.0824,4.197,4.2202,4.2664,4.3141,4.2307,4.1511,4.0673,3.9737,3.9406,3.9406,3.9406,3.9406,3.9406,3.9406,3.9406,3.9406,3.9406,3.9406,3.9406,3.9406,3.9406,3.9406,3.9406,3.9406,3.9406,3.9406,3.9406,3.9406,3.9406,3.9406,3.9406,3.9406,3.9406,3.9406,3.9406,3.9406,3.9406,3.9406,3.9406,3.9406,3.9406,3.9406,3.9406,3.9406,3.9406,3.9406,3.9406,3.9406,3.9675,4.0292,4.0367,4.0975,4.2206,4.2351,4.2676,4.3225,4.419,4.422,4.3309,4.4249,4.4201,4.33,4.33,4.33,4.33,4.33,4.33,4.33,4.33,4.33,4.33,4.33,4.33,4.33,4.33,4.33,4.33,4.1887,4.2107,4.2293,4.2293,4.2073,4.1887,4.1887,4.1633,4.1301,4.0838,4.0787,4.0608,4.014,4.0096,4.0096,4.0096,4.0096,4.0096,4.0096,4.0096,3.9882,3.9374,3.9535,3.9196,3.8232,3.9156,3.9176,3.8211,3.8676,3.8525,3.7807,3.7807,3.7876,3.8067,3.9158,3.9637,3.9745,4.1422,4.2217,4.2372,4.3335,4.3877,4.3946,4.2544,4.178,4.1321,3.9908,3.9406,3.9406,3.9406,3.9406,3.9406,3.9406,3.9406,3.9406,3.9406,3.9406,3.9406,3.9406,3.9406,3.9406,3.9406,3.9406,3.9406,3.9406,3.9406,3.9406,3.9406,3.9406,3.9406,3.9406,3.9406,3.9406,3.9406,3.9406,3.9406,3.9406,3.9406,3.9406,3.9406,3.9406,3.9406,3.9406,3.9406,3.9406,3.9406,3.9789,4.0133,4.0382,4.1194,4.2047,4.294,4.296,4.308,4.33,4.4307,4.4605,4.4249,4.5211,4.5464,4.5097,4.5097,4.4784,4.423,4.423,4.3878,4.33,4.33,4.33,4.33,4.33,4.33,4.33,4.33,4.33,4.33,4.2642,4.2851,4.3027,4.3027,4.2817,4.2642,4.2642,4.2445,4.2124,4.161,4.1542,4.1255,4.0523,4.0455,4.0354,4.013,4.0096,4.0096,4.0096,4.0096,3.9846,3.9302,3.9555,3.9345,3.8551,3.9312,3.9332,3.8513,3.8789,3.8642,3.8149,3.8149,3.8551,3.9314,4.0095,4.0702,4.1236,4.2759,4.3244,4.311,4.4164,4.445,4.4035,4.2567,4.1828,4.1404,3.9926,3.9406,3.9406,3.9406,3.9406,3.9406,3.9406,3.9406,3.9406,3.9406,3.9406,3.9406,3.9406,3.9406,3.9406,3.9406,3.9406,3.9406,3.9406,3.9406,3.9406,3.9406,3.9406,3.9406,3.9406,3.9406,3.9406,3.9406,3.9406,3.9406,3.9406,3.9406,3.9406,3.9406,3.9406,3.9406,3.9406,3.9406,3.9496,3.969,4.0142,4.0709,4.1434,4.2234,4.3138,4.4184,4.3921,4.3912,4.4209,4.4887,4.5245,4.5248,4.6198,4.648,4.62,4.62,4.5843,4.5227,4.4927,4.4421,4.3742,4.3438,4.33,4.33,4.33,4.33,4.33,4.33,4.33,4.33,4.3406,4.4045,4.4608,4.4608,4.3944,4.3406,4.3406,4.2794,4.2317,4.231,4.231,4.2022,4.1282,4.1221,4.0916,4.0174,4.0106,4.0113,4.0096,4.0096,4.0096,4.0096,3.9335,3.9282,4.007,3.9315,3.9295,4.0083,3.9289,3.8901,3.8901,3.8901,3.934,4.0132,4.0892,4.2019,4.3399,4.3406,4.3869,4.4608,4.4608,4.4078,4.3192,4.2324,4.1461,4.0595,3.9711,3.9406,3.9406,3.9406,3.9406,3.9406,3.9406,3.9406,3.9406,3.9406,3.9406,3.9406,3.9406,3.9406,3.9406,3.9406,3.9406,3.9406,3.9406,3.9406,3.9406,3.9406,3.9406,3.9406,3.9406,3.9406,3.9406,3.9406,3.9406,3.9406,3.9406,3.9406,3.9406,3.9406,3.9406,3.9406,3.9406,3.9406,3.9699,4.0367,4.0421,4.1424,4.3681,4.3499,4.4209,4.6138,4.531,4.5257,4.62,4.6208,4.6208,4.6217,4.7163,4.7113,4.6217,4.6217,4.6217,4.6156,4.5236,4.4812,4.4718,4.3713,4.3309,4.33,4.33,4.33,4.33,4.33,4.33,4.33,4.4238,4.4432,4.4608,4.4608,4.4398,4.4238,4.4238,4.4059,4.3704,4.3159,4.3068,4.2787,4.2049,4.1972,4.1667,4.0933,4.0865,4.0652,4.0123,4.0096,4.0096,4.0096,3.9876,3.9597,3.9269,3.9584,3.9574,3.9262,3.9026,3.8901,3.8918,3.9479,4.0146,4.0932,4.2186,4.2993,4.3433,4.3995,4.4381,4.4608,4.4608,4.4078,4.3192,4.2324,4.1461,4.0595,3.9711,3.9406,3.9406,3.9406,3.9406,3.9406,3.9406,3.9406,3.9406,3.9406,3.9406,3.9406,3.9406,3.9406,3.9406,3.9406,3.9406,3.9406,3.9406,3.9406,3.9406,3.9406,3.9406,3.9406,3.9406,3.9406,3.9406,3.9406,3.9406,3.9406,3.9406,3.9406,3.9406,3.9406,3.9819,4.0103,4.0103,4.0531,4.0885,4.1079,4.2153,4.3291,4.4431,4.5031,4.5593,4.6173,4.5932,4.6233,4.7164,4.7189,4.7189,4.7181,4.812,4.845,4.8152,4.8152,4.7811,4.7172,4.69,4.6019,4.4774,4.4488,4.3946,4.33,4.33,4.33,4.33,4.33,4.33,4.33,4.4608,4.4608,4.4608,4.4608,4.4608,4.4608,4.4608,4.4608,4.4438,4.3944,4.3869,4.3582,4.2821,4.2743,4.2439,4.1694,4.1644,4.1447,4.1003,4.0643,4.061,4.0956,4.0636,4.0117,3.9391,3.9846,3.9869,3.9368,3.9368,3.9368,3.9385,4.0171,4.0933,4.1694,4.2865,4.3575,4.391,4.4398,4.4608,4.4608,4.4608,4.4274,4.3673,4.2449,4.1666,4.1046,3.9829,3.9619,3.9864,3.9526,3.9406,3.9406,3.9406,3.9406,3.9406,3.9406,3.9406,3.9406,3.9406,3.9406,3.9406,3.9406,3.9406,3.9406,3.9406,3.9406,3.9406,3.9406,3.9406,3.9406,3.9406,3.9625,3.9804,3.9804,4.0023,4.0187,4.0187,4.0187,4.0187,4.0187,4.0546,4.0795,4.0795,4.1498,4.2218,4.2857,4.4059,4.5086,4.5869,4.6092,4.6532,4.7281,4.6952,4.7205,4.8136,4.8144,4.8144,4.8169,4.8727,4.8994,4.8994,4.8994,4.8695,4.812,4.777,4.6747,4.5322,4.4955,4.4211,4.33,4.33,4.33,4.33,4.33,4.33,4.33,4.4608,4.4608,4.4608,4.4608,4.4608,4.4608,4.4608,4.4608,4.4608,4.4608,4.4608,4.433,4.3599,4.3507,4.321,4.2462,4.235,4.2293,4.2293,4.1559,4.1476,4.2266,4.1545,4.0851,4.0314,4.0225,4.0191,4.0191,4.0191,4.0225,4.0309,4.1052,4.1745,4.2428,4.3176,4.3903,4.4608,4.4608,4.4608,4.4608,4.4608,4.4549,4.4296,4.2637,4.1949,4.1666,4.0005,3.9902,4.0457,3.9681,3.9406,3.9406,3.9406,3.9406,3.9406,3.9406,3.9406,3.9406,3.9406,3.9406,3.9406,3.9406,3.9406,3.9406,3.9406,3.9406,3.9421,3.9481,3.9496,3.9511,3.958,4.0083,4.0487,4.0487,4.1005,4.1403,4.1403,4.1403,4.1403,4.1403,4.1448,4.1516,4.161,4.2517,4.3716,4.5181,4.5919,4.6704,4.7556,4.6875,4.7223,4.8947,4.8177,4.8145,4.8994,4.8994,4.8994,4.8994,4.8994,4.8994,4.8994,4.8994,4.8994,4.8955,4.8096,4.7181,4.6244,4.5312,4.4345,4.3438,4.3339,4.33,4.33,4.33,4.33,4.33,4.4608,4.4608,4.4608,4.4608,4.4608,4.4608,4.4608,4.4608,4.4608,4.4608,4.4608,4.4533,4.4364,4.4347,4.4019,4.3227,4.2625,4.2293,4.2293,4.2122,4.2102,4.2286,4.2122,4.1957,4.1819,4.1261,4.0967,4.0967,4.0967,4.1261,4.1843,4.2584,4.3017,4.3203,4.3985,4.4432,4.4608,4.4608,4.4608,4.4608,4.4608,4.4188,4.348,4.2395,4.1584,4.0836,3.9782,3.9511,3.9648,3.9463,3.9406,3.9406,3.9406,3.9406,3.9406,3.9406,3.9406,3.9406,3.9406,3.9406,3.9406,3.9406,3.9406,3.9406,3.9406,3.9406,3.9556,4.0073,4.0178,4.0337,4.087,4.1079,4.1184,4.1184,4.1313,4.1403,4.1403,4.1403,4.1403,4.1403,4.1862,4.2472,4.3217,4.4609,4.5614,4.5951,4.6811,4.7398,4.7589,4.8096,4.8576,4.8986,4.8806,4.8781,4.8994,4.8994,4.8994,4.8994,4.8994,4.8994,4.8994,4.8994,4.8994,4.8986,4.8774,4.8152,4.7222,4.6286,4.5324,4.4402,4.361,4.33,4.33,4.33,4.33,4.33,4.4608,4.4608,4.4608,4.4608,4.4608,4.4608,4.4608,4.4608,4.4608,4.4608,4.4608,4.4608,4.4608,4.4608,4.4432,4.4019,4.3239,4.2776,4.2776,4.2776,4.2776,4.2776,4.2776,4.2794,4.2814,4.2449,4.2077,4.1728,4.1728,4.1921,4.2317,4.3051,4.3399,4.3433,4.4238,4.4608,4.4608,4.4608,4.4608,4.4608,4.4608,4.4078,4.3192,4.2324,4.1461,4.0639,4.0178,4.0025,4.0025,4.0025,3.9746,3.9406,3.9406,3.9406,3.9406,3.9406,3.9406,3.9406,3.9406,3.9406,3.9406,3.9406,3.9631,3.9879,3.9879,3.9879,4.0068,4.0735,4.0885,4.0975,4.1343,4.1658,4.1877,4.1877,4.2112,4.2312,4.2312,4.2312,4.248,4.2955,4.3326,4.4087,4.5472,4.6374,4.7045,4.7506,4.7999,4.8265,4.8265,4.8727,4.8994,4.8994,4.8994,4.8994,4.8994,4.8994,4.8994,4.8994,4.8994,4.8994,4.8994,4.8994,4.8994,4.8994,4.8994,4.8482,4.7531,4.6591,4.5652,4.4699,4.3698,4.33,4.33,4.33,4.33,4.33,4.4608,4.4608,4.4608,4.4608,4.4608,4.4608,4.4608,4.4608,4.4608,4.4608,4.4608,4.4608,4.4608,4.4478,4.4376,4.4376,4.3726,4.3299,4.3299,4.345,4.3525,4.3525,4.3525,4.3544,4.3595,4.3616,4.3244,4.2496,4.2496,4.2564,4.2706,4.3311,4.3616,4.3626,4.4296,4.4608,4.4608,4.4608,4.4608,4.4594,4.445,4.3931,4.3184,4.2165,4.1338,4.0682,4.0535,4.0483,4.0483,4.0483,3.9999,3.9406,3.9406,3.9508,3.9592,3.9436,3.9508,3.9592,3.9436,3.9481,3.9571,3.9571,4.0073,4.0591,4.072,4.0651,4.0765,4.1433,4.1568,4.1598,4.1708,4.2182,4.2551,4.2551,4.296,4.33,4.33,4.33,4.3664,4.468,4.5085,4.5885,4.7456,4.7754,4.8169,4.8947,4.8994,4.8994,4.8994,4.8994,4.8994,4.8994,4.8994,4.8994,4.8994,4.8994,4.8994,4.8994,4.8994,4.8994,4.8994,4.8994,4.8994,4.8994,4.8994,4.8561,4.7745,4.6644,4.5735,4.4927,4.3761,4.33,4.33,4.33,4.33,4.33,4.4608,4.4608,4.4608,4.4608,4.4608,4.4608,4.4608,4.4608,4.4608,4.4608,4.4608,4.4608,4.4608,4.394,4.3487,4.3487,4.3366,4.3299,4.3299,4.4006,4.4419,4.4419,4.4419,4.4435,4.4432,4.4432,4.4052,4.3247,4.3247,4.3606,4.4286,4.4381,4.4432,4.4432,4.4557,4.4608,4.4608,4.4608,4.4608,4.4528,4.3785,4.3413,4.3116,4.1487,4.0794,4.0596,3.9847,3.9574,3.9574,3.9574,3.9499,3.9406,3.9406,3.9911,4.0371,3.9619,3.9929,4.0369,3.9601,3.9819,4.0262,4.0262,4.078,4.1418,4.1997,4.1682,4.1448,4.2126,4.2261,4.2421,4.2951,4.313,4.319,4.319,4.3255,4.33,4.33,4.33,4.3664,4.468,4.6224,4.7315,4.7572,4.8321,4.8861,4.8994,4.8994,4.8994,4.8994,4.8994,4.8994,4.8994,4.8994,4.8994,4.8994,4.8994,4.8994,4.8994,4.8994,4.8994,4.8994,4.8994,4.8994,4.8994,4.8994,4.894,4.8663,4.6918,4.6136,4.5834,4.4013,4.33,4.33,4.33,4.33,4.33,4.4608,4.4608,4.4608,4.4608,4.4608,4.4608,4.4608,4.4608,4.4608,4.4608,4.4608,4.4608,4.4608,4.3396,4.2778,4.3261,4.2847,4.2785,4.3276,4.4124,4.4376,4.3904,4.4341,4.4608,4.4608,4.4608,4.4438,4.4062,4.4062,4.4255,4.4608,4.4608,4.4608,4.4608,4.4608,4.4608,4.4608,4.4608,4.4327,4.3836,4.3448,4.2724,4.1764,4.0996,4.0397,3.992,3.9544,4.0032,4.0697,3.9729,3.9406,3.949,3.9973,4.0389,4.0724,4.0825,4.0775,4.0698,4.0694,4.0559,4.0487,4.087,4.1463,4.2041,4.2336,4.2426,4.2542,4.2836,4.2895,4.2975,4.3255,4.33,4.33,4.33,4.33,4.3507,4.4057,4.3659,4.3873,4.5397,4.7239,4.8386,4.8386,4.8767,4.8994,4.8994,4.8994,4.8994,4.8994,4.8994,4.8994,4.8994,4.8994,4.8994,4.8994,4.8994,4.8994,4.8994,4.8994,4.8994,4.8994,4.8994,4.8994,4.8994,4.8994,4.8994,4.8853,4.6977,4.62,4.6005,4.407,4.33,4.33,4.33,4.33,4.33]},{"header":{"parameterUnit":"m.s-1","parameterCategory":1,"la1":30.6,"la2":28.766,"lo1":-90.7593,"lo2":-88.6598,"dy":0.0162,"dx":0.0183,"nx":116,"ny":114,"refTime":"2023-05-31T06:00:00:Z","depth":0,"parameterNumber":3,"parameterNumberName":"V-component_of_WINDS"},"data":[0.0,0.0,0.0,0.0,0.0,0.0,0.0,0.0,0.0,0.0,0.0,0.0,0.0,0.0,0.0,0.0,0.0,0.0,0.0,0.0,0.0,0.0,0.0,0.0,0.0,0.0,0.0,0.0,0.0,0.0,0.0,0.0,0.0,0.0,0.0,0.0,0.0,0.0,0.0,0.0,0.0,0.0,0.0,0.0,0.0,0.0,0.0,0.0,0.0,0.0,0.0,0.0,0.0,0.0,0.0,0.0,0.0,0.0,0.0,0.0,0.0,0.0,0.0,0.0,0.0,0.0,0.0,0.0,0.0,0.0,0.0,0.0,0.0,0.0,0.0,0.0,0.0,0.0,0.0,0.0,0.0,0.0,0.0,0.0,0.0,0.0,0.0,0.0,0.0,0.0,0.0,0.0,0.0,0.0,0.0,0.0,0.0,0.0,0.0,0.0,0.0,0.0,0.0,0.0,0.0,0.0,0.0,0.0,0.0,0.0,0.0,0.0,0.0,0.0,0.0,0.0,0.0,0.0,0.0,0.0,0.0,0.0,0.0,0.0,0.0,0.0,0.0,0.0,0.0,0.0,0.0,0.0,0.0,0.0,0.0,0.0,0.0,0.0,0.0,0.0,0.0,0.0,0.0,0.0,0.0,0.0,0.0,0.0,0.0,0.0,0.0,0.0,0.0,0.0,0.0,0.0,0.0,0.0,0.0,0.0,0.0,0.0,0.0,0.0,0.0,0.0,0.0,0.0,0.0,0.0,0.0,0.0,0.0,0.0,0.0,0.0,0.0,0.0,0.0,0.0,0.0,0.0,0.0,0.0,0.0,0.0,0.0,0.0,0.0,0.0,0.0,0.0,0.0,0.0,0.0,0.0,0.0,0.0,0.0,0.0,0.0,0.0,0.0,0.0,0.0,0.0,0.0,0.0,0.0,0.0,0.0,0.0,0.0,0.0,0.0,0.0,0.0,0.0,0.0,0.0,0.0,0.0,0.0,0.0,0.0,0.0,0.0,0.0,0.0,0.0,0.0,0.0,0.0,0.0,0.0,0.0,0.0,0.0,0.0,0.0,0.0,0.0,0.0,0.0,0.0,0.0,0.0,0.0,0.0,0.0,0.0,0.0,0.0,0.0,0.0,0.0,0.0,0.0,0.0,0.0,0.0,0.0,0.0,0.0,0.0,0.0,0.0,0.0,0.0,0.0,0.0,0.0,0.0,0.0,0.0,0.0,0.0,0.0,0.0,0.0,0.0,0.0,0.0,0.0,0.0,0.0,0.0,0.0,0.0,0.0,0.0,0.0,0.0,0.0,0.0,0.0,0.0,0.0,0.0,0.0,0.0,0.0,0.0,0.0,0.0,0.0,0.0,0.0,0.0,0.0,0.0,0.0,0.0,0.0,0.0,0.0,0.0,0.0,0.0,0.0,0.0,0.0,0.0,0.0,0.0,0.0,0.0,0.0,0.0,0.0,0.0,0.0,0.0,0.0,0.0,0.0,0.0,0.0,0.0,0.0,0.0,0.0,0.0,0.0,0.0,0.0,0.0,0.0,0.0,0.0,0.0,0.0,0.0,0.0,0.0,0.0,0.0,0.0,0.0,0.0,0.0,0.0,0.0,0.0,0.0,0.0,0.0,0.0,0.0,0.0,0.0,0.0,0.0,0.0,0.0,0.0,0.0,0.0,0.0,0.0,0.0,0.0,0.0,0.0,0.0,0.0,0.0,0.0,0.0,0.0,0.0,0.0,0.0,0.0,0.0,0.0,0.0,0.0,0.0,0.0,0.0,0.0,0.0,0.0,0.0,0.0,0.0,0.0,0.0,0.0,0.0,0.0,0.0,0.0,0.0,0.0,0.0,0.0,0.0,0.0,0.0,0.0,0.0,0.0,0.0,0.0,0.0,0.0,0.0,0.0,0.0,0.0,0.0,0.0,0.0,0.0,0.0,0.0,0.0,0.0,0.0,0.0,0.0,0.0,0.0,0.0,0.0,0.0,0.0,0.0,0.0,0.0,0.0,0.0,0.0,0.0,0.0,0.0,0.0,0.0,0.0,0.0,0.0,0.0,0.0,0.0,0.0,0.0,0.0,0.0,0.0,0.0,0.0,0.0,0.0,0.0,0.0,0.0,0.0,0.0,0.0,0.0,0.0,0.0,0.0,0.0,0.0,0.0,0.0,0.0,0.0,0.0,0.0,0.0,0.0,0.0,0.0,0.0,0.0,0.0,0.0,0.0,0.0,0.0,0.0,0.0,0.0,0.0,0.0,0.0,0.0,0.0,0.0,0.0,0.0,0.0,0.0,0.0,0.0,0.0,0.0,0.0,0.0,0.0,0.0,0.0,0.0,0.0,0.0,0.0,0.0,0.0,0.0,0.0,0.0,0.0,0.0,0.0,0.0,0.0,0.0,0.0,0.0,0.0,0.0,0.0,0.0,0.0,0.0,0.0,0.0,0.0,0.0,0.0,0.0,0.0,0.0,0.0,0.0,0.0,0.0,0.0,0.0,0.0,0.0,0.0,0.0,0.0,0.0,0.0,0.0,0.0,0.0,0.0,0.0,0.0,0.0,0.0,0.0,0.0,0.0,0.0,0.0,0.0,0.0,0.0,0.0,0.0,0.0,0.0,0.0,0.0,0.0,0.0,0.0,0.0,0.0,0.0,0.0,0.0,0.0,0.0,0.0,0.0,0.0,0.0,0.0,0.0,0.0,0.0,0.0,0.0,0.0,0.0,0.0,0.0,0.0,0.0,0.0,0.0,0.0,0.0,0.0,0.0,0.0,0.0,0.0,0.0,0.0,0.0,0.0,0.0,0.0,0.0,0.0,0.0,0.0,0.0,0.0,0.0,0.0,0.0,0.0,0.0,0.0,0.0,0.0,0.0,0.0,0.0,0.0,0.0,0.0,0.0,0.0,0.0,0.0,0.0,0.0,0.0,0.0,0.0,0.0,0.0,0.0,0.0,0.0,0.0,0.0,0.0,0.0,0.0,0.0,0.0,0.0,0.0,0.0,0.0,0.0,0.0,0.0,0.0,0.0,0.0,0.0,0.0,0.0,0.0,0.0,0.0,0.0,0.0,0.0,0.0,0.0,0.0,0.0,0.0,0.0,0.0,0.0,0.0,0.0,0.0,0.0,0.0,0.0,0.0,0.0,0.0,0.0,0.0,0.0,0.0,0.0,0.0,0.0,0.0,0.0,0.0,0.0,0.0,0.0,0.0,0.0,0.0,0.0,0.0,0.0,0.0,0.0,0.0,0.0,0.0,0.0,0.0,0.0,0.0,0.0,0.0,0.0,0.0,0.0,0.0,0.0,0.0,0.0,0.0,0.0,0.0,0.0,0.0,0.0,0.0,0.0,0.0,0.0,0.0,0.0,0.0,0.0,0.0,0.0,0.0,0.0,0.0,0.0,0.0,0.0,0.0,0.0,0.0,0.0,0.0,0.0,0.0,0.0,0.0,0.0,0.0,0.0,0.0,0.0,0.0,0.0,0.0,0.0,0.0,0.0,0.0,0.0,0.0,0.0,0.0,0.0,0.0,0.0,0.0,0.0,0.0,0.0,0.0,0.0,0.0,0.0,0.0,0.0,0.0,0.0,0.0,0.0,0.0,0.0,0.0,0.0,0.0,0.0,0.0,0.0,0.0,0.0,0.0,0.0,0.0,0.0,0.0,0.0,0.0,0.0,0.0,0.0,0.0,0.0,0.0,0.0,0.0,0.0,0.0,0.0,0.0,0.0,0.0,0.0,0.0,0.0,0.0,0.0,0.0,0.0,0.0,0.0,0.0,0.0,0.0,0.0,0.0,0.0,0.0,0.0,0.0,0.0,0.0,0.0,0.0,0.0,0.0,0.0,0.0,0.0,0.0,0.0,0.0,0.0,0.0,0.0,0.0,0.0,0.0,0.0,0.0,0.0,0.0,0.0,0.0,0.0,0.0,0.0,0.0,0.0,0.0,0.0,0.0,0.0,0.0,0.0,0.0,0.0,0.0,0.0,0.0,0.0,0.0,0.0,0.0,0.0,0.0,0.0,0.0,0.0,0.0,0.0,0.0,0.0,0.0,0.0,0.0,0.0,0.0,0.0,0.0,0.0,0.0,0.0,0.0,0.0,0.0,0.0,0.0,0.0,0.0,0.0,0.0,0.0,0.0,0.0,0.0,0.0,0.0,0.0,0.0,0.0,0.0,0.0,0.0,0.0,0.0,0.0,0.0,0.0,0.0,0.0,0.0,0.0,0.0,0.0,0.0,0.0,0.0,0.0,0.0,0.0,0.0,0.0,0.0,0.0,0.0,0.0,0.0,0.0,0.0,0.0,0.0,0.0,0.0,0.0,0.0,0.0,0.0,0.0,0.0,0.0,0.0,0.0,0.0,0.0,0.0,0.0,0.0,0.0,0.0,0.0,0.0,0.0,0.0,0.0,0.0,0.0,0.0,0.0,0.0,0.0,0.0,0.0,0.0,0.0,0.0,0.0,0.0,0.0,0.0,0.0,0.0,0.0,0.0,0.0,0.0,0.0,0.0,0.0,0.0,0.0,0.0,0.0,0.0,0.0,0.0,0.0,0.0,0.0,0.0,0.0,0.0,0.0,0.0,0.0,0.0,0.0,0.0,0.0,0.0,0.0,0.0,0.0,0.0,0.0,0.0,0.0,0.0,0.0,0.0,0.0,0.0,0.0,0.0,0.0,0.0,0.0,0.0,0.0,0.0,0.0,0.0,0.0,0.0,0.0,0.0,0.0,0.0,0.0,0.0,0.0,0.0,0.0,0.0,0.0,0.0,0.0,0.0,0.0,0.0,0.0,0.0,0.0,0.0,0.0,0.0,0.0,0.0,0.0,0.0,0.0,0.0,0.0,0.0,0.0,0.0,0.0,0.0,0.0,0.0,0.0,0.0,0.0,0.0,0.0,0.0,0.0,0.0,0.0,0.0,0.0,0.0,0.0,0.0,0.0,0.0,0.0,0.0,0.0,0.0,0.0,0.0,0.0,0.0,0.0,0.0,0.0,0.0,0.0,0.0,0.0,0.0,0.0,0.0,0.0,0.0,0.0,0.0,0.0,0.0,0.0,0.0,0.0,0.0,0.0,0.0,0.0,0.0,0.0,0.0,0.0,0.0,0.0,0.0,0.0,0.0,0.0,0.0,0.0,0.0,0.0,0.0,0.0,0.0,0.0,0.0,0.0,0.0,0.0,0.0,0.0,0.0,0.0,0.0,0.0,0.0,0.0,0.0,0.0,0.0,0.0,0.0,0.0,0.0,0.0,0.0,0.0,0.0,0.0,0.0,0.0,0.0,0.0,0.0,0.0,0.0,0.0,0.0,0.0,0.0,0.0,0.0,0.0,0.0,0.0,0.0,0.0,0.0,0.0,0.0,0.0,0.0,0.0,0.0,0.0,0.0,0.0,0.0,0.0,0.0,0.0,0.0,0.0,0.0,0.0,0.0,0.0,0.0,0.0,0.0,0.0,0.0,0.0,0.0,0.0,0.0,0.0,0.0,0.0,0.0,0.0,0.0,0.0,0.0,0.0,0.0,0.0,0.0,0.0,0.0,0.0,0.0,0.0,0.0,0.0,0.0,0.0,0.0,0.0,0.0,0.0,0.0,0.0,0.0,0.0,0.0,0.0,0.0,0.0,0.0,0.0,0.0,0.0,0.0,0.0,0.0,0.0,0.0,0.0,0.0,0.0,0.0,0.0,0.0,0.0,0.0,0.0,0.0,0.0,0.0,0.0,0.0,0.0,0.0,0.0,0.0,0.0,0.0,0.0,0.0,0.0,0.0,0.0,0.0,0.0,0.0,0.0,0.0,0.0,0.0,0.0,0.0,0.0,0.0,0.0,0.0,0.0,0.0,0.0,0.0,0.0,0.0,0.0,0.0,0.0,0.0,0.0,0.0,0.0,0.0,0.0,0.0,0.0,0.0,0.0,0.0,0.0,0.0,0.0,0.0,0.0,0.0,0.0,0.0,0.0,0.0,0.0,0.0,0.0,0.0,0.0,0.0,0.0,0.0,0.0,0.0,0.0,0.0,0.0,0.0,0.0,0.0,0.0,0.0,0.0,0.0,0.0,0.0,0.0,0.0,0.0,0.0,0.0,0.0,0.0,0.0,0.0,0.0,0.0,0.0,2.8477,2.8728,0.0,0.0,0.0,0.0,0.0,0.0,0.0,0.0,0.0,0.0,0.0,0.0,0.0,0.0,0.0,0.0,0.0,0.0,0.0,0.0,0.0,0.0,0.0,0.0,0.0,0.0,0.0,0.0,0.0,0.0,0.0,0.0,0.0,0.0,0.0,0.0,0.0,1.8612,1.9085,1.9513,1.992,1.992,2.0414,2.1262,0.0,0.0,0.0,0.0,0.0,0.0,0.0,0.0,0.0,0.0,0.0,0.0,0.0,0.0,0.0,0.0,0.0,0.0,0.0,0.0,0.0,0.0,0.0,0.0,0.0,0.0,0.0,0.0,0.0,0.0,0.0,0.0,0.0,0.0,0.0,0.0,0.0,0.0,0.0,0.0,0.0,0.0,0.0,0.0,0.0,0.0,0.0,0.0,0.0,0.0,0.0,0.0,0.0,0.0,0.0,0.0,0.0,0.0,0.0,0.0,0.0,0.0,0.0,0.0,0.0,0.0,0.0,0.0,0.0,0.0,2.952,2.969,0.0,0.0,0.0,0.0,0.0,0.0,0.0,0.0,0.0,0.0,0.0,0.0,0.0,0.0,0.0,0.0,0.0,0.0,0.0,0.0,0.0,0.0,0.0,1.552,1.5711,1.6165,1.6281,1.6633,0.0,0.0,0.0,0.0,0.0,0.0,1.7999,1.7999,1.8354,1.9069,1.9235,1.9751,2.0598,2.0438,2.0454,2.0558,1.9694,0.0,0.0,0.0,0.0,0.0,0.0,0.0,0.0,0.0,0.0,0.0,0.0,0.0,0.0,0.0,0.0,0.0,0.0,0.0,0.0,0.0,0.0,0.0,0.0,0.0,0.0,0.0,0.0,0.0,0.0,0.0,0.0,0.0,0.0,0.0,0.0,0.0,0.0,0.0,0.0,0.0,0.0,0.0,0.0,0.0,0.0,0.0,0.0,0.0,0.0,0.0,0.0,0.0,0.0,0.0,0.0,0.0,0.0,0.0,0.0,0.0,0.0,0.0,3.0196,3.0517,3.0487,2.9766,2.9835,3.0517,3.0517,3.0517,3.0442,2.9721,0.0,0.0,0.0,0.0,0.0,0.0,0.0,0.0,0.0,0.0,0.0,0.0,0.0,0.0,0.0,0.0,0.0,0.0,0.0,1.5564,1.596,1.6014,1.6177,1.6586,1.6992,1.728,1.7389,0.0,0.0,0.0,0.0,0.0,1.7999,1.7999,1.8059,1.8168,1.8938,1.9751,2.0582,1.9833,1.9879,2.0558,1.9694,1.9356,1.9521,0.0,0.0,0.0,0.0,0.0,0.0,0.0,0.0,0.0,0.0,0.0,0.0,0.0,0.0,0.0,0.0,0.0,0.0,0.0,0.0,0.0,0.0,0.0,0.0,0.0,0.0,0.0,0.0,0.0,0.0,0.0,0.0,0.0,0.0,0.0,0.0,0.0,0.0,0.0,0.0,0.0,2.5098,2.5098,0.0,0.0,0.0,0.0,0.0,0.0,0.0,0.0,0.0,0.0,0.0,0.0,0.0,2.7472,2.8073,2.8953,2.9659,3.0192,3.097,3.1343,3.1343,3.1219,3.1227,3.1343,3.1343,0.0,3.1336,3.1219,0.0,0.0,0.0,0.0,0.0,0.0,0.0,0.0,0.0,0.0,0.0,0.0,0.0,0.0,0.0,0.0,0.0,0.0,0.0,0.0,0.0,1.6436,1.6603,1.7061,1.7284,1.7507,1.7715,1.7902,0.0,0.0,0.0,1.7999,1.7999,1.7999,1.8244,1.8729,1.9603,1.9977,1.9854,1.948,1.9233,1.9127,1.8737,1.8846,1.929,1.9185,0.0,0.0,0.0,0.0,0.0,0.0,0.0,0.0,0.0,0.0,0.0,0.0,0.0,0.0,0.0,0.0,0.0,0.0,0.0,0.0,0.0,0.0,0.0,0.0,0.0,0.0,0.0,0.0,0.0,0.0,0.0,0.0,0.0,0.0,0.0,0.0,0.0,0.0,0.0,2.5883,2.6293,2.5488,2.573,2.5813,0.0,0.0,0.0,0.0,0.0,0.0,0.0,0.0,0.0,2.8473,2.8872,2.9414,3.0059,3.0397,3.0719,3.0984,3.1336,3.1503,3.1503,3.1503,3.1503,3.1503,3.1503,3.1503,3.1503,3.1503,3.1503,3.1503,0.0,0.0,0.0,0.0,3.1503,3.1503,0.0,0.0,0.0,0.0,0.0,0.0,0.0,0.0,0.0,0.0,0.0,0.0,1.6832,1.6879,1.7054,1.751,1.7547,1.7684,1.798,1.7999,1.7999,1.7999,1.7999,1.7999,1.7999,1.7999,1.832,1.8969,1.962,1.9603,1.8969,1.8969,1.8612,1.7999,1.7999,1.8352,1.8919,1.8278,1.7999,1.7999,0.0,0.0,0.0,0.0,0.0,0.0,0.0,0.0,0.0,0.0,0.0,0.0,0.0,0.0,0.0,0.0,0.0,0.0,0.0,0.0,0.0,0.0,0.0,0.0,0.0,0.0,0.0,0.0,0.0,0.0,0.0,0.0,0.0,0.0,0.0,0.0,0.0,2.7267,2.7649,2.6599,2.6919,2.7025,0.0,0.0,0.0,0.0,0.0,0.0,2.8648,2.9403,2.986,2.9944,3.047,3.0994,3.1503,3.1503,3.1503,3.1503,3.1503,3.1503,3.1503,3.1503,3.1503,3.1503,3.1503,3.1503,3.1503,3.1503,3.1503,3.1503,3.1503,3.1503,3.1503,3.1503,3.1503,3.1503,0.0,0.0,0.0,0.0,0.0,0.0,0.0,0.0,0.0,0.0,0.0,1.6849,1.7313,1.736,1.7528,1.7931,1.797,1.798,1.7999,1.7999,1.7999,1.7999,1.7999,1.7999,1.7999,1.7999,1.8016,1.8076,1.8118,1.811,1.8076,1.8076,1.8042,1.7999,1.7999,1.8025,1.8059,1.8016,1.7999,1.7999,1.7999,0.0,0.0,0.0,0.0,0.0,0.0,0.0,0.0,0.0,0.0,0.0,0.0,0.0,0.0,0.0,0.0,0.0,0.0,0.0,0.0,0.0,0.0,0.0,0.0,0.0,0.0,0.0,0.0,0.0,0.0,0.0,0.0,0.0,0.0,0.0,0.0,0.0,0.0,2.9394,2.9423,0.0,0.0,0.0,0.0,2.8352,2.8388,2.8677,2.932,3.0045,3.0733,3.137,3.1429,3.1466,3.1503,3.1503,3.1503,3.1503,3.1503,3.1503,3.1503,3.1503,3.1503,3.1503,3.1503,3.1503,3.1503,3.1503,3.1503,3.1503,3.1503,3.1503,3.1503,3.1503,3.1503,3.1503,0.0,0.0,0.0,0.0,0.0,0.0,0.0,0.0,1.6991,1.7823,1.7468,1.7314,1.7744,1.7793,1.7833,1.799,1.7999,1.7999,1.7999,1.7999,1.7999,1.7999,1.7999,1.7999,1.7999,1.8554,1.8563,1.7999,1.7999,1.7999,1.7999,1.7999,1.7999,1.7999,1.7999,1.7999,1.7999,1.7999,1.7999,1.7999,1.7999,1.7999,0.0,0.0,0.0,0.0,0.0,0.0,0.0,0.0,0.0,0.0,0.0,0.0,0.0,0.0,0.0,0.0,0.0,0.0,0.0,0.0,0.0,0.0,0.0,0.0,0.0,0.0,0.0,0.0,0.0,0.0,0.0,0.0,0.0,0.0,0.0,0.0,0.0,2.9645,2.9937,0.0,2.9645,2.9695,2.975,2.975,3.0156,3.0496,3.074,3.1,3.1256,3.1488,3.1503,3.1503,3.1503,3.1503,3.1503,3.1503,3.1503,3.1503,3.1503,3.1503,3.1503,3.1503,3.1503,3.1503,3.1503,3.1503,3.1503,3.1503,3.1503,3.1503,3.1503,3.1503,3.1503,3.1503,0.0,0.0,0.0,0.0,0.0,0.0,0.0,1.7422,1.7443,1.8289,1.7932,1.7705,1.797,1.7999,1.7999,1.7999,1.7999,1.7999,1.7999,1.7999,1.7999,1.7999,1.8286,1.858,1.8871,1.9439,1.9307,1.8437,1.8437,1.8295,1.7999,1.7999,1.7999,1.7999,1.7999,1.7999,1.7999,1.7999,1.7999,1.7999,1.7999,1.7999,1.7999,0.0,0.0,0.0,0.0,0.0,0.0,0.0,0.0,0.0,0.0,0.0,0.0,0.0,0.0,0.0,0.0,0.0,0.0,0.0,0.0,0.0,0.0,0.0,0.0,0.0,0.0,0.0,0.0,0.0,0.0,0.0,0.0,0.0,0.0,3.044,3.0695,3.0298,3.0583,3.068,3.0283,3.0598,3.0837,3.0837,3.1249,3.1503,3.1503,3.1503,3.1503,3.1503,3.1503,3.1503,3.1503,3.1503,3.1503,3.1503,3.1503,3.1503,3.1503,3.1503,3.1503,3.1503,3.1503,3.1503,3.1503,3.1503,3.1503,3.1503,3.1503,3.1503,3.1503,3.1503,3.1503,3.1503,0.0,0.0,0.0,0.0,0.0,0.0,1.746,1.7769,1.8008,1.8042,1.8016,1.7999,1.7999,1.7999,1.7999,1.7999,1.8025,1.8025,1.7999,1.8025,1.8025,1.7999,1.8827,1.9685,2.0502,2.055,2.0131,1.9268,1.9268,1.8829,1.7999,1.7999,1.7999,1.7999,1.7999,1.7999,1.7999,1.7999,1.7999,1.7999,1.7999,1.7999,1.7999,0.0,0.0,0.0,0.0,0.0,0.0,0.0,0.0,0.0,0.0,0.0,0.0,0.0,0.0,0.0,0.0,0.0,0.0,0.0,0.0,0.0,0.0,0.0,0.0,0.0,0.0,0.0,0.0,0.0,0.0,0.0,0.0,0.0,3.0506,3.1084,3.1503,3.1503,3.1474,3.1467,3.1503,3.1474,3.1467,3.1503,3.1503,3.1496,3.1452,3.1452,3.1452,3.1452,3.1452,3.1452,3.1452,3.1496,3.1496,3.1452,3.1496,3.1503,3.1503,3.1503,3.1503,3.1503,3.1503,3.1503,3.1503,3.1503,3.1503,3.1503,3.1503,3.1503,3.1503,3.1503,3.1503,3.1503,0.0,0.0,0.0,0.0,0.0,0.0,1.8678,1.8341,1.8227,1.8852,1.8386,1.7999,1.7999,1.7999,1.7999,1.7999,1.858,1.867,1.8042,1.8596,1.8662,1.8025,1.8827,1.9119,1.8721,1.9323,1.9235,1.8352,1.8352,1.8227,1.7999,1.7999,1.7999,1.7999,1.7999,1.7999,1.7999,1.7999,1.7999,1.7999,1.7999,1.7999,1.7999,0.0,0.0,0.0,0.0,0.0,0.0,0.0,0.0,0.0,0.0,0.0,0.0,0.0,0.0,0.0,0.0,0.0,0.0,0.0,0.0,0.0,0.0,0.0,0.0,0.0,0.0,0.0,0.0,0.0,0.0,0.0,3.0792,3.1174,3.1213,3.1384,3.1503,3.1503,3.0992,3.0859,3.1438,3.0977,3.0866,3.1452,3.1503,3.1248,3.0659,3.0629,3.0629,3.0629,3.0629,3.0629,3.0629,3.1212,3.1212,3.0636,3.1219,3.1503,3.1503,3.1503,3.1503,3.1503,3.1503,3.1503,3.1503,3.1503,3.1503,3.1503,3.1503,3.1503,3.1503,3.1503,3.1503,3.1503,0.0,0.0,0.0,0.0,0.0,0.0,1.8679,1.8337,1.8176,1.8687,1.8312,1.8134,1.8504,1.8536,1.8687,1.9061,1.9226,1.9233,1.9102,1.9216,1.9069,1.8571,1.9027,1.9235,1.9094,1.9595,1.9414,1.8536,1.8536,1.8352,1.7999,1.7999,1.7999,1.7999,1.7999,1.7999,1.7999,1.7999,1.7999,1.7999,1.7999,1.7999,1.7999,1.7999,1.8312,1.8754,1.8754,1.9634,2.0727,2.0228,0.0,0.0,0.0,0.0,0.0,0.0,0.0,0.0,0.0,0.0,0.0,0.0,0.0,0.0,0.0,0.0,0.0,0.0,0.0,0.0,0.0,0.0,0.0,0.0,3.0984,3.1503,3.1503,3.1212,3.0999,3.0999,3.0584,3.0487,3.0955,3.0569,3.0337,3.0442,3.0442,3.0253,2.9789,2.9766,2.9766,2.9766,3.0103,3.0118,2.9766,3.0584,3.0762,3.0314,3.0777,3.1175,3.1503,3.1503,3.1503,3.1503,3.1503,3.1503,3.1503,3.1503,3.1503,3.1503,0.0,0.0,0.0,0.0,3.1675,3.1914,0.0,0.0,0.0,0.0,0.0,0.0,1.7999,1.7999,1.7999,1.7999,1.8093,1.8437,1.9226,1.9299,1.9601,2.0389,1.9751,1.9636,2.0398,1.9644,1.9152,1.9152,1.9152,1.9521,2.0293,2.0309,1.9939,1.9152,1.9152,1.8754,1.7999,1.7999,1.7999,1.7999,1.7999,1.7999,1.7999,1.7999,1.7999,1.7999,1.7999,1.7999,1.7999,1.7999,1.8059,1.8159,1.8261,1.8854,1.9612,1.9699,0.0,0.0,0.0,0.0,0.0,0.0,0.0,0.0,0.0,0.0,0.0,0.0,0.0,0.0,0.0,0.0,0.0,0.0,0.0,0.0,0.0,0.0,0.0,0.0,3.0896,3.1336,3.1227,3.0524,3.0072,3.0284,3.0125,3.0049,3.0133,3.0057,2.9721,2.905,2.9002,2.8963,2.886,2.8852,0.0,0.0,0.0,2.9636,2.886,2.9713,3.0095,3.0011,3.0103,3.0532,3.1219,3.1219,3.1263,3.1365,3.1365,3.1416,3.1503,3.1503,3.1533,3.1615,3.1525,3.1548,3.1615,3.1615,3.2041,3.2602,0.0,0.0,0.0,0.0,0.0,0.0,1.7999,1.7999,1.7999,1.7999,1.8613,1.911,1.9274,1.9299,1.9365,1.9538,1.9398,1.9365,1.9546,1.8737,1.8252,1.8252,1.8252,1.8337,1.8504,1.8504,1.842,1.8252,1.8252,1.8169,1.7999,1.7999,1.7999,1.7999,1.7999,1.7999,1.7999,1.7999,1.7999,1.7999,1.7999,1.7999,1.7999,1.7999,1.8437,1.9144,1.9838,2.0663,2.1498,2.2156,2.259,2.2869,2.2869,2.3307,0.0,0.0,0.0,0.0,0.0,0.0,0.0,0.0,0.0,0.0,0.0,0.0,0.0,0.0,0.0,0.0,0.0,0.0,0.0,3.0269,3.0427,3.0291,2.9574,2.874,2.8724,3.0125,2.9066,2.8476,2.9184,2.862,2.8419,2.8963,2.9002,2.8692,2.7986,2.7945,2.7945,2.7945,2.8108,2.8125,2.7945,2.882,2.8899,2.8214,2.8923,0.0,2.9481,2.9481,2.9873,3.0532,3.0532,3.0896,3.1503,3.1503,3.1817,3.225,3.1705,3.1832,3.231,3.231,3.2729,3.3305,0.0,0.0,0.0,0.0,0.0,0.0,1.7999,1.7999,1.7999,1.7999,1.8762,1.9464,1.9895,1.9944,2.0131,2.0558,2.0196,1.9579,1.8712,1.8645,1.8462,1.8016,1.7999,1.7999,1.7999,1.7999,1.7999,1.7999,1.7999,1.7999,1.7999,1.7999,1.7999,1.7999,1.7999,1.7999,1.7999,1.7999,1.7999,1.7999,1.7999,1.7999,1.7999,1.7999,1.8269,1.8712,1.9144,1.9854,2.0663,2.1057,2.1961,2.2902,2.2902,2.3593,2.4348,0.0,0.0,0.0,0.0,0.0,0.0,0.0,0.0,0.0,0.0,0.0,0.0,0.0,0.0,2.7095,2.7095,0.0,2.9002,2.9002,2.9721,2.9996,2.9121,2.8628,2.8508,2.8955,2.8239,2.7863,2.8306,2.7961,2.7711,2.7753,2.7753,2.7554,2.712,2.7095,2.7095,2.7095,2.7492,2.7517,2.7095,2.7929,2.8133,2.7711,2.8141,2.858,2.9002,2.9002,2.9239,2.9644,2.9644,3.0029,3.0712,3.1475,3.2262,3.2976,3.2632,3.2714,3.2998,3.2998,3.3425,3.3994,0.0,0.0,0.0,0.0,0.0,0.0,0.0,1.7999,1.7999,1.7999,1.8762,1.957,2.0268,2.0349,2.0558,2.1104,2.0502,1.9505,1.8093,1.8662,1.8729,1.8025,1.7999,1.7999,1.7999,1.7999,1.7999,1.7999,1.7999,1.7999,1.7999,1.7999,1.7999,1.7999,1.7999,1.7999,1.7999,1.7999,1.7999,1.8009,1.8097,1.8126,1.8136,1.8214,1.8146,1.8026,1.8283,1.8944,1.9753,1.9995,2.1435,2.3067,2.2878,2.3798,2.4897,2.4598,2.4721,0.0,0.0,0.0,0.0,0.0,0.0,0.0,0.0,2.6508,2.6508,2.6508,2.6624,2.6688,2.6521,2.7292,2.7896,2.7736,2.8883,2.9551,2.8852,2.8612,2.8255,2.7546,2.7476,2.7476,2.7476,2.7476,2.7204,2.6547,2.6508,2.6558,2.665,2.6659,2.6659,2.6659,2.7279,2.7262,2.6516,2.7137,2.7476,2.7476,2.7476,2.7888,2.8676,2.8676,2.8812,2.909,2.9235,2.9551,3.005,3.1297,3.2331,3.3129,3.3129,3.3319,3.361,3.367,3.4113,3.4682,0.0,0.0,0.0,0.0,0.0,0.0,0.0,0.0,1.7999,1.7999,1.8762,1.934,1.9431,1.9447,1.9177,1.8496,1.8354,1.8202,1.8008,1.8093,1.8101,1.7999,1.7999,1.7999,1.7999,1.7999,1.7999,1.7999,1.7999,1.7999,1.7999,1.7999,1.7999,1.7999,1.7999,1.7999,1.7999,1.7999,1.7999,1.803,1.8392,1.8529,1.8587,1.8994,1.8672,1.815,1.9276,2.0321,2.1341,2.2475,2.3618,2.4409,2.3505,2.4286,2.5232,2.3874,2.4438,2.5511,2.5511,2.5904,2.6323,2.6386,2.6457,2.6508,0.0,2.6508,2.6508,2.6508,2.7061,2.7351,2.6632,2.7794,2.8596,2.7835,2.7855,2.7961,2.7855,2.7229,2.6739,2.6658,2.6632,2.6632,2.6632,2.6632,2.6598,2.6516,2.6508,2.6713,2.7185,2.7211,2.7211,2.7211,2.7295,2.7064,2.6508,2.6589,2.6632,2.6632,2.6632,2.6928,2.7484,2.7484,2.8165,2.9393,3.0108,3.0461,3.0516,3.0695,3.1183,3.1805,3.1805,3.2693,3.3972,3.4283,3.4809,3.5385,0.0,0.0,0.0,0.0,0.0,0.0,0.0,0.0,1.7999,1.7999,1.8762,1.9299,1.9299,1.9299,1.8944,1.8076,1.7999,1.7999,1.7999,1.7999,1.7999,1.7999,1.7999,1.7999,1.7999,1.7999,1.7999,1.7999,1.7999,1.7999,1.7999,1.7999,1.7999,1.8009,1.8236,1.8353,1.8363,1.8634,1.8759,1.8769,1.8936,1.9005,1.9033,1.9228,1.9062,1.8832,1.9363,1.9821,0.0,2.0794,2.1793,2.285,2.3026,2.4068,2.5235,2.5178,2.5621,2.6126,2.6126,2.6311,2.6508,2.6508,2.6508,2.6508,2.6508,2.6508,2.6508,2.6508,2.6773,2.6896,2.6555,2.7061,2.7434,2.7066,2.7392,2.7537,2.7061,2.7382,2.7494,2.7017,2.7236,2.7311,2.6993,2.6968,2.7094,2.7412,2.7437,2.7528,2.7745,2.7767,2.7767,2.7767,2.7767,2.7666,2.7428,2.7437,2.7437,2.7437,2.7437,2.7553,2.7767,2.7767,2.8088,2.8682,2.9333,2.9939,3.0506,3.082,3.1436,3.2176,3.2176,3.2583,3.3274,3.3957,3.4766,3.5496,0.0,0.0,0.0,0.0,0.0,0.0,0.0,0.0,0.0,0.0,1.8554,1.8936,1.8936,1.8936,1.8729,1.8217,1.8175,1.8175,1.8175,1.8175,1.8126,1.8001,1.7999,1.8049,1.8166,1.8175,1.8234,1.8359,1.8359,1.8359,1.8359,1.8359,1.8359,1.837,1.8664,1.8792,1.882,1.9159,1.9296,1.9306,1.9423,1.9472,1.9473,1.9608,1.9657,1.9638,1.9511,1.9646,1.9893,2.0013,2.0907,2.2113,2.2838,2.3958,2.5141,2.5865,2.628,2.6508,2.6508,2.6508,2.6508,2.6508,2.6508,2.6508,2.6508,2.6508,2.6508,2.6508,2.6508,2.6508,2.6508,2.6508,2.6508,2.6508,2.699,2.7214,2.6787,2.7562,2.8014,2.7571,2.7858,2.8009,2.7758,2.7604,2.767,2.8072,2.81,2.8163,2.8304,2.8317,2.8317,2.8317,2.8317,2.8251,2.81,2.81,2.81,2.81,2.81,2.8176,2.8326,2.8489,2.8574,2.8599,2.8979,2.9566,3.0267,3.0645,3.1208,3.1829,3.1829,3.1992,3.2303,3.2987,3.3848,3.4739,0.0,0.0,0.0,0.0,0.0,0.0,0.0,0.0,0.0,0.0,0.0,0.0,1.8042,1.8042,1.8191,1.8558,1.8588,1.8588,1.8588,1.8588,1.8411,1.8019,1.7999,1.8176,1.8568,1.8588,1.8801,1.9257,1.9257,1.9257,1.9257,1.9257,1.9257,1.9257,1.9277,1.9277,1.9277,1.9286,1.9296,1.9325,1.9717,1.9874,1.9932,2.039,2.0566,2.0498,2.0049,2.0508,2.1399,2.1782,2.2595,2.3437,2.3464,2.4181,2.5016,2.5031,2.5742,2.6508,2.6508,2.6508,2.6508,2.6508,2.6508,2.6508,2.6508,2.6508,2.6508,2.6508,2.6508,2.6508,2.6508,2.6508,2.6508,2.6508,2.6512,2.6701,2.7207,2.7312,2.7526,2.8021,2.8088,2.8301,2.8797,2.8389,2.8075,2.81,2.81,2.8326,2.8847,2.8872,2.8872,2.8872,2.8872,2.8631,2.81,2.81,2.81,2.81,2.81,2.8367,2.8897,2.9478,2.9751,2.9751,2.9776,2.9796,2.9825,2.9837,2.9859,2.9876,2.9876,3.0438,3.1254,3.1259,3.1879,3.2828,0.0,0.0,0.0,0.0,0.0,0.0,0.0,0.0,0.0,0.0,0.0,0.0,0.0,0.0,0.0,0.0,1.9063,1.9063,1.9063,1.9063,1.8995,1.8876,1.8857,1.8926,1.9062,1.9063,1.9141,1.9296,1.9296,1.9296,1.9296,1.9296,1.9296,1.9306,1.958,1.9707,1.9727,2.0029,2.0165,2.0175,2.0312,2.0361,2.0381,2.0537,2.0605,2.0576,0.0,2.0572,2.0887,2.1038,2.1308,2.1802,2.3091,2.3736,2.4273,2.5599,2.6224,2.6508,2.6508,2.6508,2.6508,2.6508,2.6508,2.6508,2.6508,2.6508,2.6508,2.6508,2.6508,2.6508,2.6508,2.6508,2.6508,2.6508,2.6801,2.7085,2.7273,2.7908,2.843,2.8618,2.8979,2.9302,2.9478,2.8969,2.8803,2.9202,2.9227,2.9315,2.949,2.9503,2.9503,2.9503,2.9503,2.9405,2.9227,2.9227,2.9227,2.9227,2.9227,2.9327,2.9493,2.9704,2.9801,2.9801,2.9801,2.9801,2.9801,2.9801,2.9801,2.9801,2.9801,2.9988,3.027,3.027,3.0466,3.0977,0.0,0.0,0.0,0.0,0.0,0.0,0.0,0.0,0.0,0.0,0.0,0.0,0.0,0.0,0.0,0.0,0.0,1.9512,1.9512,1.9512,1.9443,1.9315,1.9296,1.9365,1.9512,1.9512,1.9599,1.9765,1.9765,1.9765,1.9765,1.9765,1.9765,1.9774,2.0029,2.0146,2.0175,2.0468,2.0605,2.0605,2.0605,2.0605,2.0605,2.0605,2.0605,0.0,2.0605,2.0605,2.0605,2.0605,2.0818,2.1375,2.299,2.3988,2.4829,2.612,2.6508,2.6508,2.6508,2.6508,2.6508,2.6508,2.6508,2.6508,2.6508,2.6508,2.6508,2.6508,2.6508,2.6508,2.6508,2.6508,2.6508,2.6508,2.6943,2.7374,2.7553,2.8342,2.8972,2.9195,2.9556,2.9801,2.9801,2.9443,2.938,2.9767,2.9801,2.9801,2.9801,2.9801,2.9801,2.9801,2.9801,2.9801,2.9801,2.9801,2.9801,2.9801,2.9801,2.9801,2.9801,2.9801,2.9801,2.9801,2.9801,2.9801,2.9801,2.9801,2.9801,2.9801,2.9801,2.9801,2.9801,2.9801,2.9801,3.0065,0.0,0.0,0.0,0.0,0.0,0.0,0.0,0.0,0.0,0.0,0.0,0.0,0.0,0.0,0.0,0.0,0.0,0.0,1.9942,1.9942,1.9766,1.9374,1.9374,1.955,1.9932,1.9942,2.0146,2.0605,2.0605,2.0605,2.0605,2.0605,2.0605,2.0605,2.0605,2.0605,2.0605,2.0605,2.0605,2.0605,2.0605,2.0605,2.0605,2.0605,2.0605,2.0605,2.0605,2.0605,2.0605,2.0605,2.126,2.2253,2.3257,2.4918,2.6508,2.6508,2.6508,2.6508,2.6508,2.6508,2.6508,2.6508,2.6508,2.6508,2.6508,2.6508,2.6508,2.6508,2.6508,2.6508,2.6508,2.6508,2.6508,2.6508,2.6968,2.7516,2.8034,2.8593,2.9157,2.9739,2.9801,2.9801,2.9801,2.9801,2.9801,2.9801,2.9801,2.9801,2.9801,2.9801,2.9801,2.9801,2.9801,2.9801,2.9801,2.9801,2.9801,2.9801,2.9801,2.9801,2.9801,2.9801,2.9801,2.9801,2.9801,2.9801,2.9801,2.9801,2.9801,2.9801,2.9801,2.9801,2.9801,2.9801,2.9801,3.0056,0.0,0.0,0.0,0.0,0.0,0.0,0.0,0.0,0.0,0.0,0.0,0.0,0.0,0.0,0.0,0.0,0.0,0.0,2.042,2.042,2.038,2.0273,2.0273,2.0322,2.042,2.042,2.0478,2.0605,2.0605,2.0605,2.0605,2.0605,2.0605,2.0605,2.0605,2.0605,2.0605,2.0605,2.0605,2.0605,2.0605,2.0605,2.0605,2.0605,2.0605,2.0605,2.0605,2.0605,2.0605,2.0605,2.1717,2.3285,2.4301,2.5485,2.6508,2.6508,2.6508,2.6508,2.6508,2.6508,2.6508,2.6508,2.6508,2.6508,2.6508,2.6508,2.6508,2.6508,2.6508,2.6508,2.6508,2.6508,2.6508,2.6508,2.7286,2.7946,2.8075,2.895,2.9628,2.9789,2.9801,2.9801,2.9801,2.9801,2.9801,2.9801,2.9801,2.9801,2.9801,2.9801,2.9801,2.9801,2.9801,2.9801,2.9801,2.9801,2.9801,2.9801,2.9801,2.9801,2.9801,2.9801,2.9801,2.9801,2.9801,2.9801,2.9801,2.9801,2.9801,2.9801,2.9801,2.9801,2.9801,2.9801,2.9801,2.9972,0.0,0.0,0.0,0.0,0.0,0.0,0.0,0.0,0.0,0.0,0.0,0.0,0.0,0.0,0.0,0.0,0.0,0.0,0.0,2.0605,2.0605,2.0605,2.0605,2.0605,2.0605,2.0605,2.0605,2.0605,2.0605,2.0605,2.0605,2.0605,2.0605,2.0605,2.0605,2.0605,2.0605,2.0605,2.0605,0.0,0.0,2.0605,2.0605,2.0605,2.0605,2.0605,2.0605,2.0857,2.1279,2.1717,2.2601,2.3754,2.5199,2.6051,2.6508,2.6508,2.6508,2.6508,2.6508,2.6508,2.6508,2.6508,2.6508,2.6508,2.6508,2.6508,2.6508,2.6508,2.6508,2.6508,2.6508,2.6508,2.6508,2.6508,2.7403,2.81,2.81,2.9076,2.9801,2.9801,2.9801,2.9801,2.9801,2.9801,2.9801,2.9801,2.9801,2.9801,2.9801,2.9801,2.9801,2.9801,2.9801,2.9801,2.9801,2.9801,2.9801,2.9801,2.9801,2.9801,2.9801,2.9801,2.9801,2.9801,2.9801,2.9801,2.9801,2.9801,2.9801,2.9801,2.9801,2.9801,2.9801,2.9801,2.9942,3.0221,0.0,0.0,0.0,0.0,0.0,0.0,0.0,0.0,0.0,0.0,0.0,0.0,0.0,0.0,0.0,0.0,0.0,0.0,0.0,0.0,2.0605,2.0605,2.0605,2.0605,2.0605,2.0605,2.0605,2.0605,2.0605,2.0605,2.0605,2.0605,2.0605,2.0605,2.0605,2.0605,2.0605,2.0605,2.0605,2.0605,2.0605,2.0605,2.0605,0.0,2.0605,2.0605,2.0605,2.1116,2.199,2.3119,2.3588,2.4027,2.5908,2.6508,2.6508,2.6508,2.6508,2.6508,2.6508,2.6508,2.6508,2.6508,2.6508,2.6508,2.6508,2.6508,2.6508,2.6508,2.6508,2.6508,2.6508,2.6508,2.6508,2.6508,2.7336,2.8021,2.8088,2.9013,2.9704,2.9789,2.9801,2.9801,2.9801,2.9801,2.9801,2.9801,2.9801,2.9801,2.9801,2.9801,2.9801,2.9801,2.9801,2.9801,2.9801,2.9801,2.9801,2.9801,2.9801,2.9801,2.9801,2.9801,2.9801,2.9801,2.9801,2.9801,2.9801,2.9801,2.9801,2.9814,2.988,2.9914,2.9905,2.999,3.0306,3.0711,0.0,0.0,0.0,0.0,0.0,0.0,0.0,0.0,0.0,0.0,2.0478,2.0507,0.0,0.0,0.0,0.0,0.0,0.0,0.0,0.0,0.0,2.0605,2.0605,2.0605,2.0605,2.0605,2.0605,2.0605,2.0605,2.0605,2.0605,2.0605,2.0605,2.0605,2.0605,2.0605,2.0605,2.0605,2.0605,2.0605,2.0605,2.0605,2.0605,2.0605,0.0,0.0,2.0605,2.0692,2.1126,2.2897,2.4045,2.4951,2.6129,2.6508,2.6508,2.6508,2.6508,2.6508,2.6508,2.6508,2.6508,2.6508,2.6508,2.6508,2.6508,2.6508,2.6508,2.6508,2.6508,2.6508,2.6508,2.6508,2.6508,2.6508,2.7031,2.7591,2.8047,2.8643,2.9233,2.9739,2.9801,2.9801,2.9801,2.9801,2.9801,2.9801,2.9801,2.9801,2.9801,2.9801,2.9801,2.9801,2.9801,2.9801,2.9801,2.9801,2.9801,2.9801,2.9801,2.9801,2.9801,2.9801,2.9801,2.9801,2.9801,2.9801,2.9801,2.9801,2.9801,2.9842,3.0284,3.046,3.051,3.0959,3.1183,3.1258,0.0,0.0,0.0,0.0,0.0,0.0,0.0,0.0,2.0605,2.0605,2.0605,2.0605,2.0605,2.0605,0.0,0.0,0.0,0.0,0.0,0.0,0.0,2.0605,2.0605,2.0605,2.0605,2.0605,2.0605,2.0605,0.0,2.0605,2.0605,2.0605,2.0605,2.0605,2.0605,2.0605,2.0605,2.0605,2.0605,2.0605,2.0605,2.0605,2.0605,2.0605,0.0,0.0,2.0605,2.0905,2.1546,2.3008,2.4174,2.5185,2.6181,2.6508,2.6508,2.6508,2.6508,2.6508,2.6508,2.6508,2.6508,2.6508,2.6508,2.6508,2.6508,2.6508,2.6508,2.6508,2.6508,2.6508,2.6508,2.6508,2.6508,2.6508,2.6943,2.7487,2.8025,2.8568,2.912,2.9739,2.9801,2.9801,2.9801,2.9801,2.9801,2.9801,2.9801,2.9801,2.9801,2.9801,2.9801,2.9801,2.9801,2.9801,2.9801,2.9801,2.9801,2.9801,2.9801,2.9952,3.0218,3.0218,3.0369,3.063,3.063,3.063,3.063,3.063,3.063,3.0655,3.0922,3.1022,3.1047,3.1308,3.1585,3.1813,0.0,0.0,0.0,0.0,0.0,0.0,0.0,2.0605,2.0605,2.0605,2.0605,2.0605,2.0605,2.0605,2.0605,0.0,0.0,0.0,0.0,0.0,0.0,0.0,0.0,0.0,2.0605,0.0,0.0,2.0605,2.0605,0.0,0.0,0.0,0.0,0.0,2.0605,2.0605,2.0605,2.0605,2.0605,0.0,0.0,2.0605,2.0605,0.0,0.0,0.0,0.0,2.1068,2.1849,2.2841,2.3845,2.4841,2.5865,2.6332,2.6508,2.6508,2.6508,2.6508,2.6508,2.6508,2.6508,2.6508,2.6508,2.6508,2.6508,2.6508,2.6508,2.6508,2.6508,2.6508,2.6508,2.6508,2.6508,2.6508,2.6943,2.7487,2.8025,2.8568,2.912,2.9739,2.9801,2.9801,2.9801,2.9801,2.9801,2.9801,2.9801,2.9801,2.9801,2.9801,2.9801,2.9801,2.9801,2.9801,2.9801,2.9801,2.9864,2.9967,2.9967,3.0256,3.0773,3.0773,3.0997,3.1396,3.1396,3.1396,3.1396,3.1396,3.1396,3.1409,3.1534,3.1572,3.1597,3.1723,3.2037,3.239,0.0,0.0,0.0,0.0,0.0,0.0,0.0,2.0605,2.0605,2.0605,2.0605,2.0605,2.0605,2.0605,2.0605,0.0,0.0,0.0,0.0,0.0,0.0,0.0,0.0,0.0,0.0,0.0,0.0,2.0605,2.0605,0.0,0.0,0.0,0.0,0.0,0.0,2.0605,2.0605,2.0605,0.0,0.0,0.0,0.0,0.0,0.0,0.0,0.0,0.0,2.0663,2.0866,2.182,2.2813,2.3818,2.4814,2.576,2.6508,2.6508,2.6508,2.6508,2.6508,2.6508,2.6508,2.6508,2.6508,2.6508,2.6508,2.6508,2.6508,2.6508,2.6508,2.6508,2.6508,2.6508,2.6508,2.6508,2.6943,2.7487,2.8025,2.8568,2.912,2.9739,2.9801,2.9801,2.9801,2.9801,2.9801,2.9801,2.9801,2.9801,2.9801,2.9801,2.9801,2.9801,2.9801,2.9801,2.9801,2.9801,3.0043,3.0535,3.0535,3.0811,3.1333,3.1333,3.1359,3.1396,3.1396,3.1396,3.1396,3.1396,3.1396,3.1446,3.1938,3.2129,3.2192,3.274,3.2966,3.3027,0.0,0.0,0.0,0.0,0.0,0.0,2.0605,2.0605,2.0605,2.0605,2.0605,2.0605,2.0605,2.0605,2.0605,0.0,0.0,0.0,0.0,0.0,0.0,0.0,0.0,0.0,0.0,0.0,2.0605,2.0605,2.0605,0.0,0.0,0.0,0.0,0.0,0.0,2.0605,2.0605,2.0605,0.0,0.0,0.0,0.0,0.0,0.0,0.0,0.0,0.0,0.0,2.0741,2.1688,2.2674,2.3681,2.468,2.5273,2.5725,2.6323,2.6508,2.6508,2.6508,2.6508,2.6508,2.6508,2.6508,2.6508,2.6508,2.6508,2.6508,2.6508,2.6508,2.6508,2.6508,2.6508,2.6608,2.693,2.716,2.7604,2.8455,2.8769,2.912,2.9739,2.9801,2.9801,2.9801,2.9801,2.9801,2.9801,2.9801,2.9801,2.9801,2.9801,2.9801,2.9801,2.9801,2.9801,2.9801,3.0118,3.0397,3.06,3.0934,3.1361,3.1888,3.1888,3.2087,3.2424,3.2424,3.2424,3.2424,3.2424,3.2424,3.2439,3.2665,3.274,3.2765,3.3014,3.3102,3.3102,0.0,0.0,0.0,0.0,0.0,2.0605,2.0605,2.0605,2.0605,2.0605,2.0605,2.0605,2.0605,2.0605,2.0605,2.0605,0.0,0.0,0.0,0.0,0.0,0.0,0.0,0.0,0.0,0.0,2.0605,2.0605,2.0605,2.0605,0.0,0.0,2.0605,2.0605,0.0,0.0,0.0,0.0,0.0,0.0,0.0,0.0,0.0,0.0,0.0,0.0,0.0,0.0,0.0,0.0,0.0,2.3626,2.4337,2.4969,2.5573,2.6297,2.6297,2.612,2.6418,2.6508,2.6508,2.6508,2.6508,2.6508,2.6508,2.6508,2.6508,2.6508,2.6508,2.6508,2.6508,2.6625,2.6855,2.7236,2.7566,2.8047,2.8797,2.9048,2.933,2.9751,2.9801,2.9801,2.9801,2.9801,2.9801,2.9801,2.9801,2.9801,2.9801,2.9801,2.9801,2.9801,2.9801,2.988,3.004,3.0409,3.0751,3.1087,3.1461,3.1926,3.2466,3.2466,3.2702,3.3102,3.3102,3.3102,3.3102,3.3102,3.3102,3.3102,3.3102,3.3102,3.3102,3.3102,3.3102,3.3102,0.0,0.0,0.0,0.0,0.0,0.0,0.0,2.0605,2.0605,2.0605,2.0605,2.0605,2.0605,2.0605,2.0605,2.0605,0.0,0.0,0.0,0.0,0.0,0.0,0.0,0.0,0.0,0.0,2.0605,2.0605,2.0605,2.0605,2.0605,2.0605,2.0605,2.0605,0.0,0.0,0.0,0.0,0.0,0.0,0.0,0.0,0.0,0.0,0.0,0.0,0.0,0.0,0.0,0.0,0.0,0.0,0.0,2.4883,2.6491,2.6508,2.5795,2.5229,2.6237,2.6508,2.6508,2.6508,2.6508,2.6508,2.6508,2.6508,2.6508,2.6508,2.6508,2.6508,2.6508,2.693,2.7286,2.7298,2.8188,2.8885,2.8897,2.9405,2.9789,2.9801,2.9801,2.9801,2.9801,2.9801,2.9801,2.9801,2.9801,2.9801,2.9801,2.9801,2.9801,2.9801,2.9801,3.0055,3.0598,3.06,3.1137,3.2179,3.2192,3.2503,3.309,3.309,3.309,3.3102,3.3102,3.3102,3.3102,3.3102,3.3102,3.3102,3.3102,3.3102,3.3102,3.3102,3.3102,3.3102,0.0,0.0,0.0,0.0,0.0,0.0,0.0,2.0605,2.0605,2.0605,2.0605,2.0605,2.0605,2.0605,2.0605,2.0605,0.0,0.0,0.0,0.0,0.0,0.0,0.0,0.0,0.0,0.0,2.0605,2.0605,2.0605,2.0605,2.0605,2.0605,2.0605,2.0605,2.0605,2.0605,0.0,0.0,0.0,0.0,0.0,0.0,2.0605,0.0,0.0,0.0,0.0,0.0,0.0,0.0,0.0,0.0,0.0,0.0,0.0,2.6297,2.5786,2.522,2.6237,2.5999,2.5646,2.6332,2.6508,2.6508,2.6508,2.6508,2.6508,2.6508,2.6508,2.6612,2.6981,2.7185,2.7541,2.8267,2.8681,2.9035,2.9456,2.9679,2.9801,2.9801,2.9801,2.9801,2.9801,2.9801,2.9801,2.9801,2.9801,2.9801,2.9801,3.0143,3.0181,2.9814,3.0156,3.0435,3.06,3.1326,3.1865,3.2194,3.2627,3.2927,3.3102,3.3102,3.3102,3.3102,3.3102,3.3102,3.3102,3.3102,3.3102,3.3102,3.3102,3.3102,3.3102,3.3102,3.3102,3.3102,0.0,0.0,0.0,0.0,0.0,0.0,0.0,2.0605,2.0605,2.0605,2.0605,2.0605,2.0605,2.0605,2.0605,2.0605,0.0,0.0,0.0,0.0,0.0,0.0,0.0,0.0,0.0,2.0605,2.0605,2.0605,2.0605,2.0605,2.0605,2.0605,2.0605,2.0605,2.0605,2.0605,0.0,0.0,0.0,0.0,0.0,0.0,2.0644,0.0,0.0,0.0,0.0,0.0,0.0,0.0,0.0,0.0,0.0,0.0,0.0,0.0,2.5485,2.522,2.6237,2.6042,2.5725,2.634,2.6508,2.6508,2.6508,2.6508,2.6508,2.6508,2.6663,2.6893,2.7236,2.7629,2.8125,2.8784,2.9095,2.9368,2.9751,2.9801,2.9801,2.9801,2.9801,2.9801,2.9801,2.9801,2.9801,2.9801,2.9801,2.9889,3.0093,3.0422,3.0535,3.0404,3.0733,3.0999,3.12,3.1865,3.2317,3.2541,3.2916,3.3102,3.3102,3.3102,3.3102,3.3102,3.3102,3.3102,0.0,3.3102,3.3102,3.3102,3.3102,3.3102,3.3102,3.3102,3.3102,3.3102,0.0,0.0,0.0,0.0,0.0,0.0,0.0,0.0,2.0605,2.0605,2.0605,2.0605,2.0605,2.0605,2.0605,2.0605,0.0,0.0,0.0,0.0,0.0,0.0,0.0,0.0,0.0,2.0605,2.0605,2.0605,2.0605,2.0605,2.0605,2.0605,2.0605,2.0605,2.0605,2.0605,0.0,0.0,0.0,0.0,0.0,0.0,0.0,0.0,0.0,0.0,0.0,0.0,0.0,0.0,0.0,0.0,0.0,0.0,0.0,0.0,0.0,0.0,0.0,2.6456,2.6409,2.6478,2.6508,2.6508,2.6508,2.6508,0.0,2.6558,2.6955,2.7324,2.7399,2.8226,2.891,2.8969,2.9431,2.9801,2.9801,2.9801,2.9801,2.9801,2.9801,2.9801,2.9801,2.9801,2.9801,2.9801,2.9839,3.0068,3.0563,3.0663,3.0937,3.1446,3.1497,3.1738,3.2192,3.2242,3.2552,3.3102,3.3102,3.3102,3.3102,3.3102,3.3102,3.3102,3.3102,3.3102,3.3102,3.3102,3.3102,3.3102,3.3102,3.3102,3.3102,3.3102,3.3102,3.3102,0.0,0.0,0.0,0.0,0.0,0.0,0.0,0.0,0.0,0.0,2.0605,2.0605,2.0605,2.0605,2.0605,0.0,0.0,0.0,0.0,0.0,0.0,0.0,0.0,0.0,0.0,2.0605,2.0605,2.0605,2.0605,2.0605,2.0605,2.0605,2.0605,2.0605,2.0605,2.0605,0.0,0.0,0.0,0.0,0.0,0.0,0.0,0.0,0.0,0.0,2.2785,2.3147,0.0,0.0,0.0,0.0,0.0,0.0,0.0,0.0,2.6146,2.6198,2.6448,0.0,2.5541,2.6314,2.6508,2.6508,0.0,2.6508,2.6612,2.7031,2.7211,2.7553,2.8367,2.8722,2.9048,2.9506,2.9704,2.9801,2.9801,2.9801,2.9801,2.9801,2.9801,2.9801,2.9801,2.9801,2.9801,2.9801,3.0171,3.0472,3.0588,3.1376,3.1878,3.2003,3.2464,3.2539,3.2204,3.2665,3.2964,3.3102,3.3102,3.3102,3.3102,3.3102,3.3102,3.3102,3.3102,3.3102,3.3102,3.3102,3.3102,3.3102,3.3102,3.3102,3.3102,3.3102,3.3102,3.3102,0.0,0.0,0.0,0.0,0.0,0.0,0.0,0.0,0.0,0.0,0.0,0.0,0.0,0.0,0.0,0.0,0.0,0.0,0.0,0.0,0.0,0.0,0.0,2.0605,2.0605,2.0605,2.0605,2.0605,2.0605,2.0605,2.0605,2.0605,2.0605,2.0605,2.0605,2.0847,0.0,0.0,0.0,0.0,2.1241,0.0,0.0,0.0,0.0,0.0,2.3827,2.4192,0.0,2.4826,2.5672,2.6508,0.0,0.0,0.0,0.0,2.6508,2.6508,2.6508,2.6103,2.5821,2.6357,2.6508,2.6508,2.6508,2.6688,2.6943,2.7236,2.7691,2.8213,2.8797,2.9132,2.9418,2.9751,2.9801,2.9801,2.9801,2.9801,2.9801,2.9801,2.9801,2.9801,2.9801,2.9801,2.9801,2.9801,3.0306,3.0711,3.0949,3.1752,3.234,3.2604,3.2939,3.2941,3.2627,3.2939,3.3102,3.3102,3.3102,3.3102,3.3102,3.3102,3.3102,3.3102,3.3102,3.3102,3.3102,3.3102,3.3102,3.3102,3.3102,3.3102,3.3102,3.3102,3.3102,3.3102,0.0,0.0,0.0,0.0,0.0,0.0,0.0,0.0,0.0,0.0,0.0,0.0,0.0,0.0,0.0,0.0,0.0,0.0,0.0,0.0,0.0,0.0,0.0,2.0605,2.0605,2.0605,2.0605,2.0605,2.0605,2.0605,2.0605,2.0605,2.0605,2.0605,2.0605,2.1039,0.0,0.0,0.0,0.0,2.2168,0.0,0.0,0.0,0.0,0.0,0.0,0.0,0.0,2.5185,2.5795,2.6508,2.6508,0.0,0.0,0.0,0.0,0.0,2.6508,2.6508,2.6508,2.6508,2.6508,2.6512,2.66,2.6968,2.7349,2.7503,2.8276,2.8922,2.9019,2.9456,2.9801,2.9801,2.9801,2.9801,2.9801,2.9801,2.9801,2.9801,2.9801,2.9801,2.9801,2.9801,2.9839,2.9927,3.0419,3.0962,3.1486,3.2039,3.2566,3.3077,3.3102,3.3102,3.3102,3.3102,3.3102,3.3102,3.3102,3.3102,3.3102,3.3102,3.3102,3.3102,3.3102,3.3102,3.3102,3.3102,3.3102,3.3102,3.3102,3.3102,3.3102,3.3102,3.3102,3.3102,0.0,0.0,0.0,0.0,0.0,0.0,0.0,0.0,0.0,0.0,0.0,0.0,0.0,0.0,0.0,0.0,0.0,0.0,0.0,0.0,0.0,0.0,2.0605,2.0605,2.0605,2.0605,2.0605,2.0605,2.0605,2.0605,2.0605,2.0605,2.0605,2.0605,2.0605,2.0673,2.0867,0.0,0.0,0.0,2.2934,0.0,0.0,0.0,0.0,0.0,0.0,0.0,0.0,2.5981,2.6375,2.6508,2.6508,0.0,0.0,0.0,0.0,0.0,2.6508,2.6508,2.6508,2.6508,2.6508,2.6612,2.7072,2.7236,2.7553,2.8467,2.8784,2.9057,2.9566,2.9739,2.9801,2.9801,2.9801,2.9801,2.9801,2.9801,2.9801,2.9801,2.9801,2.9801,2.9801,2.9801,2.9993,3.0447,3.0962,3.1512,3.2041,3.264,3.3002,3.3102,3.3102,3.3102,3.3102,3.3102,3.3102,3.3102,3.3102,3.3102,3.3102,3.3102,3.3102,3.3102,3.3102,3.3102,3.3102,3.3102,3.3102,3.3102,3.3102,3.3102,3.3102,3.3102,3.3102,3.3102,0.0,0.0,0.0,0.0,0.0,0.0,0.0,0.0,0.0,0.0,0.0,0.0,0.0,0.0,0.0,0.0,0.0,0.0,0.0,0.0,0.0,2.0605,2.0605,2.0605,2.0605,2.0605,2.0605,2.0605,2.0605,2.0605,2.0605,2.0605,2.0605,2.0605,2.0605,2.0876,2.1384,2.182,0.0,0.0,0.0,0.0,0.0,0.0,0.0,0.0,0.0,0.0,0.0,0.0,2.6508,2.6508,2.6508,0.0,0.0,0.0,0.0,0.0,2.6508,2.6508,2.6562,2.6855,2.693,2.6993,2.7236,2.7754,2.8292,2.8806,2.9157,2.9478,2.9751,2.9801,2.9801,2.9801,2.9801,2.9801,2.9801,2.9801,2.9801,2.9801,2.9801,2.9801,2.9801,3.0068,3.0334,3.0575,3.1373,3.1938,3.2192,3.2778,3.3102,3.3102,3.3102,3.3102,3.3102,3.3102,3.3102,3.3102,3.3102,3.3102,3.3102,3.3102,3.3102,3.3102,3.3102,3.3102,3.3102,3.3102,3.3102,3.3102,3.3102,3.3102,3.3102,3.3102,3.3102,3.3102,0.0,0.0,0.0,0.0,0.0,0.0,0.0,0.0,0.0,0.0,0.0,0.0,0.0,0.0,0.0,0.0,0.0,0.0,0.0,0.0,2.0605,2.0605,2.0605,2.0605,2.0605,2.0605,2.0605,2.0605,2.0605,2.0605,2.0605,2.0605,2.0605,2.0605,2.0605,2.1116,2.2018,2.2253,2.2804,0.0,0.0,0.0,0.0,0.0,0.0,0.0,0.0,0.0,0.0,0.0,0.0,0.0,0.0,0.0,0.0,2.6508,2.6508,2.6508,2.6508,2.6587,2.6788,2.7207,2.7298,2.7374,2.7616,2.8314,2.8935,2.9082,2.9478,2.9801,2.9801,2.9801,2.9801,2.9801,2.9801,2.9801,2.9801,2.9801,2.9801,2.9801,2.9801,2.9801,2.9801,3.0284,3.0651,3.0773,3.1664,3.2267,3.2392,3.284,3.3102,3.3102,3.3102,3.3102,3.3102,3.3102,3.3102,3.3102,3.3102,3.3102,3.3102,3.3102,3.3102,3.3102,3.3102,3.3102,3.3102,3.3102,3.3102,3.3102,3.3102,3.3102,3.3102,3.3102,3.3102,3.3102,0.0,0.0,0.0,0.0,0.0,0.0,0.0,0.0,0.0,0.0,0.0,0.0,0.0,0.0,0.0,0.0,0.0,0.0,0.0,0.0,2.0605,2.0605,2.0605,2.0605,2.0605,2.0605,2.0605,2.0605,2.0605,2.0605,2.0605,2.0605,2.0605,2.0605,2.0605,2.1116,2.2055,2.2999,2.3432,2.3588,2.46,0.0,0.0,0.0,0.0,0.0,0.0,0.0,0.0,0.0,0.0,0.0,0.0,0.0,2.6508,2.6508,2.6508,2.6508,2.6508,2.6855,2.7248,2.7286,2.7298,2.7566,2.8555,2.8847,2.907,2.9616,2.9767,2.9801,2.9801,2.9801,2.9801,2.9801,2.9801,2.9801,2.9801,2.9801,2.9801,2.9801,2.9801,2.9801,2.9801,3.0284,3.0811,3.1308,3.1888,3.2441,3.3002,3.3077,3.3102,3.3102,3.3102,3.3102,3.3102,3.3102,3.3102,3.3102,3.3102,3.3102,3.3102,3.3102,3.3102,3.3102,3.3102,3.3102,3.3102,3.3102,3.3102,3.3102,3.3102,3.3102,3.3102,3.3102,3.3102,3.3102,0.0,0.0,0.0,0.0,0.0,0.0,0.0,0.0,0.0,0.0,0.0,0.0,0.0,0.0,0.0,0.0,0.0,0.0,0.0,0.0,2.0605,2.0605,2.0605,2.0605,2.0605,2.0605,2.0605,2.0605,2.0605,2.0605,2.0605,2.0605,2.0605,2.0605,2.0605,2.0799,2.1193,2.216,2.2571,2.2711,2.4337,0.0,0.0,0.0,0.0,0.0,0.0,0.0,0.0,0.0,2.6508,2.6508,2.6508,2.6508,2.6508,2.6508,2.6508,2.6562,2.6905,2.7157,2.7453,2.8125,2.8288,2.8392,2.8819,2.9183,2.9528,2.9741,2.9801,2.9801,2.9801,2.9801,2.9801,2.9801,2.9801,2.9801,2.9801,2.9801,2.9801,2.9801,2.9801,2.993,3.0269,3.0783,3.1323,3.1863,3.2428,3.2853,3.309,3.3102,3.3102,3.3102,3.3102,3.3102,3.3102,3.3102,3.3102,3.3102,3.3102,3.3102,3.3102,3.3102,3.3102,3.3102,3.3102,3.3102,3.3102,3.3102,3.3102,3.3102,3.3102,3.3102,3.3102,3.3102,3.3102,3.3102,0.0,0.0,0.0,0.0,0.0,0.0,0.0,0.0,0.0,0.0,0.0,0.0,0.0,0.0,0.0,0.0,0.0,0.0,2.0605,2.0605,2.0605,2.0605,2.0605,2.0605,2.0605,2.0605,2.0605,2.0605,2.0605,2.0605,2.0605,2.0605,2.0605,2.0605,2.0605,2.076,2.1078,2.1725,2.2178,2.2599,2.3963,2.4716,0.0,0.0,0.0,0.0,0.0,0.0,0.0,0.0,2.6508,2.6508,2.6508,2.6508,2.6508,2.6508,2.6508,2.6612,2.7148,2.7424,2.777,2.8671,2.9035,2.9183,2.9183,2.9493,2.9801,2.9801,2.9801,2.9801,2.9801,2.9801,2.9801,2.9801,2.9801,2.9801,2.9801,2.9801,2.9801,2.9801,2.9801,3.0005,3.0548,3.1085,3.1625,3.2167,3.2765,3.3102,3.3102,3.3102,3.3102,3.3102,3.3102,3.3102,3.3102,3.3102,3.3102,3.3102,3.3102,3.3102,3.3102,3.3102,3.3102,3.3102,3.3102,3.3102,3.3102,3.3102,3.3102,3.3102,3.3102,3.3102,3.3102,3.3102,3.3102,3.3102,0.0,0.0,0.0,0.0,0.0,0.0,0.0,0.0,0.0,0.0,0.0,0.0,0.0,0.0,0.0,0.0,0.0,0.0,2.0605,2.0605,2.0605,2.0605,2.0605,2.0605,2.0605,2.0605,2.0605,2.0605,2.0605,2.0605,2.0605,2.0605,2.0605,2.0605,2.0605,2.1116,2.1989,2.1989,2.2571,2.3487,2.3496,2.409,2.4995,0.0,0.0,0.0,0.0,0.0,0.0,0.0,2.6508,2.6508,2.6508,2.6508,2.6508,2.6508,2.6508,2.6625,2.716,2.7704,2.8238,2.8772,2.9355,2.9801,2.9801,2.9801,2.9801,2.9801,2.9801,2.9801,2.9801,2.9801,2.9801,2.9801,2.9801,2.9801,2.9801,2.9801,2.9801,2.9801,2.9792,3.0018,3.056,3.1097,3.1625,3.2167,3.2765,3.3102,3.3102,3.3102,3.3102,3.3102,3.3102,3.3102,3.3102,3.3102,3.3102,3.3102,3.3102,3.3102,3.3102,3.3102,3.3102,3.3102,3.3102,3.3102,3.3102,3.3102,3.3102,3.3102,3.3102,3.3102,3.3102,3.3102,3.3102,3.3102,0.0,0.0,0.0,0.0,0.0,0.0,0.0,0.0,0.0,0.0,0.0,0.0,0.0,0.0,0.0,0.0,0.0,0.0,2.0605,2.0605,2.0605,2.0605,2.0605,2.0605,2.0605,2.0605,2.0605,2.0605,2.0605,2.0605,2.0605,2.0605,2.0605,2.0605,2.0605,2.075,2.1021,2.1021,2.1565,2.2515,2.322,2.409,2.5075,0.0,0.0,0.0,0.0,0.0,0.0,0.0,0.0,0.0,2.6508,2.6508,2.6508,2.6508,2.6763,2.7173,2.7717,2.8251,2.8794,2.9393,2.9666,2.9801,2.9801,2.9801,2.9801,2.9801,2.9801,2.9801,2.9801,2.9801,2.9801,2.9801,2.9801,2.9801,2.9801,2.9801,2.9801,2.9801,3.0121,3.0573,3.111,3.165,3.2202,3.279,3.3002,3.3102,3.3102,3.3102,3.3102,3.3102,3.3102,3.3102,3.3102,3.3102,3.3102,3.3102,3.3102,3.3102,3.3102,3.3102,3.3102,3.3102,3.3102,3.3102,3.3102,3.3102,3.3102,3.3102,3.3102,3.3102,3.3102,3.3102,3.3102,3.3102,0.0,0.0,0.0,0.0,0.0,0.0,0.0,0.0,0.0,0.0,2.0605,0.0,0.0,0.0,0.0,0.0,0.0,0.0,0.0,2.0605,2.0605,2.0605,2.0605,2.0605,2.0605,2.0605,2.0605,2.0605,2.0605,2.0605,2.0605,2.0605,2.0605,2.0605,2.0605,2.0809,2.1164,2.1164,2.1934,2.3239,2.3845,2.4698,2.5652,0.0,0.0,0.0,0.0,0.0,0.0,0.0,0.0,0.0,2.6508,2.6508,2.6545,2.6763,2.7043,2.7453,2.8213,2.8656,2.9035,2.9641,2.9801,2.9801,2.9801,2.9801,2.9801,2.9801,2.9801,2.9801,2.9801,2.9801,2.9801,2.9801,2.9801,2.9801,2.9801,2.9801,2.988,3.0083,3.0397,3.0899,3.165,3.2003,3.2453,3.3052,3.3102,3.3102,3.3102,3.3102,3.3102,3.3102,3.3102,3.3102,3.3102,3.3102,3.3102,3.3102,3.3102,3.3102,3.3102,3.3102,3.3102,3.3102,3.3102,3.3102,3.3102,3.3102,3.3102,3.3102,3.3102,3.3102,3.3102,3.3102,3.3102,3.3102,0.0,0.0,0.0,0.0,0.0,0.0,0.0,0.0,0.0,0.0,2.0605,2.0605,0.0,0.0,0.0,0.0,0.0,0.0,0.0,0.0,2.0605,2.0605,2.0673,2.0731,2.0731,2.0731,2.0731,2.0731,2.0644,2.0605,2.0605,2.0605,2.0605,2.0605,2.0605,2.1116,2.1999,2.1999,2.3156,2.4995,2.4995,2.5602,2.6508,2.6508,0.0,0.0,0.0,0.0,0.0,0.0,0.0,0.0,2.6508,2.6508,2.6608,2.7135,2.7336,2.7604,2.8618,2.8935,2.912,2.9666,2.9801,2.9801,2.9801,2.9801,2.9801,2.9801,2.9801,2.9801,2.9801,2.9801,2.9801,2.9801,2.9801,2.9801,2.9801,2.9801,2.9993,3.0548,3.0638,3.1075,3.2104,3.2254,3.2503,3.3052,3.3102,3.3102,3.3102,3.3102,3.3102,3.3102,3.3102,3.3102,3.3102,3.3102,3.3102,3.3102,3.3102,3.3102,3.3102,3.3102,3.3102,3.3102,3.3102,3.3102,3.3102,3.3102,3.3102,3.3102,3.3102,3.3102,3.3102,3.3102,3.3102,3.3102,0.0,0.0,0.0,0.0,0.0,0.0,0.0,0.0,0.0,0.0,0.0,0.0,0.0,0.0,0.0,0.0,0.0,0.0,0.0,0.0,2.0605,2.0605,2.1308,2.1707,2.1707,2.1707,2.1707,2.1707,2.0963,2.0605,2.0605,2.0605,2.0605,2.0605,2.0605,2.1116,2.1999,2.1999,2.3156,2.4995,2.4995,2.5602,2.6508,2.6508,2.6508,0.0,0.0,0.0,0.0,0.0,0.0,0.0,2.6508,2.6508,2.6608,2.7135,2.7604,2.8072,2.8722,2.9255,2.9641,2.9776,2.9801,2.9801,2.9801,2.9801,2.9801,2.9801,2.9801,2.9801,2.9801,2.9801,2.9801,2.9801,2.9801,2.9801,2.9801,2.9801,2.9993,3.0548,3.0962,3.1486,3.2141,3.2629,3.2964,3.309,3.3102,3.3102,3.3102,3.3102,3.3102,3.3102,3.3102,3.3102,3.3102,3.3102,3.3102,3.3102,3.3102,3.3102,3.3102,3.3102,3.3102,3.3102,3.3102,3.3102,3.3102,3.3102,3.3102,3.3102,3.3102,3.3102,3.3102,3.3102,3.3102,3.3102,0.0,0.0,0.0,0.0,0.0,0.0,0.0,0.0,0.0,0.0,0.0,0.0,0.0,0.0,0.0,0.0,0.0,0.0,0.0,0.0,2.0799,2.1251,2.1735,2.1999,2.1999,2.1999,2.1782,2.1327,2.0847,2.0605,2.0605,2.0605,2.0605,2.0605,2.0605,2.1384,2.2692,2.2206,2.3439,2.5681,2.5194,2.5602,2.6508,2.6508,2.6508,2.6508,2.6508,0.0,0.0,0.0,0.0,0.0,0.0,0.0,2.6993,2.7537,2.805,2.8605,2.918,2.9566,2.9801,2.9801,2.9801,2.9801,2.9801,2.9801,2.9801,2.9801,2.9801,2.9801,2.9801,2.9801,2.9801,2.9801,2.9801,2.9801,2.9801,3.0018,3.0372,3.0911,3.1461,3.2001,3.2577,3.2927,3.3102,3.3102,3.3102,3.3102,3.3102,3.3102,3.3102,3.3102,3.3102,3.3102,3.3102,3.3102,3.3102,3.3102,3.3102,3.3102,3.3102,3.3102,3.3102,3.3102,3.3102,3.3102,3.3102,3.3102,3.3102,3.3102,3.3102,3.3102,3.3102,3.3102,3.3102,3.3102,0.0,0.0,0.0,0.0,0.0,0.0,0.0,0.0,0.0,0.0,0.0,0.0,0.0,0.0,0.0,0.0,0.0,0.0,0.0,0.0,0.0,2.1971,2.2328,2.244,2.2262,2.2262,2.1877,2.1097,2.076,2.0673,2.0847,2.0683,2.0605,2.0615,2.077,2.1831,2.3452,2.2618,2.3895,2.6401,2.5217,2.545,2.6478,2.6314,2.6349,2.6508,2.6508,2.6508,2.6508,2.6508,0.0,0.0,0.0,0.0,2.7412,2.7946,2.848,2.9023,2.9641,2.9801,2.9801,2.9801,2.9801,2.9801,2.9801,2.9801,2.9801,2.9801,2.9801,2.9801,2.9801,2.9801,2.9801,2.9801,2.9801,2.9839,2.993,3.0322,3.0836,3.1461,3.1938,3.2441,3.304,3.3102,3.3102,3.3102,3.3102,3.3102,3.3102,3.3102,3.3102,3.3102,3.3102,3.3102,3.3102,3.3102,3.3102,3.3102,3.3102,3.3102,3.3102,3.3102,3.3102,3.3102,3.3102,3.3102,3.3102,3.3102,3.3102,3.3102,3.3102,3.3102,3.3102,3.3102,3.3102,3.3102,0.0,0.0,0.0,0.0,0.0,0.0,0.0,0.0,0.0,0.0,2.0605,2.0605,0.0,0.0,0.0,0.0,0.0,0.0,2.0605,0.0,0.0,2.1989,2.3672,2.4192,2.3322,2.3303,2.3239,2.311,2.1433,2.1021,2.1801,2.0982,2.0605,2.0644,2.145,2.244,2.3487,2.3358,2.4541,2.634,2.4463,2.482,2.6401,2.5529,2.5742,2.6508,2.6508,2.6508,2.6508,2.6508,2.6508,0.0,0.0,0.0,2.7412,2.7946,2.848,2.9023,2.9641,2.9801,2.9801,2.9801,2.9801,2.9801,2.9801,2.9801,2.9801,2.9801,2.9801,2.9801,2.9801,2.9801,2.9801,2.9801,2.9801,2.9955,3.0422,3.055,3.0964,3.1978,3.2167,3.2441,3.304,3.3102,3.3102,3.3102,3.3102,3.3102,3.3102,3.3102,3.3102,3.3102,3.3102,3.3102,3.3102,3.3102,3.3102,3.3102,3.3102,3.3102,3.3102,3.3102,3.3102,3.3102,3.3102,3.3102,3.3102,3.3102,3.3102,3.3102,3.3102,3.3102,3.3102,3.3102,3.3102,3.3102,0.0,0.0,0.0,0.0,0.0,0.0,0.0,0.0,0.0,0.0,0.0,2.0605,0.0,0.0,0.0,2.0605,2.0605,2.0818,2.1355,2.1773,2.2506,2.3624,2.3991,2.3945,2.3505,2.3496,2.2973,2.1878,2.1546,2.1327,2.1222,2.1327,2.1384,2.1403,2.182,2.2562,2.3496,2.3496,2.4346,2.5573,2.4698,2.5217,2.6456,2.6016,2.6112,2.6508,2.6508,2.6508,2.6508,2.6508,2.67,2.6943,2.6943,0.0,0.0,0.0,2.8944,2.9456,2.9739,2.9801,2.9801,2.9801,2.9801,2.9801,2.9801,2.9801,2.9801,2.9801,2.9801,2.9801,2.9801,2.9801,2.9801,2.9801,2.9801,2.999,3.0512,3.0861,3.1326,3.2116,3.2503,3.2815,3.3077,3.3102,3.3102,3.3102,3.3102,3.3102,3.3102,3.3102,3.3102,3.3102,3.3102,3.3102,3.3102,3.3102,3.3102,3.3102,3.3102,3.3102,3.3102,3.3102,3.3102,3.3102,3.3102,3.3102,3.3102,3.3102,3.3102,3.3102,3.3102,3.3102,3.3102,3.3102,3.3102,3.314,0.0,0.0,0.0,0.0,0.0,0.0,0.0,0.0,0.0,0.0,0.0,0.0,0.0,0.0,0.0,0.0,2.0605,2.1001,2.1933,2.2478,2.3423,2.4933,2.4282,2.3882,2.3882,2.3624,2.2796,2.1346,2.1782,2.1641,2.0972,2.1668,2.214,2.2394,2.2646,2.3036,2.3496,2.3496,2.4072,2.4951,2.4436,2.5143,2.6461,2.6228,2.628,2.6508,2.6508,2.6508,2.6512,2.6663,2.6968,2.7324,2.7453,2.815,0.0,0.0,0.0,2.9801,2.9801,2.9801,2.9801,2.9801,2.9801,2.9801,2.9801,2.9801,2.9801,2.9801,2.9801,2.9801,2.9801,2.9801,2.9801,2.9801,2.9905,3.0193,3.0723,3.1273,3.18,3.2365,3.2828,3.3102,3.3102,3.3102,3.3102,3.3102,3.3102,3.3102,3.3102,3.3102,3.3102,3.3102,3.3102,3.3102,3.3102,3.3102,3.3102,3.3102,3.3102,3.3102,3.3102,3.3102,3.3102,3.3102,3.3102,3.3102,3.3102,3.3102,3.3102,3.3102,3.3102,3.3102,3.3102,3.3102,3.3102,3.3178,0.0,0.0,0.0,0.0,0.0,0.0,0.0,0.0,0.0,0.0,0.0,0.0,2.0605,2.0605,2.0605,2.0605,2.0605,2.1001,2.1933,2.3791,2.4889,2.4995,2.4951,0.0,2.4924,2.3991,2.345,2.3349,2.244,2.1981,2.1934,2.1981,2.2515,2.3459,2.4418,2.4337,2.3496,2.3496,2.4072,2.4835,2.2925,2.3895,2.6392,2.5432,2.5672,2.6508,2.6508,2.6508,2.6575,2.7094,2.7273,2.7386,2.7896,2.8452,2.8897,0.0,0.0,0.0,2.9801,2.9801,2.9801,2.9801,2.9801,2.9801,2.9801,2.9801,2.9801,2.9801,2.9801,2.9801,2.9801,2.9801,2.9801,2.9801,3.0231,3.0748,3.1273,3.1825,3.238,3.2989,3.3077,3.3102,3.3102,3.3102,3.3102,3.3102,3.3102,3.3102,3.3102,3.3102,3.3102,3.3102,3.3102,3.3102,3.3102,3.3102,3.3102,3.3102,3.3102,3.3102,3.3102,3.3102,3.3102,3.3102,3.3102,3.3102,3.3102,3.3102,3.3102,3.3102,3.3102,3.3102,3.3102,3.3102,3.3102,3.3178,0.0,0.0,0.0,0.0,0.0,0.0,0.0,0.0,0.0,0.0,0.0,0.0,0.0,2.0605,2.0605,2.0605,2.1155,2.2188,2.3818,2.46,2.5291,2.5926,2.5344,2.4995,2.4995,2.4009,2.3184,2.2543,2.2178,2.1999,2.2008,2.2664,2.3156,2.3514,2.3882,2.4201,2.4418,2.3772,2.4072,2.4942,2.4219,2.4966,2.6452,2.6103,2.6181,2.6558,2.6893,2.7006,2.7094,2.762,2.8037,2.8355,2.8555,2.9016,2.9478,2.9478,2.9628,2.9801,2.9801,2.9801,2.9801,2.9801,2.9801,2.9801,2.9801,2.9801,2.9801,2.9801,2.9801,2.9801,2.9801,2.9801,2.9801,2.9801,3.0256,3.0786,3.1323,3.1853,3.2418,3.3027,3.3102,3.3102,3.3102,3.3102,3.3102,3.3102,3.3102,3.3102,3.3102,3.3102,3.3102,3.3102,3.3102,3.3102,3.3102,3.3102,3.3102,3.3102,3.3102,3.3102,3.3102,3.3102,3.3102,3.3102,3.3102,3.3102,3.3102,3.3102,3.3102,3.3102,3.3102,3.3102,3.3102,3.3102,3.3102,3.3228,0.0,0.0,0.0,0.0,0.0,0.0,0.0,0.0,0.0,0.0,0.0,0.0,0.0,0.0,2.0731,2.1039,2.1953,2.3211,2.4889,2.5317,2.5655,2.5981,2.5362,2.4844,2.4498,2.3845,2.3174,2.2506,2.2506,2.2506,2.2534,2.3523,2.3827,2.3496,2.3496,2.3681,2.3945,2.3276,2.358,2.4501,2.4501,2.5297,2.652,2.67,2.6776,2.6839,2.7386,2.7566,2.7654,2.8188,2.8605,2.8935,2.9132,2.9478,2.9801,2.9801,2.9801,2.9801,2.9801,2.9801,2.9801,2.9801,2.9801,2.9801,2.9801,2.9801,2.9801,2.9801,2.9801,2.9801,2.9801,2.9801,2.9801,2.9801,3.0394,3.0997,3.1346,3.2049,3.2641,3.3052,3.3102,3.3102,3.3102,3.3102,3.3102,3.3102,3.3102,3.3102,3.3102,3.3102,3.3102,3.3102,3.3102,3.3102,3.3102,3.3102,3.3102,3.3102,3.3102,3.3102,3.3102,3.3102,3.3102,3.3102,3.3102,3.3102,3.3102,3.3102,3.3102,3.3102,3.3102,3.3102,3.3102,3.3102,3.3215,3.3494,0.0,0.0,0.0,0.0,0.0,0.0,0.0,0.0,0.0,2.0605,0.0,0.0,0.0,0.0,0.0,2.1952,2.2934,2.3936,2.4978,2.5938,2.6034,2.5096,2.4998,2.4507,2.3551,2.3487,2.3459,2.3459,2.3459,2.3459,2.3478,2.4492,2.4418,2.3459,2.3459,2.2906,2.1952,2.1952,2.2571,2.3533,2.3505,2.4704,2.6575,2.7106,2.7311,2.739,2.7934,2.8125,2.8201,2.8743,2.8922,2.9032,2.9616,2.9801,2.9801,2.9801,2.9801,2.9801,0.0,0.0,0.0,2.9801,2.9801,2.9801,2.9801,2.9801,2.9801,2.9801,2.9801,2.9801,2.9801,2.9801,2.9801,2.9801,3.0706,3.1396,3.1396,3.2386,3.3102,3.3102,3.3102,3.3102,3.3102,3.3102,3.3102,3.3102,3.3102,3.3102,3.3102,3.3102,3.3102,3.3102,3.3102,3.3102,3.3102,3.3102,3.3102,3.3102,3.3102,3.3102,3.3102,3.3102,3.3102,3.3102,3.3102,3.3102,3.3102,3.3102,3.3102,3.3102,3.3102,3.3102,3.3102,3.3102,3.3431,3.3985,0.0,0.0,0.0,0.0,0.0,0.0,2.0605,2.0605,2.0605,0.0,0.0,0.0,2.0605,2.0605,2.127,2.2934,2.334,2.4235,2.5969,2.5652,2.562,2.6068,2.4687,2.4138,2.4582,2.3156,2.2412,2.2412,2.2412,2.2412,2.244,2.3441,2.3377,2.2412,2.2412,2.1877,2.0992,2.0992,2.2376,2.4528,2.38,2.4937,2.7085,2.7236,2.7541,2.7946,2.8489,2.8681,2.8769,2.9355,2.9553,2.9578,2.9751,2.9801,2.9801,2.9801,2.9801,2.9801,2.9801,0.0,0.0,0.0,0.0,0.0,2.9801,2.9801,2.9801,2.9801,2.9801,2.9801,2.9801,2.9801,2.9801,2.9801,3.0706,3.1396,3.1396,3.2386,3.3102,3.3102,3.3102,3.3102,3.3102,3.3102,3.3102,3.3102,3.3102,3.3102,3.3102,3.3102,3.3102,3.3102,3.3102,3.3102,3.3102,3.3102,3.3102,3.3102,3.3102,3.3102,3.3102,3.3102,3.3102,3.3102,3.3102,3.3102,3.3102,3.3102,3.3102,3.3102,3.3102,3.3102,3.3102,3.3102,3.3431,3.3985,0.0,0.0,0.0,0.0,0.0,0.0,2.0605,2.0605,2.0605,0.0,0.0,0.0,2.0605,2.0605,2.1385,2.3322,2.3496,2.4352,2.6375,2.5567,2.5264,2.5847,2.4352,2.358,2.3745,2.2599,2.1999,2.1999,2.2422,2.2637,2.2646,2.3663,2.3588,2.2609,2.2187,2.1707,2.1173,2.1173,2.2423,2.4342,2.398,2.5237,2.7349,2.7805,2.8163,2.8505,2.907,2.928,2.933,2.9679,2.9801,2.9801,2.9801,2.9801,2.9801,2.9801,2.9801,2.9801,2.9801,2.9801,2.9801,2.9801,0.0,0.0,2.9801,2.9801,2.9801,2.9801,2.9801,2.9801,2.9801,2.9801,2.9801,2.9801,3.0507,3.1135,3.1371,3.2162,3.2815,3.3077,3.3102,3.3102,3.3102,3.3102,3.3102,3.3102,3.3102,3.3102,3.3102,3.3102,3.3102,3.3102,3.3102,3.3102,3.3102,3.3102,3.3102,3.3102,3.3102,3.3102,3.3102,3.3102,3.3102,3.3102,3.3102,3.3102,3.3102,3.3102,3.3102,3.3102,3.3102,3.3102,3.3128,3.3354,3.3771,3.4313,0.0,0.0,0.0,2.0605,2.0605,2.0605,2.0605,2.0605,2.0605,0.0,2.0605,2.0605,2.0605,2.0692,2.1499,2.334,2.3597,2.4436,2.6216,2.5388,2.4835,2.4835,2.3772,2.2804,2.2018,2.1905,2.1905,2.1999,2.2906,2.3331,2.3349,2.4255,2.4138,2.3137,2.2234,2.1839,2.1858,2.2033,2.2675,2.3638,2.4234,2.5678,2.7578,2.8543,2.8947,2.907,2.9616,2.9801,2.9801,2.9801,2.9801,2.9801,2.9801,2.9801,2.9801,2.9801,2.9801,2.9801,2.9801,2.9801,2.9801,2.9801,2.9801,0.0,2.9801,2.9801,2.9801,2.9801,2.9801,2.9801,2.9801,2.9801,2.9801,2.9801,3.0206,3.0698,3.1246,3.1825,3.2403,3.2939,3.3052,3.3102,3.3102,3.3102,3.3102,3.3102,3.3102,3.3102,3.3102,3.3102,3.3102,3.3102,3.3102,3.3102,3.3102,3.3102,3.3102,3.3102,3.3102,3.3102,3.3102,3.3102,3.3102,3.3102,3.3102,3.3102,3.3102,3.3102,3.3102,3.3102,3.3102,3.3102,3.3165,3.3707,3.4237,3.4778,0.0,2.0605,2.0605,2.0605,2.0605,2.0605,2.0605,2.0605,2.0605,2.0605,2.0605,2.0605,2.0605,2.1269,2.2206,2.3395,2.4237,2.4871,2.5273,2.4346,2.38,2.38,2.2114,2.1432,2.1989,2.126,2.1241,2.1999,2.2197,2.2291,2.23,2.2497,2.2075,2.1165,2.0963,2.0866,2.0954,2.2197,2.3276,2.4211,2.5143,2.6738,2.8618,2.8822,2.9195,2.9641,2.9764,2.9801,2.9801,2.9801,2.9801,2.9801,2.9801,2.9801,2.9801,2.9801,2.9801,2.9801,2.9801,2.9801,2.9801,2.9801,2.9801,0.0,2.9801,2.9801,2.9801,2.9801,2.9801,2.9801,2.9801,2.9801,2.9801,2.9801,2.9889,3.0143,3.0673,3.1589,3.2242,3.2355,3.2803,3.3102,3.3102,3.3102,3.3102,3.3102,3.3102,3.3102,3.3102,3.3102,3.3102,3.3102,3.3102,3.3102,3.3102,3.3102,3.3102,3.3102,3.3102,3.3102,3.3102,3.3102,3.3102,3.3102,3.3102,3.3102,3.3102,3.3102,3.3102,3.3102,3.3102,3.3102,3.3165,3.3707,3.4237,3.4778,2.0605,2.0605,2.0605,2.0605,2.0605,2.0605,2.0605,2.0605,2.0605,2.0605,2.0605,2.078,2.1251,2.1716,2.2609,2.412,2.4255,2.4454,2.4969,2.4065,2.3496,2.3496,2.2085,2.1517,2.1989,2.1078,2.1059,2.1999,2.2497,2.2497,2.2008,2.2515,2.2497,2.202,2.1517,2.1584,2.2145,2.3693,2.4493,2.4868,2.6139,2.7544,2.8935,2.9233,2.9541,2.9801,2.9801,2.9801,2.9801,2.9801,2.9801,2.9801,2.9801,2.9801,2.9801,2.9801,2.9801,2.9801,2.9801,2.9801,2.9801,2.9801,2.9801,0.0,0.0,2.9801,2.9801,2.9801,2.9801,2.9801,2.9801,2.9346,2.9148,2.9702,2.9326,2.9234,3.0077,3.0899,3.1602,3.2141,3.2466,3.2765,3.3077,3.3102,3.3102,3.3102,3.3102,3.3102,3.3102,3.3102,3.3102,3.3102,3.3102,3.3102,3.3102,3.3102,3.3102,3.3102,3.3102,3.3102,3.3102,3.3102,3.3102,3.3102,3.3102,3.3102,3.3102,3.3102,3.3102,3.3102,3.3102,3.3266,3.3569,3.411,3.464,3.5181,2.0605,2.0605,2.0605,2.0605,2.0605,2.0605,2.0605,2.0605,2.0605,2.0605,2.076,2.1164,2.1924,2.2347,2.323,2.4862,2.4427,2.4253,2.468,2.4138,2.3544,2.2973,2.2337,2.1924,2.1725,2.1164,2.1336,2.2291,2.2915,2.2897,2.23,2.2739,2.2945,2.2906,2.2281,2.2522,2.3499,2.5218,2.5829,2.5782,2.7314,2.8397,2.9132,2.9616,2.9801,2.9801,2.9801,2.9801,2.9801,2.9801,2.9801,2.9801,2.9801,2.9801,2.9801,2.9801,2.9801,2.9801,2.9801,2.9801,2.9801,2.9801,2.9801,2.9801,0.0,0.0,0.0,2.9801,2.9801,2.9801,2.9801,2.9047,2.8668,2.9356,2.8887,2.8597,2.9089,2.99,3.0811,3.1777,3.2079,3.239,3.2889,3.3027,3.3102,3.3102,3.3102,3.3102,3.3102,3.3102,3.3102,3.3102,3.3102,3.3102,3.3102,3.3102,3.3102,3.3102,3.3102,3.3102,3.3102,3.3102,3.3102,3.3102,3.3102,3.3102,3.3102,3.3102,3.3102,3.3102,3.3102,3.3431,3.396,3.449,3.503,3.5595,2.0605,2.0605,2.0605,2.0605,2.0605,2.0605,2.0605,2.0605,2.0605,2.0605,2.1327,2.1876,2.1989,2.3588,2.4755,2.4978,2.5704,2.5446,2.3781,2.44,2.3654,2.104,2.1622,2.1612,2.078,2.1469,2.2328,2.3331,2.2553,2.2571,2.3285,2.1679,2.0924,2.0963,2.1688,2.2364,2.3124,2.5501,2.6788,2.7365,2.8918,2.9604,2.9713,2.9767,2.9801,2.9801,2.9801,2.9801,2.9801,2.9801,2.9801,2.9801,2.9801,2.9801,2.9801,2.9801,2.9801,2.9801,2.9801,2.9801,2.9801,2.9801,2.9801,2.9801,2.9801,0.0,2.9801,2.9801,0.0,2.9801,2.9801,0.0,0.0,2.8436,2.9028,2.8971,2.7129,2.8622,3.0118,3.0701,3.1627,3.2229,3.2292,3.279,3.3102,3.3102,3.3102,3.3102,3.3102,3.3102,3.3102,3.3102,3.3102,3.3102,3.3102,3.3102,3.3102,3.3102,3.3102,3.3102,3.3102,3.3102,3.3102,3.3102,3.3102,3.3102,3.3102,3.3102,3.3102,3.3102,3.3102,3.3431,3.396,3.449,3.503,3.5595,2.0605,2.0605,2.0605,2.0605,2.0605,2.0605,2.0605,2.0605,2.0605,2.0605,2.1422,2.2225,2.2813,2.4135,2.5229,2.5821,2.5725,2.5261,2.4427,2.4219,2.3324,2.1499,2.1792,2.1565,2.0625,2.0992,2.166,2.2637,2.2206,2.2215,2.2618,2.1782,2.1413,2.1471,2.2757,2.3479,2.3901,2.673,2.7767,2.7625,2.9184,2.9801,2.9801,2.9801,2.9801,2.9801,2.9801,2.9801,2.9801,2.9801,2.9801,2.9801,2.9801,2.9801,2.9801,2.9801,2.9801,2.9801,2.9801,2.9801,2.9801,2.9801,2.9294,2.8998,2.9653,2.9285,2.9008,2.9663,0.0,0.0,0.0,0.0,0.0,0.0,2.841,2.7778,2.7473,2.8239,2.9013,2.9549,3.0588,3.1526,3.2141,3.2753,3.3102,3.3102,3.3102,3.3102,3.3102,3.3102,3.3102,3.3102,3.3102,3.3102,3.3102,3.3102,3.3102,3.3102,3.3102,3.3102,3.3102,3.3102,3.3102,3.3102,3.3102,3.3102,3.3102,3.3102,3.3102,3.3128,3.3443,3.3884,3.4438,3.4979,3.5531,3.6068,2.0605,2.0605,2.0605,2.0605,2.0605,2.0605,2.0605,2.0605,2.0605,2.0605,2.166,2.2692,2.3423,2.4633,2.5707,2.6448,2.583,2.5291,2.5025,2.4319,2.3459,2.2459,2.215,2.1688,2.1001,2.1251,2.1584,2.1999,2.2281,2.2272,2.1989,2.1735,2.1622,2.169,2.3503,2.4398,2.4742,2.7651,2.8603,2.8222,2.9343,2.9801,2.9801,2.9801,2.9801,2.9801,2.9801,2.9801,2.9801,2.9801,2.9801,2.9801,2.9801,2.9801,2.9801,2.9801,2.9801,2.9801,2.9801,2.9801,2.9801,2.9801,2.9187,2.8708,2.9216,2.8698,2.8337,2.9155,2.9336,0.0,0.0,0.0,2.8727,2.9246,0.0,2.7351,2.7216,2.7996,2.859,2.8668,2.9942,3.1175,3.2116,3.2753,3.3102,3.3102,3.3102,3.3102,3.3102,3.3102,3.3102,3.3102,3.3102,3.3102,3.3102,3.3102,3.3102,3.3102,3.3102,3.3102,3.3102,3.3102,3.3102,3.3102,3.3102,3.3102,3.3102,3.3102,3.319,3.3368,3.3909,3.4451,3.4979,3.5369,3.5881,3.6393,2.0605,2.0605,2.0605,2.0605,2.0605,2.0605,2.0605,2.0605,2.0605,2.0605,2.2264,2.3459,2.3496,2.5267,2.6452,2.6508,2.6461,2.6042,2.5058,2.4969,2.4498,2.3496,2.2525,2.1989,2.1952,2.2906,2.2943,2.1999,2.298,2.2952,2.198,2.1068,2.0644,2.0751,2.322,2.4618,2.5338,2.7841,2.9223,2.9728,2.9779,2.9801,2.9801,2.9801,2.9801,2.9801,2.9801,2.9801,2.9801,2.9801,2.9801,2.9801,2.9801,2.9801,2.9801,2.9801,2.9801,2.9801,2.9801,2.9801,2.9801,2.9801,2.9772,2.9475,2.8396,2.8136,2.8104,2.8156,2.8144,2.8498,2.9605,2.9772,2.9395,2.8337,2.9018,0.0,0.0,2.7706,2.9336,2.8249,3.0048,3.1587,3.2141,3.2753,3.3102,3.3102,3.3102,3.3102,3.3102,3.3102,3.3102,3.3102,3.3102,3.3102,3.3102,3.3102,3.3102,3.3102,3.3102,3.3102,3.3102,3.3102,3.3102,3.3102,3.3102,3.3102,3.3102,3.3102,3.3416,3.3922,3.4452,3.5005,3.547,3.5495,3.5881,3.6393,2.0605,2.0605,2.0605,2.0605,2.0605,2.0605,2.0605,2.0605,2.0818,2.1451,2.2674,2.3754,2.4418,2.5687,2.6508,2.6508,2.6508,2.6357,2.6016,2.4749,2.4145,2.4483,2.2301,2.1365,2.1989,2.2328,2.2038,2.1068,2.2703,2.2675,2.1078,2.1384,2.1345,2.1115,2.3736,2.5153,2.5767,2.839,2.9616,2.9801,2.9801,2.9801,2.9801,2.9801,2.9801,2.9801,2.9801,2.9801,2.9801,2.9801,2.9801,2.9801,2.9801,2.9801,2.9801,2.9801,2.9801,2.9801,2.9801,2.9801,2.9801,2.9801,2.9226,2.8577,2.8195,2.7542,2.7238,2.7944,2.8106,2.8446,2.9595,2.9801,2.9672,2.9285,2.8917,2.8038,0.0,2.6893,2.815,2.9578,3.0735,3.1472,3.165,3.2539,3.3102,3.3102,3.3102,3.3102,3.3102,3.3102,3.3102,3.3102,3.3102,3.3102,3.3102,3.3102,3.3102,3.3102,3.3102,3.3102,3.3102,3.3102,3.3102,3.3102,3.3102,3.3102,3.3102,3.3102,3.3418,3.396,3.449,3.503,3.5545,3.5956,3.6218,3.6393,2.0605,2.0605,2.0605,2.0605,2.0605,2.0605,2.0605,2.0876,2.1308,2.1924,2.3193,2.4282,2.4924,2.5891,2.6357,2.5999,2.5973,2.5812,2.5464,2.4217,2.3945,2.4951,2.2843,2.2075,2.3054,2.272,2.2066,2.1097,2.2357,2.2151,2.0615,2.1364,2.1752,2.1908,2.4325,2.5777,2.6553,2.8826,2.9801,2.9801,2.9801,2.9801,2.9801,2.9801,2.9801,2.9801,2.9801,2.9801,2.9801,2.9801,2.9801,2.9801,2.9801,2.9801,2.9801,2.9801,2.9801,2.9801,2.9801,2.9801,2.9801,2.9801,2.9246,2.8645,2.8434,2.7852,2.7602,2.8517,2.853,2.8783,3.0119,3.0065,2.9854,3.0055,2.931,2.8458,0.0,2.7322,2.7956,3.0313,3.1072,3.1472,3.1673,3.2539,3.3102,3.3102,3.3102,3.3102,3.3102,3.3102,3.3102,3.3102,3.3102,3.3102,3.3102,3.3102,3.3102,3.3102,3.3102,3.3102,3.3102,3.3102,3.3102,3.3102,3.3102,3.3102,3.3115,3.3316,3.3707,3.4237,3.4778,3.533,3.5869,3.6256,3.6393,3.6393,2.0605,2.0605,2.0605,2.0605,2.0605,2.0605,2.0605,2.1403,2.2018,2.2065,2.3781,2.5025,2.5078,2.5882,2.6042,2.5075,2.4951,2.4537,2.3624,2.3523,2.3972,2.5034,2.4063,2.3963,2.4978,2.4009,2.3008,2.1999,2.2046,2.1575,2.0635,2.1065,2.1879,2.3041,2.4941,2.6441,2.763,2.9155,2.9801,2.9801,2.9801,2.9801,2.9801,2.9801,2.9801,2.9801,2.9801,2.9801,2.9801,2.9801,2.9801,2.9801,2.9801,2.9801,2.9801,2.9801,2.9801,2.9814,2.9839,2.9839,2.9852,2.9867,2.9877,2.9716,2.9085,2.8935,2.911,2.9687,2.9346,2.9441,3.1102,3.0567,3.004,3.0522,3.0094,2.9743,2.9829,2.8865,2.8769,3.0481,3.1135,3.1637,3.2154,3.2753,3.3102,3.3102,3.3102,3.3102,3.3102,3.3102,3.3102,3.3102,3.3102,3.3102,3.3102,3.3102,3.3102,3.3102,3.3102,3.3102,3.3102,3.3102,3.3102,3.3102,3.3102,3.3115,3.3178,3.3684,3.4225,3.4791,3.5306,3.5869,3.6393,3.6393,3.6393,3.6393,2.0605,2.0605,2.0605,2.0605,2.0605,2.0605,2.0605,2.1403,2.2272,2.3017,2.4219,2.5282,2.6034,2.5681,2.5282,2.5013,2.4319,2.409,2.4582,2.3918,2.428,2.6042,2.4433,2.3963,2.4978,2.4009,2.3008,2.1999,2.2748,2.2416,2.1064,2.1916,2.287,2.3922,2.522,2.6597,2.8024,2.9274,2.9801,2.9801,2.9801,2.9801,2.9801,2.9801,2.9801,2.9801,2.9801,2.9801,2.9801,2.9801,2.9801,2.9801,2.9801,2.9801,2.9801,2.9801,2.9801,2.9889,3.0284,3.0397,3.0485,3.0894,3.0994,3.0734,2.9785,2.9569,2.9605,2.9769,2.9675,2.994,3.1165,3.117,3.0896,3.0648,2.9443,2.8972,3.0213,2.9413,2.9465,3.1541,3.1916,3.2041,3.2192,3.2753,3.3102,3.3102,3.3102,3.3102,3.3102,3.3102,3.3102,3.3102,3.3102,3.3102,3.3102,3.3102,3.3102,3.3102,3.3102,3.3102,3.3102,3.3102,3.3102,3.3102,3.3102,3.3329,3.372,3.3847,3.4451,3.5319,3.5445,3.5869,3.6393,3.6393,3.6393,3.6393,2.0605,2.0605,2.0605,2.0605,2.0605,2.0741,2.1155,2.1659,2.2356,2.3368,2.3991,2.4561,2.5134,2.4678,2.4174,2.3736,2.3174,2.2906,2.3065,2.3342,2.4009,2.5143,2.4945,2.5081,2.5646,2.4898,2.4004,2.2959,2.3316,2.2822,2.1523,2.2261,2.3176,2.426,2.5541,2.6591,2.7471,2.8589,2.9334,2.9801,2.9801,2.9801,0.0,2.9801,2.9801,2.9801,2.9801,2.9801,2.9801,2.9801,2.9801,2.9801,2.9801,2.9801,2.9852,3.008,3.0156,3.0269,3.0799,3.0947,3.1022,3.1323,3.1396,3.1305,3.0926,3.0849,3.0922,3.1188,3.1032,3.1113,3.1983,3.1735,3.1308,3.0997,3.0155,2.9862,3.0829,3.0404,3.0534,3.2018,3.2204,3.2305,3.2566,3.2891,3.3102,3.3102,3.3102,3.3102,3.3102,3.3102,3.3102,3.3102,3.3102,3.3102,3.3102,3.3102,3.3102,3.3102,3.3102,3.3102,3.3102,3.3102,3.3102,3.3102,3.3102,3.3393,3.3922,3.4149,3.4741,3.552,3.5782,3.6106,3.6393,3.6393,3.6393,3.6393,2.0605,2.0605,2.0605,2.0605,2.0605,2.0924,2.1858,2.1999,2.2309,2.3193,2.3423,2.352,2.3576,2.3421,2.2974,2.2158,2.1918,2.1584,2.1021,2.2563,2.3626,2.3879,2.5489,2.638,2.638,2.5934,2.5171,2.4079,2.3688,2.2981,2.1993,2.2344,2.3218,2.4551,2.5747,2.6441,2.678,2.7865,2.8887,2.9801,2.9801,2.9801,2.9801,2.9801,2.9801,2.9801,2.9801,2.9801,2.9801,2.9801,2.9801,2.9804,2.988,2.9892,3.0005,3.0548,3.0701,3.0824,3.1359,3.1499,3.1522,3.1597,3.1622,3.1748,3.2204,3.2317,3.2466,3.2989,3.2679,3.2478,3.3002,3.2225,3.1499,3.1499,3.1446,3.1421,3.1486,3.1499,3.171,3.2242,3.2317,0.0,3.3052,3.3102,3.3102,3.3102,3.3102,3.3102,3.3102,3.3102,3.3102,3.3102,3.3102,3.3102,3.3102,3.3102,3.3102,3.3102,3.3102,3.3102,3.3102,3.3102,3.3102,3.3102,3.3178,3.3506,3.4048,3.4577,3.513,3.567,3.6205,3.6393,3.6393,3.6393,3.6393,3.6393,2.0605,2.0605,2.0605,2.0605,2.0605,2.0924,2.1858,2.1999,2.2055,2.2244,2.298,2.3644,2.4039,2.2987,2.2346,2.2563,2.1521,2.1451,2.2908,2.3303,2.4244,2.5908,2.5843,2.5762,2.5762,2.5345,2.4597,2.3466,2.349,2.3115,2.2402,2.247,2.3791,2.6071,2.5399,2.6119,2.7896,2.9018,2.9624,2.9801,2.9801,2.9801,2.9801,2.9801,2.9801,2.9801,2.9801,2.9801,2.9801,2.9801,2.9801,2.988,3.0322,3.046,3.0573,3.1097,3.1258,3.1373,3.1916,3.2054,3.219,3.2688,3.2801,3.2826,3.2916,3.2939,3.2966,3.3077,3.3027,3.2966,3.3077,3.2528,3.2054,3.2054,3.1687,3.1549,3.1991,3.2054,3.2277,3.2866,3.2939,3.2989,3.309,3.3102,3.3102,3.3102,3.3102,3.3102,3.3102,3.3102,3.3102,3.3102,3.3102,3.3102,3.3102,3.3102,3.3102,3.3102,3.3102,3.3102,3.3102,3.3102,3.3102,3.3128,3.3569,3.4062,3.4603,3.5143,3.5718,3.6243,3.6355,3.6393,3.6393,3.6393,3.6393,3.6393,2.0605,2.0605,2.0605,2.0605,2.0771,2.1056,2.1517,2.1797,2.2044,2.233,2.2548,2.2759,2.2989,2.2367,2.2039,2.2271,2.1669,2.1918,2.341,2.3437,2.4096,2.5651,2.5372,2.5464,2.6042,2.5576,2.5046,2.4486,2.4277,2.3709,2.281,2.281,2.3824,2.5619,2.5661,2.6573,2.8136,2.8698,2.9255,2.9801,2.9801,2.9801,2.9801,2.9801,2.9801,2.9801,2.9801,2.9801,2.9801,2.9801,2.998,3.0259,3.0522,3.0786,3.1122,3.1662,3.1813,3.1938,3.2503,3.2677,3.274,3.3027,3.3102,3.3102,3.3102,3.3102,3.3102,3.3102,3.3102,3.3102,3.3102,3.2866,3.2677,3.2677,3.2451,3.2363,3.2627,3.2677,3.2778,3.3065,3.3102,3.3102,3.3102,3.3102,3.3102,3.3102,3.3102,3.3102,3.3102,3.3102,3.3102,3.3102,3.3102,3.3102,3.3102,3.3102,3.3102,3.3102,3.3102,3.3102,3.3102,3.3102,3.3253,3.3531,3.3784,3.4363,3.5156,3.5731,3.6131,3.6393,3.6393,3.6393,3.6393,3.6393,3.6393,3.6393,2.0605,2.0674,2.0732,2.0732,2.1064,2.1347,2.1347,2.1738,2.2154,2.2487,2.216,2.1934,2.2022,2.1944,2.1934,2.2022,2.1944,2.2349,2.3392,2.3352,2.3801,2.4915,2.4751,2.516,2.6278,2.5731,2.5432,2.5432,2.5018,2.417,2.2975,2.3052,2.3703,2.4861,2.6233,2.7309,2.8126,2.8367,2.8976,2.9801,2.9801,2.9801,2.9801,2.9801,2.9801,2.9801,2.9801,2.9867,2.9967,2.9967,3.0256,3.0638,3.0874,3.1225,3.1685,3.224,3.239,3.2491,3.2966,3.3102,3.3102,3.3102,3.3102,3.3102,3.3102,3.3102,3.3102,3.3102,3.3102,3.3102,3.3102,3.3102,3.3102,3.3102,3.3102,3.3102,3.3102,3.3102,3.3102,3.3102,3.3102,3.3102,3.3102,3.3102,3.3102,3.3102,3.3102,3.3102,3.3102,3.3102,3.3102,3.3102,3.3102,3.3102,3.3102,3.3102,3.3102,3.3102,3.3102,3.3102,3.3102,3.3102,3.3393,3.3909,3.4022,3.4689,3.5732,3.6205,3.6393,3.6393,3.6393,3.6393,3.6393,3.6393,3.6393,3.6393,2.0605,2.0889,2.1142,2.1142,2.1533,2.1826,2.1826,2.2178,2.2336,2.2019,2.1928,2.2042,2.2401,2.213,2.2051,2.2411,2.2109,2.2298,2.3262,2.3302,2.3751,2.4777,2.434,2.4575,2.5653,2.5149,2.4862,2.4862,2.4819,2.4027,2.2557,2.2926,2.3703,2.4893,2.7013,2.8016,2.8166,2.9197,2.9702,2.9801,2.9801,2.9801,2.9801,2.9801,2.9801,2.9801,2.9801,3.0118,3.0535,3.0535,3.056,3.0773,3.1742,3.2079,3.2242,3.284,3.3027,3.3027,3.3077,3.3102,3.3102,3.3102,3.3102,3.3102,3.3102,3.3102,3.3102,3.3102,3.3102,3.3102,3.3102,3.3102,3.3102,3.3102,3.3102,3.3102,3.3102,3.3102,3.3102,3.3102,3.3102,3.3102,3.3102,3.3102,3.3102,3.3102,3.3102,3.3102,3.3102,3.3102,3.3102,3.3102,3.3102,3.3102,3.3102,3.3102,3.3102,3.3102,3.3102,3.3102,3.3102,3.3102,3.3393,3.3922,3.4413,3.5265,3.6318,3.638,3.6393,3.6393,3.6393,3.6393,3.6393,3.6393,3.6393,3.6393,2.1378,2.1514,2.1611,2.1611,2.1982,2.2266,2.2266,2.2596,2.2801,2.2635,2.2615,2.2684,2.2839,2.2723,2.2684,2.2849,2.2713,2.3065,2.4127,2.3552,2.3657,2.4758,2.3937,2.3986,2.5099,2.4236,2.4114,2.4798,2.4114,2.3817,2.388,2.4043,2.4734,2.5912,2.8129,2.8737,2.8176,2.9326,2.9801,2.9801,2.9801,2.9801,2.9801,2.9801,2.9801,2.9839,3.0158,3.0422,3.0701,3.1351,3.1564,3.1639,3.2056,3.2453,3.279,3.3027,3.3102,3.3102,3.3102,3.3102,3.3102,3.3102,3.3102,3.3102,3.3102,3.3102,3.3102,3.3102,3.3102,3.3102,3.3102,3.3102,3.3102,3.3102,3.3102,3.3102,3.3102,3.3102,3.3102,3.3102,3.3102,3.3102,3.3102,3.3102,3.3102,3.3102,3.3102,3.3102,3.3102,3.3102,3.3102,3.3102,3.3102,3.3102,3.3102,3.3102,3.3102,3.3102,3.3102,3.3102,3.3102,3.3431,3.406,3.488,3.5466,3.5979,3.6393,3.6393,3.6393,3.6393,3.6393,3.6393,3.6393,3.6393,3.6393,3.6393,2.1895,2.1993,2.2081,2.2081,2.2401,2.2685,2.2685,2.2917,2.3091,2.3091,2.3091,2.3091,2.3091,2.3091,2.3091,2.3091,2.3091,2.3441,2.4253,2.3551,2.3463,2.4264,2.3529,2.3627,2.4776,2.3681,2.3822,2.5294,2.4167,2.4117,2.5091,2.5091,2.5769,2.7036,2.8601,2.9047,2.8646,2.9466,2.9801,2.9801,2.9801,2.9801,2.9801,2.9801,2.9902,3.0071,3.046,3.0801,3.12,3.1943,3.2317,3.2466,3.2466,3.2765,3.3102,3.3102,3.3102,3.3102,3.3102,3.3102,3.3102,3.3102,3.3102,3.3102,3.3102,3.3102,3.3102,3.3102,3.3102,3.3102,3.3102,3.3102,3.3102,3.3102,3.3102,3.3102,3.3102,3.3102,3.3102,3.3102,3.3102,3.3102,3.3102,3.3102,3.3102,3.3102,3.3102,3.3102,3.3102,3.3102,3.3102,3.3102,3.3102,3.3102,3.3102,3.3102,3.3102,3.3102,3.3102,3.3178,3.3366,3.406,3.4778,3.552,3.6131,3.6393,3.6393,3.6393,3.6393,3.6393,3.6393,3.6393,3.6393,3.6393,3.6393,3.6393,2.1895,2.2217,2.2499,2.2499,2.283,2.3091,2.3091,2.3102,2.3091,2.3091,2.3091,2.3091,2.3091,2.3091,2.3091,2.3091,2.3091,2.3112,2.3113,2.3113,2.3112,2.3113,2.3113,2.3627,2.4776,2.3681,2.421,2.6472,2.5336,2.5121,2.5794,2.5794,2.6615,2.8074,2.8116,2.8737,2.9782,2.9792,2.9801,2.9801,2.9801,2.9801,2.9801,2.9801,3.0131,3.0588,3.06,3.1278,3.2179,3.2192,3.2602,3.309,3.309,3.309,3.3102,3.3102,3.3102,3.3102,3.3102,3.3102,3.3102,3.3102,3.3102,3.3102,3.3102,3.3102,3.3102,3.3102,3.3102,3.3102,3.3102,3.3102,3.3102,3.3102,3.3102,3.3102,3.3102,3.3102,3.3102,3.3102,3.3102,3.3102,3.3102,3.3102,3.3102,3.3102,3.3102,3.3102,3.3102,3.3102,3.3102,3.3102,3.3102,3.3102,3.3102,3.3102,3.3102,3.3102,3.3102,3.338,3.3922,3.4993,3.5483,3.552,3.6131,3.6393,3.6393,3.6393,3.6393,3.6393,3.6393,3.6393,3.6393,3.6393,3.6393,3.6393,2.2723,2.2819,2.2907,2.2907,2.3014,2.3091,2.3091,2.3091,2.3091,2.3091,2.3091,2.3091,2.3091,2.3091,2.3091,2.3091,2.3091,2.3091,2.3091,2.3091,2.3091,2.3091,2.3091,2.3267,2.3627,2.3298,2.3463,2.4188,2.4596,2.5678,2.7377,2.8158,2.879,2.9255,2.9255,2.9466,2.9801,2.9801,2.9801,2.9801,2.9801,2.9801,2.9839,3.0218,3.0447,3.0698,3.1426,3.1916,3.2267,3.2667,3.2939,3.3102,3.3102,3.3102,3.3102,3.3102,3.3102,3.3102,3.3102,3.3102,3.3102,3.3102,3.3102,3.3102,3.3102,3.3102,3.3102,3.3102,3.3102,3.3102,3.3102,3.3102,3.3102,3.3102,3.3102,3.3102,3.3102,3.3102,3.3102,3.3102,3.3102,3.3102,3.3102,3.3102,3.3102,3.3102,3.3102,3.3102,3.3102,3.3102,3.3102,3.3102,3.3102,3.3102,3.3102,3.3102,3.3102,3.3102,3.3468,3.4123,3.5005,3.5345,3.5719,3.6118,3.6318,3.6393,3.6393,3.6393,3.6393,3.6393,3.6393,3.6393,3.6393,3.6393,3.6393,3.6393,2.3091,2.3091,2.3091,2.3091,2.3091,2.3091,2.3091,2.3091,2.3091,2.3091,2.3091,2.3091,2.3091,2.3091,2.3091,2.3091,2.3091,2.3091,2.3091,2.3091,2.3091,2.3091,2.3091,2.3091,2.3091,2.3091,2.3517,2.4381,2.5911,2.738,2.8747,2.9475,2.9801,2.9801,2.9801,2.9801,2.9801,2.9801,2.9801,2.9801,2.9801,2.9917,3.0143,3.0472,3.0851,3.1301,3.1966,3.2353,3.2602,3.2966,3.3102,3.3102,3.3102,3.3102,3.3102,3.3102,3.3102,3.3102,3.3102,3.3102,3.3102,3.3102,3.3102,3.3102,3.3102,3.3102,3.3102,3.3102,3.3102,3.3102,3.3102,3.3102,3.3102,3.3102,3.3102,3.3102,3.3102,3.3102,3.3102,3.3102,3.3102,3.3102,3.3102,3.3102,3.3102,3.3102,3.3102,3.3102,3.3102,3.3102,3.3102,3.3102,3.3102,3.3102,3.3102,3.3102,3.3203,3.3406,3.4149,3.4853,3.5508,3.5732,3.6031,3.6393,3.6393,3.6393,3.6393,3.6393,3.6393,3.6393,3.6393,3.6393,3.6393,3.6393,3.6393,3.6393,2.3091,2.3091,2.3091,2.3091,2.3091,2.3091,2.3091,2.3091,2.3091,2.3091,2.3091,2.3091,2.3091,2.3091,2.3091,2.3091,2.3091,2.3091,2.3091,2.3091,2.3091,2.3091,2.3091,2.3091,2.3091,2.3091,2.4221,2.6504,2.8643,2.9672,2.9672,2.9763,2.9763,2.9682,2.9763,2.9801,2.9801,2.9801,2.9801,2.9801,2.9839,3.0107,3.0491,3.0646,3.1287,3.2089,3.2221,3.2616,3.3102,3.3102,3.3102,3.3102,3.3102,3.3102,3.3102,3.3102,3.3102,3.3102,3.3102,3.3102,3.3102,3.3102,3.3102,3.3102,3.3102,3.3102,3.3102,3.3102,3.3102,3.3102,3.3102,3.3102,3.3102,3.3102,3.3102,3.3102,3.3102,3.3102,3.3102,3.3102,3.3102,3.3102,3.3102,3.3102,3.3102,3.3102,3.3102,3.3102,3.3102,3.3102,3.3102,3.3102,3.3102,3.3102,3.3102,3.314,3.3443,3.4022,3.5018,3.552,3.5582,3.6131,3.6393,3.6393,3.6393,3.6393,3.6393,3.6393,3.6393,3.6393,3.6393,3.6393,3.6393,3.6393,3.6393,3.6393,2.3091,2.3091,2.3091,2.3091,2.3091,2.3091,2.3091,2.3091,2.3091,2.3091,2.3091,2.3091,2.3091,2.3091,2.3091,2.3091,2.3091,2.3091,2.3091,2.3091,2.3091,2.3091,2.3091,2.3091,2.3091,2.3091,2.4221,2.6504,2.7835,2.8508,2.8527,2.9395,2.9346,2.8537,2.9404,2.9801,2.9801,2.9801,2.9801,2.9839,3.0256,2.9929,2.942,3.117,3.141,3.1006,3.2383,3.2989,3.3102,3.3102,3.3102,3.3102,3.3102,3.3102,3.3102,3.3102,3.3102,3.3102,3.3102,3.3102,3.3102,3.3102,3.3102,3.3102,3.3102,3.3102,3.3102,3.3102,3.3102,3.3102,3.3102,3.3102,3.3102,3.3102,3.3102,3.3102,3.3102,3.3102,3.3102,3.3102,3.3102,3.3102,3.3102,3.3102,3.3102,3.3102,3.3102,3.3102,3.3102,3.3102,3.3102,3.3102,3.3102,3.3102,3.3102,3.3506,3.4187,3.5118,3.537,3.5744,3.6193,3.633,3.6393,3.6393,3.6393,3.6393,3.6393,3.6393,3.6393,3.6393,3.6393,3.6393,3.6393,3.6393,3.6393,3.6393,2.3091,2.3091,2.3091,2.3091,2.3091,2.3091,2.3091,2.3091,2.3091,2.3091,2.3091,2.3091,2.3091,2.3091,2.3091,2.3091,2.3091,2.3091,2.3091,2.3091,2.3091,2.3091,2.3091,2.3091,2.3091,2.3091,2.4221,2.6504,2.7572,2.8106,2.8104,2.8727,2.8698,2.8136,2.8747,2.9317,2.9772,2.9236,2.9326,2.9803,2.9778,2.953,2.9332,3.0813,3.1124,3.0974,3.2533,3.3102,3.3102,3.3102,3.3102,3.3102,3.3102,3.3102,3.3102,3.3102,3.3102,3.3102,3.3102,3.3102,3.3102,3.3102,3.3102,3.3102,3.3102,3.3102,3.3102,3.3102,3.3102,3.3102,3.3102,3.3102,3.3102,3.3102,3.3102,3.3102,3.3102,3.3102,3.3102,3.3102,3.3102,3.3102,3.3102,3.3102,3.3102,3.3102,3.3102,3.3102,3.3102,3.3102,3.3102,3.3102,3.3102,3.3228,3.3456,3.4237,3.4917,3.5495,3.5782,3.6081,3.6393,3.6393,3.6393,3.6393,3.6393,3.6393,3.6393,3.6393,3.6393,3.6393,3.6393,3.6393,3.6393,3.6393,3.6393,3.6393,2.3091,2.3091,2.3091,2.3091,2.3091,2.3091,2.3091,2.3091,2.3091,2.3091,2.3091,2.3091,2.3091,2.3091,2.3091,2.3091,2.3091,2.3091,2.3091,2.3091,2.3091,2.3091,2.3091,2.3091,2.3091,2.3267,2.4392,2.6504,2.7412,2.7854,2.7854,2.8014,2.8106,2.8106,2.8106,2.8727,2.9733,2.8577,2.8695,2.961,2.9115,2.9026,2.9255,3.0171,3.0688,3.1123,3.2579,3.3102,3.3102,3.3102,3.3102,3.3102,3.3102,3.3102,3.3102,3.3102,3.3102,3.3102,3.3102,3.3102,3.3102,3.3102,3.3102,3.3102,3.3102,3.3102,3.3102,3.3102,3.3102,3.3102,3.3102,3.3102,3.3102,3.3102,3.3102,3.3102,3.3102,3.3102,3.3102,3.3102,3.3102,3.3102,3.3102,3.3102,3.3102,3.3102,3.3102,3.3102,3.3102,3.3102,3.314,3.3228,3.3228,3.3519,3.4135,3.5043,3.5545,3.5632,3.6156,3.6393,3.6393,3.6393,3.6393,3.6393,3.6393,3.6393,3.6393,3.6393,3.6393,3.6393,3.6393,3.6393,3.6393,3.6393,3.6393,3.6393,2.3091,2.3091,2.3091,2.3091,2.3091,2.3091,2.3091,2.3091,2.3091,2.3091,2.3091,2.3091,2.3091,2.3091,2.3091,2.3091,2.3091,2.3091,2.3091,2.3091,2.3091,2.3091,2.3091,2.3091,2.3091,2.4039,2.5178,2.6504,2.6667,2.6749,2.677,2.7685,2.8106,2.8106,2.8106,2.8727,2.9733,2.8577,2.8438,2.8995,2.9343,2.8544,2.7441,3.0071,3.0494,2.9977,3.2284,3.3102,3.3102,3.3102,3.3102,3.3102,3.3102,3.3102,3.3102,3.3102,3.3102,3.3102,3.3102,3.3102,3.3102,3.3102,3.3102,3.3102,3.3102,3.3102,3.3102,3.3102,3.3102,3.3102,3.3102,3.3102,3.3102,3.3102,3.3102,3.3102,3.3102,3.3102,3.3102,3.3102,3.3102,3.3102,3.3102,3.3102,3.3102,3.3102,3.3102,3.3102,3.3102,3.3102,3.3316,3.3759,3.3782,3.425,3.5232,3.542,3.5757,3.6256,3.6355,3.6393,3.6393,3.6393,3.6393,3.6393,3.6393,3.6393,3.6393,3.6393,3.6393,3.6393,3.6393,3.6393,3.6393,3.6393,3.6393,3.6393,2.3091,2.3091,2.3091,2.3091,2.3091,2.3091,2.3091,2.3091,2.3091,2.3091,2.3091,2.3091,2.3091,2.3091,2.3091,2.3091,2.3091,2.3091,2.3091,2.3091,2.3091,2.3091,2.3091,2.3387,2.4006,2.4532,2.5357,2.6504,2.5891,2.5902,2.6503,2.7015,2.7239,2.7239,2.7239,2.7857,2.8791,2.728,2.7489,2.8766,2.8246,2.7505,2.6952,2.933,2.9875,2.9727,3.2219,3.3102,3.3102,3.3102,3.3102,3.3102,3.3102,3.3102,3.3102,3.3102,3.3102,3.3102,3.3102,3.3102,3.3102,3.3102,3.3102,3.3102,3.3102,3.3102,3.3102,3.3102,3.3102,3.3102,3.3102,3.3102,3.3102,3.3102,3.3102,3.3102,3.3102,3.3102,3.3102,3.3102,3.3102,3.3102,3.3102,3.3102,3.3102,3.3102,3.3102,3.3102,3.3102,3.3368,3.3633,3.3884,3.4463,3.4993,3.5495,3.5819,3.6118,3.6393,3.6393,3.6393,3.6393,3.6393,3.6393,3.6393,3.6393,3.6393,3.6393,3.6393,3.6393,3.6393,3.6393,3.6393,3.6393,3.6393,3.6393,3.6393,2.3258,2.3336,2.3404,2.3404,2.3316,2.3258,2.3258,2.317,2.3091,2.3091,2.3091,2.3091,2.3091,2.3091,2.3091,2.3091,2.3091,2.3091,2.3091,2.3091,2.3091,2.3091,2.3354,2.3898,2.4776,2.4798,2.5231,2.6099,2.5231,2.5378,2.6504,2.6504,2.6626,2.6852,2.6327,2.6754,2.776,2.6098,2.653,2.8223,2.7137,2.6777,2.7086,2.8758,2.9567,3.0113,3.2317,3.3102,3.3102,3.3102,3.3102,3.3102,3.3102,3.3102,3.3102,3.3102,3.3102,3.3102,3.3102,3.3102,3.3102,3.3102,3.3102,3.3102,3.3102,3.3102,3.3102,3.3102,3.3102,3.3102,3.3102,3.3102,3.3102,3.3102,3.3102,3.3102,3.3102,3.3102,3.3102,3.3102,3.3102,3.3102,3.3102,3.3102,3.3102,3.3102,3.3102,3.3153,3.3278,3.3682,3.401,3.4262,3.5068,3.557,3.5707,3.5861,3.6085,3.6393,3.6073,3.6096,3.6393,3.6393,3.6393,3.6393,3.6393,3.6393,3.6393,3.6393,3.6393,3.6393,3.6393,3.6393,3.6393,3.6393,3.6393,3.6393,2.3751,2.4041,2.4303,2.4303,2.4004,2.3751,2.3751,2.3376,2.3091,2.3091,2.3091,2.3091,2.3091,2.3091,2.3091,2.3091,2.3091,2.3091,2.3091,2.3091,2.3091,2.3091,2.4113,2.4713,2.4798,2.4798,2.484,2.4925,2.484,2.5378,2.6504,2.6504,2.7036,2.7884,2.5838,2.5763,2.7102,2.5893,2.5961,2.6851,2.674,2.7033,2.7666,2.8925,3.009,3.1245,3.2612,3.3102,3.3102,3.3102,3.3102,3.3102,3.3102,3.3102,3.3102,3.3102,3.3102,3.3102,3.3102,3.3102,3.3102,3.3102,3.3102,3.3102,3.3102,3.3102,3.3102,3.3102,3.3102,3.3102,3.3102,3.3102,3.3102,3.3102,3.3102,3.3102,3.3102,3.3102,3.3102,3.3102,3.3102,3.3102,3.3102,3.3102,3.3102,3.3102,3.3102,3.3329,3.3809,3.3872,3.4363,3.5356,3.5458,3.5769,3.633,3.515,3.5174,3.6381,3.5138,3.5199,3.6393,3.6393,3.6393,3.6393,3.6393,3.6393,3.6393,3.6393,3.6393,3.6393,3.6393,3.6393,3.6393,3.6393,3.6393,3.6393,2.4168,2.4295,2.4402,2.4402,2.4276,2.4168,2.4168,2.4022,2.3815,2.3563,2.3534,2.3415,2.3131,2.3091,2.3091,2.3091,2.3091,2.3091,2.3091,2.3091,2.3419,2.4114,2.3887,2.4403,2.5818,2.4467,2.4435,2.5849,2.5147,2.5378,2.6504,2.6504,2.6337,2.6025,2.5445,2.5495,2.6011,2.5446,2.5792,2.6654,2.6248,2.6218,2.6634,2.8646,2.9681,3.035,3.2371,3.3102,3.3102,3.3102,3.3102,3.3102,3.3102,3.3102,3.3102,3.3102,3.3102,3.3102,3.3102,3.3102,3.3102,3.3102,3.3102,3.3102,3.3102,3.3102,3.3102,3.3102,3.3102,3.3102,3.3102,3.3102,3.3102,3.3102,3.3102,3.3102,3.3102,3.3102,3.3102,3.3102,3.3102,3.3102,3.3102,3.3102,3.3102,3.3102,3.3406,3.3694,3.3884,3.4527,3.5242,3.6031,3.6068,3.6168,3.6393,3.5066,3.4654,3.5138,3.3761,3.3354,3.3848,3.3848,3.4325,3.5162,3.5162,3.5631,3.6393,3.6393,3.6393,3.6393,3.6393,3.6393,3.6393,3.6393,3.6393,3.6393,2.4619,2.4725,2.481,2.481,2.4705,2.4619,2.4619,2.449,2.4305,2.4023,2.3984,2.3818,2.3367,2.3327,2.3269,2.311,2.3091,2.3091,2.3091,2.3091,2.3442,2.4232,2.3855,2.4199,2.541,2.4253,2.4221,2.5431,2.501,2.5199,2.5975,2.5975,2.5622,2.4986,2.4918,2.5049,2.53,2.5155,2.56,2.6353,2.5885,2.5939,2.6524,2.8611,2.9647,3.0237,3.235,3.3102,3.3102,3.3102,3.3102,3.3102,3.3102,3.3102,3.3102,3.3102,3.3102,3.3102,3.3102,3.3102,3.3102,3.3102,3.3102,3.3102,3.3102,3.3102,3.3102,3.3102,3.3102,3.3102,3.3102,3.3102,3.3102,3.3102,3.3102,3.3102,3.3102,3.3102,3.3102,3.3102,3.3102,3.3102,3.3102,3.3102,3.3178,3.3341,3.3684,3.3858,3.3777,3.5048,3.558,3.5126,3.5547,3.5559,3.5126,3.4191,3.3748,3.3712,3.2329,3.1889,3.2293,3.2293,3.2831,3.3773,3.4202,3.4921,3.5798,3.6227,3.6393,3.6393,3.6393,3.6393,3.6393,3.6393,3.6393,3.6393,2.5092,2.543,2.5706,2.5706,2.5371,2.5092,2.5092,2.4707,2.4401,2.4412,2.4412,2.4246,2.3849,2.3799,2.3623,2.3151,2.3112,2.3101,2.3091,2.3091,2.3091,2.3091,2.4178,2.4264,2.3135,2.4211,2.4243,2.3113,2.4253,2.4798,2.4798,2.4798,2.5017,2.5337,2.4283,2.429,2.5104,2.5092,2.5344,2.5706,2.5706,2.6452,2.7732,2.8936,3.0158,3.1379,3.2644,3.3102,3.3102,3.3102,3.3102,3.3102,3.3102,3.3102,3.3102,3.3102,3.3102,3.3102,3.3102,3.3102,3.3102,3.3102,3.3102,3.3102,3.3102,3.3102,3.3102,3.3102,3.3102,3.3102,3.3102,3.3102,3.3102,3.3102,3.3102,3.3102,3.3102,3.3102,3.3102,3.3102,3.3102,3.3102,3.3102,3.3102,3.333,3.3872,3.3898,3.3789,3.3517,3.5323,3.5126,3.2381,3.3661,3.3699,3.2293,3.228,3.228,3.2268,3.094,3.0981,3.2268,3.2268,3.2268,3.2356,3.376,3.4385,3.4508,3.5834,3.6381,3.6393,3.6393,3.6393,3.6393,3.6393,3.6393,3.6393,2.5525,2.562,2.5706,2.5706,2.5601,2.5525,2.5525,2.5406,2.5201,2.4934,2.4896,2.4719,2.4277,2.4217,2.4041,2.3633,2.3594,2.3456,2.3121,2.3091,2.3091,2.3091,2.343,2.3822,2.4286,2.3844,2.3823,2.4296,2.4638,2.4798,2.4808,2.509,2.4873,2.4292,2.4587,2.4869,2.5123,2.54,2.5591,2.5706,2.5706,2.6452,2.7732,2.8936,3.0158,3.1379,3.2644,3.3102,3.3102,3.3102,3.3102,3.3102,3.3102,3.3102,3.3102,3.3102,3.3102,3.3102,3.3102,3.3102,3.3102,3.3102,3.3102,3.3102,3.3102,3.3102,3.3102,3.3102,3.3102,3.3102,3.3102,3.3102,3.3102,3.3102,3.3102,3.3102,3.3102,3.3102,3.3102,3.3102,3.3431,3.3669,3.3669,3.401,3.4288,3.4451,3.3945,3.3766,3.4112,3.3741,3.3144,3.2331,3.2706,3.2279,3.0904,3.0901,3.0901,3.0878,2.9542,2.9112,2.949,2.949,3.0003,3.0927,3.1338,3.2617,3.4434,3.4836,3.5547,3.6393,3.6393,3.6393,3.6393,3.6393,3.6393,3.6393,2.5706,2.5706,2.5706,2.5706,2.5706,2.5706,2.5706,2.5706,2.5608,2.5371,2.5344,2.5178,2.4738,2.4678,2.4502,2.4072,2.4043,2.3914,2.3629,2.409,2.4145,2.3631,2.4101,2.4284,2.4124,2.3442,2.3441,2.4125,2.4125,2.4125,2.4135,2.4571,2.4519,2.4072,2.4779,2.519,2.5352,2.5601,2.5706,2.5706,2.5706,2.6161,2.7042,2.8751,2.9841,3.0721,3.2469,3.2786,3.2426,3.2928,3.3102,3.3102,3.3102,3.3102,3.3102,3.3102,3.3102,3.3102,3.3102,3.3102,3.3102,3.3102,3.3102,3.3102,3.3102,3.3102,3.3102,3.3102,3.3102,3.3102,3.3102,3.3267,3.3418,3.3418,3.3583,3.3721,3.3721,3.3721,3.3721,3.3721,3.4022,3.4212,3.4212,3.4038,3.377,3.3465,3.3182,3.2945,3.2794,3.248,3.1813,3.076,3.1224,3.0876,2.9516,2.9503,2.9503,2.95,2.8684,2.8304,2.8304,2.8304,2.8738,2.9542,3.0068,3.1531,3.3613,3.4165,3.5186,3.6393,3.6393,3.6393,3.6393,3.6393,3.6393,3.6393,2.5706,2.5706,2.5706,2.5706,2.5706,2.5706,2.5706,2.5706,2.5706,2.5706,2.5706,2.5562,2.5188,2.5151,2.4963,2.45,2.442,2.4402,2.4402,2.5483,2.5619,2.4449,2.5506,2.5218,2.326,2.318,2.316,2.316,2.316,2.318,2.3229,2.3701,2.4102,2.4481,2.4943,2.5363,2.5706,2.5706,2.5706,2.5706,2.5706,2.5769,2.6125,2.8506,2.9476,2.9875,3.2251,3.2348,3.1556,3.2711,3.3102,3.3102,3.3102,3.3102,3.3102,3.3102,3.3102,3.3102,3.3102,3.3102,3.3102,3.3102,3.3102,3.3102,3.3102,3.3102,3.3115,3.3165,3.3178,3.319,3.323,3.3633,3.3972,3.3972,3.4388,3.4703,3.4703,3.4703,3.4703,3.4703,3.4741,3.472,3.4607,3.3424,3.2367,3.1636,3.1911,3.1595,3.0369,3.1339,3.0813,2.8384,2.9487,2.9539,2.8304,2.8304,2.8304,2.8304,2.8304,2.8304,2.8304,2.8304,2.8304,2.8371,2.9581,3.0878,3.223,3.3625,3.5017,3.6227,3.6346,3.6393,3.6393,3.6393,3.6393,3.6393,2.5706,2.5706,2.5706,2.5706,2.5706,2.5706,2.5706,2.5706,2.5706,2.5706,2.5706,2.5679,2.5581,2.5571,2.5398,2.4973,2.4609,2.4402,2.4402,2.4657,2.4692,2.4414,2.4657,2.4591,2.4129,2.3807,2.3652,2.3652,2.3652,2.3807,2.4128,2.4601,2.4867,2.4975,2.5379,2.562,2.5706,2.5706,2.5706,2.5706,2.5706,2.6306,2.7351,2.8832,2.9988,3.1,3.2557,3.2916,3.272,3.3004,3.3102,3.3102,3.3102,3.3102,3.3102,3.3102,3.3102,3.3102,3.3102,3.3102,3.3102,3.3102,3.3102,3.3102,3.3102,3.3102,3.3228,3.3644,3.3732,3.3847,3.4275,3.4451,3.4539,3.4539,3.4628,3.4703,3.4703,3.4703,3.4703,3.4703,3.5068,3.4914,3.386,3.2934,3.2311,3.2138,3.126,3.0615,3.0317,2.9581,2.89,2.8318,2.8588,2.8591,2.8304,2.8304,2.8304,2.8304,2.8304,2.8304,2.8304,2.8304,2.8304,2.8318,2.8605,2.949,3.085,3.2203,3.3576,3.4945,3.5989,3.6393,3.6393,3.6393,3.6393,3.6393,2.5706,2.5706,2.5706,2.5706,2.5706,2.5706,2.5706,2.5706,2.5706,2.5706,2.5706,2.5706,2.5706,2.5706,2.562,2.5398,2.5724,2.5925,2.5925,2.5925,2.5925,2.5925,2.5925,2.5555,2.475,2.4523,2.4308,2.4092,2.4092,2.4188,2.4401,2.4887,2.5104,2.5123,2.5525,2.5706,2.5706,2.5706,2.5706,2.5706,2.5706,2.6452,2.7732,2.8936,3.0158,3.1289,3.1941,3.2196,3.2196,3.2196,3.2601,3.3102,3.3102,3.3102,3.3102,3.3102,3.3102,3.3102,3.3102,3.3102,3.3102,3.3102,3.3291,3.3481,3.3481,3.3481,3.3621,3.4162,3.4288,3.4363,3.4653,3.4916,3.508,3.508,3.5317,3.5504,3.5504,3.5504,3.5272,3.463,3.4792,3.4174,3.2174,3.1593,3.1083,3.0447,2.9739,2.9342,2.9342,2.8684,2.8304,2.8304,2.8304,2.8304,2.8304,2.8304,2.8304,2.8304,2.8304,2.8304,2.8304,2.8304,2.8304,2.8304,2.8304,2.9059,3.0408,3.176,3.313,3.4532,3.5882,3.6393,3.6393,3.6393,3.6393,3.6393,2.5706,2.5706,2.5706,2.5706,2.5706,2.5706,2.5706,2.5706,2.5706,2.5706,2.5706,2.5706,2.5706,2.589,2.6026,2.6026,2.6993,2.7601,2.7601,2.7398,2.728,2.728,2.728,2.6618,2.5233,2.5197,2.4982,2.452,2.452,2.4559,2.4625,2.5022,2.5197,2.5219,2.5542,2.5706,2.5706,2.5706,2.5706,2.573,2.5939,2.6658,2.7744,2.9166,3.0327,3.1234,3.1456,3.1522,3.1522,3.1522,3.2228,3.3102,3.3102,3.295,3.2819,3.3036,3.295,3.2819,3.3036,3.3165,3.3241,3.3241,3.3644,3.406,3.4149,3.411,3.4187,3.4728,3.4841,3.4866,3.4978,3.5355,3.5645,3.5645,3.6068,3.6393,3.6393,3.6393,3.5894,3.4556,3.3994,3.2805,3.0525,3.0094,2.95,2.8384,2.8304,2.8304,2.8304,2.8304,2.8304,2.8304,2.8304,2.8304,2.8304,2.8304,2.8304,2.8304,2.8304,2.8304,2.8304,2.8304,2.8304,2.8304,2.8304,2.8926,3.007,3.1647,3.2981,3.4202,3.5775,3.6393,3.6393,3.6393,3.6393,3.6393,2.5706,2.5706,2.5706,2.5706,2.5706,2.5706,2.5706,2.5706,2.5706,2.5706,2.5706,2.5706,2.5706,2.668,2.7339,2.7339,2.7494,2.7601,2.7601,2.6572,2.5953,2.5953,2.5953,2.5849,2.562,2.562,2.5418,2.5016,2.5016,2.5176,2.552,2.5591,2.562,2.562,2.5676,2.5706,2.5706,2.5706,2.5706,2.5805,2.6897,2.7458,2.7849,3.009,3.1055,3.1345,3.2447,3.284,3.284,3.284,3.2961,3.3102,3.3102,3.2337,3.1666,3.2786,3.2315,3.17,3.2808,3.3431,3.3784,3.3784,3.42,3.4715,3.5181,3.4917,3.4741,3.527,3.5382,3.5556,3.608,3.623,3.6281,3.6281,3.6355,3.6393,3.6393,3.6393,3.5894,3.4556,3.2292,3.0708,3.0343,2.925,2.8495,2.8304,2.8304,2.8304,2.8304,2.8304,2.8304,2.8304,2.8304,2.8304,2.8304,2.8304,2.8304,2.8304,2.8304,2.8304,2.8304,2.8304,2.8304,2.8304,2.8304,2.8398,2.8754,3.1276,3.2418,3.2844,3.5403,3.6393,3.6393,3.6393,3.6393,3.6393,2.5706,2.5706,2.5706,2.5706,2.5706,2.5706,2.5706,2.5706,2.5706,2.5706,2.5706,2.5706,2.5706,2.7447,2.8331,2.766,2.8226,2.8319,2.7636,2.6414,2.6026,2.674,2.6086,2.5706,2.5706,2.5706,2.5608,2.5439,2.5439,2.5535,2.5706,2.5706,2.5706,2.5706,2.5706,2.5706,2.5706,2.5706,2.611,2.6814,2.7364,2.8412,2.9738,3.0788,3.1633,3.2326,3.2907,3.2219,3.1246,3.2623,3.3102,3.2972,3.2261,3.1644,3.1178,3.1079,3.1112,3.1405,3.2297,3.3212,3.3972,3.4275,3.4753,3.5218,3.5445,3.558,3.5716,3.5943,3.5994,3.6081,3.6355,3.6393,3.6393,3.6393,3.6393,3.6144,3.5379,3.593,3.5607,3.3477,3.0824,2.9181,2.9181,2.8654,2.8304,2.8304,2.8304,2.8304,2.8304,2.8304,2.8304,2.8304,2.8304,2.8304,2.8304,2.8304,2.8304,2.8304,2.8304,2.8304,2.8304,2.8304,2.8304,2.8304,2.8304,2.8304,2.8508,3.1186,3.2293,3.257,3.5331,3.6393,3.6393,3.6393,3.6393,3.6393]}]]